<?xml version="1.0" encoding="UTF-8" standalone="no" ?>
<gpx xmlns="http://www.topografix.com/GPX/1/1" xmlns:xsi="http://www.w3.org/2001/XMLSchema-instance" xsi:schemaLocation="http://www.topografix.com/GPX/1/1 http://www.topografix.com/GPX/1/1/gpx.xsd" version="1.1" creator="VisuGPX - https://www.visugpx.com">
  <metadata>
    <name>voyage total </name>
  </metadata>
  <trk>
    <name><![CDATA[Fruits du Chaine]]></name>
    <trkseg>
      <trkpt lat="47.3009" lon="-2.17773">
        <ele>0.78358</ele>
        <time>2020-06-05T14:29:09.014Z</time>
      </trkpt>
      <trkpt lat="47.30098" lon="-2.17765">
        <ele>0.78358</ele>
        <time>2020-06-05T14:29:13.015Z</time>
      </trkpt>
      <trkpt lat="47.30107" lon="-2.17757">
        <ele>0.78358</ele>
        <time>2020-06-05T14:29:17.016Z</time>
      </trkpt>
      <trkpt lat="47.30115" lon="-2.17748">
        <ele>0.78358</ele>
        <time>2020-06-05T14:29:20.016Z</time>
      </trkpt>
      <trkpt lat="47.30124" lon="-2.17737">
        <ele>0.78358</ele>
        <time>2020-06-05T14:29:23.016Z</time>
      </trkpt>
      <trkpt lat="47.30131" lon="-2.17725">
        <ele>0.78358</ele>
        <time>2020-06-05T14:29:27.017Z</time>
      </trkpt>
      <trkpt lat="47.30134" lon="-2.17709">
        <ele>0.78358</ele>
        <time>2020-06-05T14:29:31.017Z</time>
      </trkpt>
      <trkpt lat="47.30139" lon="-2.17695">
        <ele>0.78358</ele>
        <time>2020-06-05T14:29:34.017Z</time>
      </trkpt>
      <trkpt lat="47.30147" lon="-2.17683">
        <ele>0.78358</ele>
        <time>2020-06-05T14:29:37.018Z</time>
      </trkpt>
      <trkpt lat="47.30158" lon="-2.17675">
        <ele>0.769297</ele>
        <time>2020-06-05T14:29:40.018Z</time>
      </trkpt>
      <trkpt lat="47.30168" lon="-2.17675">
        <ele>0.75355</ele>
        <time>2020-06-05T14:29:42.018Z</time>
      </trkpt>
      <trkpt lat="47.30181" lon="-2.17683">
        <ele>0.7315</ele>
        <time>2020-06-05T14:29:45.018Z</time>
      </trkpt>
      <trkpt lat="47.30191" lon="-2.17694">
        <ele>0.711085</ele>
        <time>2020-06-05T14:29:48.018Z</time>
      </trkpt>
      <trkpt lat="47.302" lon="-2.17708">
        <ele>0.690659</ele>
        <time>2020-06-05T14:29:51.018Z</time>
      </trkpt>
      <trkpt lat="47.30201" lon="-2.17721">
        <ele>0.676318</ele>
        <time>2020-06-05T14:29:53.018Z</time>
      </trkpt>
      <trkpt lat="47.30203" lon="-2.17739">
        <ele>0.657189</ele>
        <time>2020-06-05T14:29:56.018Z</time>
      </trkpt>
      <trkpt lat="47.3021" lon="-2.1775">
        <ele>0.639876</ele>
        <time>2020-06-05T14:30:00.018Z</time>
      </trkpt>
      <trkpt lat="47.3022" lon="-2.17759">
        <ele>0.621933</ele>
        <time>2020-06-05T14:30:03.018Z</time>
      </trkpt>
      <trkpt lat="47.30229" lon="-2.17767">
        <ele>0.60462</ele>
        <time>2020-06-05T14:30:06.018Z</time>
      </trkpt>
      <trkpt lat="47.30241" lon="-2.17772">
        <ele>0.585828</ele>
        <time>2020-06-05T14:30:09.018Z</time>
      </trkpt>
      <trkpt lat="47.30251" lon="-2.17776">
        <ele>0.56847</ele>
        <time>2020-06-05T14:30:12.018Z</time>
      </trkpt>
      <trkpt lat="47.30261" lon="-2.17782">
        <ele>0.55224</ele>
        <time>2020-06-05T14:30:15.018Z</time>
      </trkpt>
      <trkpt lat="47.30269" lon="-2.17788">
        <ele>0.537063</ele>
        <time>2020-06-05T14:30:18.018Z</time>
      </trkpt>
      <trkpt lat="47.30281" lon="-2.17793">
        <ele>0.517783</ele>
        <time>2020-06-05T14:30:21.018Z</time>
      </trkpt>
      <trkpt lat="47.30293" lon="-2.17802">
        <ele>0.499003</ele>
        <time>2020-06-05T14:30:24.018Z</time>
      </trkpt>
      <trkpt lat="47.30302" lon="-2.17813">
        <ele>0.526842</ele>
        <time>2020-06-05T14:30:27.018Z</time>
      </trkpt>
      <trkpt lat="47.3031" lon="-2.17825">
        <ele>0.553678</ele>
        <time>2020-06-05T14:30:30.018Z</time>
      </trkpt>
      <trkpt lat="47.30317" lon="-2.17841">
        <ele>0.583274</ele>
        <time>2020-06-05T14:30:33.018Z</time>
      </trkpt>
      <trkpt lat="47.30323" lon="-2.17859">
        <ele>0.614191</ele>
        <time>2020-06-05T14:30:36.018Z</time>
      </trkpt>
      <trkpt lat="47.30326" lon="-2.17876">
        <ele>0.641228</ele>
        <time>2020-06-05T14:30:39.018Z</time>
      </trkpt>
      <trkpt lat="47.30325" lon="-2.1789">
        <ele>0.66469</ele>
        <time>2020-06-05T14:30:42.018Z</time>
      </trkpt>
      <trkpt lat="47.30326" lon="-2.17906">
        <ele>0.68907</ele>
        <time>2020-06-05T14:30:45.017Z</time>
      </trkpt>
      <trkpt lat="47.30325" lon="-2.17921">
        <ele>0.712605</ele>
        <time>2020-06-05T14:30:47.017Z</time>
      </trkpt>
      <trkpt lat="47.30329" lon="-2.17937">
        <ele>0.738909</ele>
        <time>2020-06-05T14:30:50.017Z</time>
      </trkpt>
      <trkpt lat="47.30332" lon="-2.17953">
        <ele>0.764868</ele>
        <time>2020-06-05T14:30:53.017Z</time>
      </trkpt>
      <trkpt lat="47.30336" lon="-2.17969">
        <ele>0.792035</ele>
        <time>2020-06-05T14:30:56.017Z</time>
      </trkpt>
      <trkpt lat="47.30343" lon="-2.17983">
        <ele>0.818645</ele>
        <time>2020-06-05T14:30:59.017Z</time>
      </trkpt>
      <trkpt lat="47.30349" lon="-2.17999">
        <ele>0.847297</ele>
        <time>2020-06-05T14:31:02.017Z</time>
      </trkpt>
      <trkpt lat="47.30357" lon="-2.18014">
        <ele>0.877443</ele>
        <time>2020-06-05T14:31:05.017Z</time>
      </trkpt>
      <trkpt lat="47.30364" lon="-2.18029">
        <ele>0.906394</ele>
        <time>2020-06-05T14:31:08.017Z</time>
      </trkpt>
      <trkpt lat="47.30371" lon="-2.18044">
        <ele>0.98476</ele>
        <time>2020-06-05T14:31:11.017Z</time>
      </trkpt>
      <trkpt lat="47.3038" lon="-2.18057">
        <ele>1.077041</ele>
        <time>2020-06-05T14:31:14.017Z</time>
      </trkpt>
      <trkpt lat="47.30386" lon="-2.18072">
        <ele>1.170881</ele>
        <time>2020-06-05T14:31:17.016Z</time>
      </trkpt>
      <trkpt lat="47.30394" lon="-2.18087">
        <ele>1.26662</ele>
        <time>2020-06-05T14:31:20.016Z</time>
      </trkpt>
      <trkpt lat="47.30402" lon="-2.181">
        <ele>1.35553</ele>
        <time>2020-06-05T14:31:23.017Z</time>
      </trkpt>
      <trkpt lat="47.30412" lon="-2.18106">
        <ele>1.436448</ele>
        <time>2020-06-05T14:31:26.017Z</time>
      </trkpt>
      <trkpt lat="47.30424" lon="-2.18111">
        <ele>1.530439</ele>
        <time>2020-06-05T14:31:30.017Z</time>
      </trkpt>
      <trkpt lat="47.30435" lon="-2.18114">
        <ele>1.61532</ele>
        <time>2020-06-05T14:31:33.017Z</time>
      </trkpt>
      <trkpt lat="47.30445" lon="-2.18117">
        <ele>1.698921</ele>
        <time>2020-06-05T14:31:36.017Z</time>
      </trkpt>
      <trkpt lat="47.30456" lon="-2.18122">
        <ele>1.784312</ele>
        <time>2020-06-05T14:31:39.017Z</time>
      </trkpt>
      <trkpt lat="47.30468" lon="-2.18127">
        <ele>1.876258</ele>
        <time>2020-06-05T14:31:42.017Z</time>
      </trkpt>
      <trkpt lat="47.3048" lon="-2.18132">
        <ele>1.972306</ele>
        <time>2020-06-05T14:31:45.017Z</time>
      </trkpt>
      <trkpt lat="47.30491" lon="-2.18134">
        <ele>2.054234</ele>
        <time>2020-06-05T14:31:48.017Z</time>
      </trkpt>
      <trkpt lat="47.30502" lon="-2.18138">
        <ele>2.142629</ele>
        <time>2020-06-05T14:31:51.017Z</time>
      </trkpt>
      <trkpt lat="47.3051" lon="-2.18147">
        <ele>2.223333</ele>
        <time>2020-06-05T14:31:55.017Z</time>
      </trkpt>
      <trkpt lat="47.30516" lon="-2.18136">
        <ele>2.320222</ele>
        <time>2020-06-05T14:32:05.016Z</time>
      </trkpt>
      <trkpt lat="47.30523" lon="-2.18127">
        <ele>2.500297</ele>
        <time>2020-06-05T14:32:08.016Z</time>
      </trkpt>
      <trkpt lat="47.30529" lon="-2.18117">
        <ele>2.677126</ele>
        <time>2020-06-05T14:32:11.016Z</time>
      </trkpt>
      <trkpt lat="47.30538" lon="-2.18113">
        <ele>2.85527</ele>
        <time>2020-06-05T14:32:31.016Z</time>
      </trkpt>
      <trkpt lat="47.30546" lon="-2.18108">
        <ele>3.034332</ele>
        <time>2020-06-05T14:33:12.016Z</time>
      </trkpt>
      <trkpt lat="47.30537" lon="-2.18098">
        <ele>3.256376</ele>
        <time>2020-06-05T15:46:02.002Z</time>
      </trkpt>
      <trkpt lat="47.30544" lon="-2.18108">
        <ele>3.443841</ele>
        <time>2020-06-05T15:46:26.999Z</time>
      </trkpt>
      <trkpt lat="47.30554" lon="-2.181">
        <ele>3.663039</ele>
        <time>2020-06-05T15:46:31.999Z</time>
      </trkpt>
      <trkpt lat="47.3056" lon="-2.1809">
        <ele>3.850556</ele>
        <time>2020-06-05T15:46:34.999Z</time>
      </trkpt>
      <trkpt lat="47.30567" lon="-2.1808">
        <ele>4.033878</ele>
        <time>2020-06-05T15:46:37.998Z</time>
      </trkpt>
      <trkpt lat="47.30575" lon="-2.18072">
        <ele>4.221181</ele>
        <time>2020-06-05T15:46:40.998Z</time>
      </trkpt>
      <trkpt lat="47.30581" lon="-2.1806">
        <ele>4.424181</ele>
        <time>2020-06-05T15:46:44.998Z</time>
      </trkpt>
      <trkpt lat="47.3059" lon="-2.18052">
        <ele>4.616372</ele>
        <time>2020-06-05T15:46:48.998Z</time>
      </trkpt>
      <trkpt lat="47.30597" lon="-2.18063">
        <ele>4.821422</ele>
        <time>2020-06-05T15:46:51.998Z</time>
      </trkpt>
      <trkpt lat="47.30604" lon="-2.18076">
        <ele>5.035279</ele>
        <time>2020-06-05T15:46:53.998Z</time>
      </trkpt>
      <trkpt lat="47.3061" lon="-2.18087">
        <ele>5.222552</ele>
        <time>2020-06-05T15:46:55.998Z</time>
      </trkpt>
      <trkpt lat="47.30616" lon="-2.181">
        <ele>5.428153</ele>
        <time>2020-06-05T15:46:57.998Z</time>
      </trkpt>
      <trkpt lat="47.30622" lon="-2.18111">
        <ele>5.625083</ele>
        <time>2020-06-05T15:46:59.998Z</time>
      </trkpt>
      <trkpt lat="47.30627" lon="-2.18123">
        <ele>5.722565</ele>
        <time>2020-06-05T15:47:01.998Z</time>
      </trkpt>
      <trkpt lat="47.30633" lon="-2.18137">
        <ele>5.136865</ele>
        <time>2020-06-05T15:47:04.998Z</time>
      </trkpt>
      <trkpt lat="47.30641" lon="-2.18151">
        <ele>4.543819</ele>
        <time>2020-06-05T15:47:07.997Z</time>
      </trkpt>
      <trkpt lat="47.30647" lon="-2.18168">
        <ele>3.889682</ele>
        <time>2020-06-05T15:47:10.997Z</time>
      </trkpt>
      <trkpt lat="47.30653" lon="-2.18183">
        <ele>3.292824</ele>
        <time>2020-06-05T15:47:13.997Z</time>
      </trkpt>
      <trkpt lat="47.3066" lon="-2.18199">
        <ele>2.658104</ele>
        <time>2020-06-05T15:47:16.997Z</time>
      </trkpt>
      <trkpt lat="47.30668" lon="-2.18215">
        <ele>1.971232</ele>
        <time>2020-06-05T15:47:19.997Z</time>
      </trkpt>
      <trkpt lat="47.30674" lon="-2.18232">
        <ele>1.30936</ele>
        <time>2020-06-05T15:47:22.997Z</time>
      </trkpt>
      <trkpt lat="47.30679" lon="-2.18244">
        <ele>0.842067</ele>
        <time>2020-06-05T15:47:24.997Z</time>
      </trkpt>
      <trkpt lat="47.30684" lon="-2.18256">
        <ele>0.371473</ele>
        <time>2020-06-05T15:47:26.997Z</time>
      </trkpt>
      <trkpt lat="47.30689" lon="-2.18268">
        <ele>-0.117089</ele>
        <time>2020-06-05T15:47:28.997Z</time>
      </trkpt>
      <trkpt lat="47.30693" lon="-2.18284">
        <ele>-0.689276</ele>
        <time>2020-06-05T15:47:30.997Z</time>
      </trkpt>
      <trkpt lat="47.30697" lon="-2.18297">
        <ele>-1.180384</ele>
        <time>2020-06-05T15:47:32.997Z</time>
      </trkpt>
      <trkpt lat="47.30703" lon="-2.18314">
        <ele>-1.82011</ele>
        <time>2020-06-05T15:47:35.997Z</time>
      </trkpt>
      <trkpt lat="47.30709" lon="-2.18331">
        <ele>-2.479599</ele>
        <time>2020-06-05T15:47:38.997Z</time>
      </trkpt>
      <trkpt lat="47.30716" lon="-2.18347">
        <ele>-3.141545</ele>
        <time>2020-06-05T15:47:41.997Z</time>
      </trkpt>
      <trkpt lat="47.30721" lon="-2.18358">
        <ele>-3.036944</ele>
        <time>2020-06-05T15:47:43.997Z</time>
      </trkpt>
      <trkpt lat="47.30727" lon="-2.18377">
        <ele>-2.64814</ele>
        <time>2020-06-05T15:47:46.996Z</time>
      </trkpt>
      <trkpt lat="47.30732" lon="-2.18389">
        <ele>-2.385291</ele>
        <time>2020-06-05T15:47:48.996Z</time>
      </trkpt>
      <trkpt lat="47.30738" lon="-2.18402">
        <ele>-2.080536</ele>
        <time>2020-06-05T15:47:50.996Z</time>
      </trkpt>
      <trkpt lat="47.30745" lon="-2.18413">
        <ele>-1.791067</ele>
        <time>2020-06-05T15:47:52.996Z</time>
      </trkpt>
      <trkpt lat="47.30752" lon="-2.18425">
        <ele>-1.49402</ele>
        <time>2020-06-05T15:47:54.996Z</time>
      </trkpt>
      <trkpt lat="47.3076" lon="-2.18441">
        <ele>-1.123654</ele>
        <time>2020-06-05T15:47:57.996Z</time>
      </trkpt>
      <trkpt lat="47.30768" lon="-2.18455">
        <ele>-0.77944</ele>
        <time>2020-06-05T15:48:00.996Z</time>
      </trkpt>
      <trkpt lat="47.30776" lon="-2.18466">
        <ele>-0.472857</ele>
        <time>2020-06-05T15:48:04.996Z</time>
      </trkpt>
      <trkpt lat="47.30787" lon="-2.18466">
        <ele>-0.166208</ele>
        <time>2020-06-05T15:48:07.996Z</time>
      </trkpt>
      <trkpt lat="47.308" lon="-2.18466">
        <ele>0.196155</ele>
        <time>2020-06-05T15:48:10.996Z</time>
      </trkpt>
      <trkpt lat="47.30812" lon="-2.18467">
        <ele>0.527539</ele>
        <time>2020-06-05T15:48:13.996Z</time>
      </trkpt>
      <trkpt lat="47.30825" lon="-2.18466">
        <ele>0.886897</ele>
        <time>2020-06-05T15:48:16.996Z</time>
      </trkpt>
      <trkpt lat="47.30835" lon="-2.18464">
        <ele>1.165121</ele>
        <time>2020-06-05T15:48:18.996Z</time>
      </trkpt>
      <trkpt lat="47.30847" lon="-2.18462">
        <ele>1.515006</ele>
        <time>2020-06-05T15:48:21.996Z</time>
      </trkpt>
      <trkpt lat="47.30861" lon="-2.18462">
        <ele>1.771608</ele>
        <time>2020-06-05T15:48:24.995Z</time>
      </trkpt>
      <trkpt lat="47.30871" lon="-2.18462">
        <ele>1.777404</ele>
        <time>2020-06-05T15:48:26.995Z</time>
      </trkpt>
      <trkpt lat="47.30884" lon="-2.18463">
        <ele>1.78534</ele>
        <time>2020-06-05T15:48:29.995Z</time>
      </trkpt>
      <trkpt lat="47.30893" lon="-2.18462">
        <ele>1.791011</ele>
        <time>2020-06-05T15:48:31.995Z</time>
      </trkpt>
      <trkpt lat="47.30904" lon="-2.18462">
        <ele>1.797098</ele>
        <time>2020-06-05T15:48:33.995Z</time>
      </trkpt>
      <trkpt lat="47.30914" lon="-2.18463">
        <ele>1.803371</ele>
        <time>2020-06-05T15:48:35.995Z</time>
      </trkpt>
      <trkpt lat="47.30923" lon="-2.18463">
        <ele>1.808866</ele>
        <time>2020-06-05T15:48:37.995Z</time>
      </trkpt>
      <trkpt lat="47.30933" lon="-2.18462">
        <ele>1.81479</ele>
        <time>2020-06-05T15:48:39.995Z</time>
      </trkpt>
      <trkpt lat="47.30943" lon="-2.18462">
        <ele>1.820817</ele>
        <time>2020-06-05T15:48:41.995Z</time>
      </trkpt>
      <trkpt lat="47.30954" lon="-2.18462">
        <ele>1.826964</ele>
        <time>2020-06-05T15:48:43.995Z</time>
      </trkpt>
      <trkpt lat="47.30964" lon="-2.18463">
        <ele>1.832994</ele>
        <time>2020-06-05T15:48:45.995Z</time>
      </trkpt>
      <trkpt lat="47.30975" lon="-2.18463">
        <ele>1.839505</ele>
        <time>2020-06-05T15:48:47.995Z</time>
      </trkpt>
      <trkpt lat="47.30985" lon="-2.18464">
        <ele>1.846022</ele>
        <time>2020-06-05T15:48:49.995Z</time>
      </trkpt>
      <trkpt lat="47.30996" lon="-2.18464">
        <ele>1.852228</ele>
        <time>2020-06-05T15:48:51.995Z</time>
      </trkpt>
      <trkpt lat="47.31007" lon="-2.18463">
        <ele>1.858701</ele>
        <time>2020-06-05T15:48:53.995Z</time>
      </trkpt>
      <trkpt lat="47.31018" lon="-2.18462">
        <ele>1.865384</ele>
        <time>2020-06-05T15:48:55.995Z</time>
      </trkpt>
      <trkpt lat="47.31029" lon="-2.18462">
        <ele>1.871768</ele>
        <time>2020-06-05T15:48:57.995Z</time>
      </trkpt>
      <trkpt lat="47.31038" lon="-2.18462">
        <ele>1.865127</ele>
        <time>2020-06-05T15:48:59.995Z</time>
      </trkpt>
      <trkpt lat="47.3105" lon="-2.18461">
        <ele>1.793184</ele>
        <time>2020-06-05T15:49:02.995Z</time>
      </trkpt>
      <trkpt lat="47.31063" lon="-2.1846">
        <ele>1.714864</ele>
        <time>2020-06-05T15:49:05.994Z</time>
      </trkpt>
      <trkpt lat="47.31074" lon="-2.18459">
        <ele>1.650063</ele>
        <time>2020-06-05T15:49:07.994Z</time>
      </trkpt>
      <trkpt lat="47.31086" lon="-2.18461">
        <ele>1.582098</ele>
        <time>2020-06-05T15:49:09.994Z</time>
      </trkpt>
      <trkpt lat="47.31098" lon="-2.18463">
        <ele>1.51179</ele>
        <time>2020-06-05T15:49:11.994Z</time>
      </trkpt>
      <trkpt lat="47.3111" lon="-2.18463">
        <ele>1.440003</ele>
        <time>2020-06-05T15:49:13.994Z</time>
      </trkpt>
      <trkpt lat="47.31121" lon="-2.18463">
        <ele>1.374103</ele>
        <time>2020-06-05T15:49:15.994Z</time>
      </trkpt>
      <trkpt lat="47.31133" lon="-2.18461">
        <ele>1.303676</ele>
        <time>2020-06-05T15:49:17.994Z</time>
      </trkpt>
      <trkpt lat="47.31146" lon="-2.1846">
        <ele>1.230646</ele>
        <time>2020-06-05T15:49:19.994Z</time>
      </trkpt>
      <trkpt lat="47.31158" lon="-2.18458">
        <ele>1.15536</ele>
        <time>2020-06-05T15:49:21.994Z</time>
      </trkpt>
      <trkpt lat="47.31169" lon="-2.18456">
        <ele>1.089811</ele>
        <time>2020-06-05T15:49:23.994Z</time>
      </trkpt>
      <trkpt lat="47.3118" lon="-2.18454">
        <ele>1.024599</ele>
        <time>2020-06-05T15:49:25.994Z</time>
      </trkpt>
      <trkpt lat="47.3119" lon="-2.18451">
        <ele>0.964709</ele>
        <time>2020-06-05T15:49:27.994Z</time>
      </trkpt>
      <trkpt lat="47.312" lon="-2.18447">
        <ele>0.904097</ele>
        <time>2020-06-05T15:49:29.994Z</time>
      </trkpt>
      <trkpt lat="47.31211" lon="-2.18442">
        <ele>0.838242</ele>
        <time>2020-06-05T15:49:31.994Z</time>
      </trkpt>
      <trkpt lat="47.31221" lon="-2.18437">
        <ele>0.828552</ele>
        <time>2020-06-05T15:49:33.994Z</time>
      </trkpt>
      <trkpt lat="47.31233" lon="-2.18432">
        <ele>0.845706</ele>
        <time>2020-06-05T15:49:35.994Z</time>
      </trkpt>
      <trkpt lat="47.31243" lon="-2.18427">
        <ele>0.861622</ele>
        <time>2020-06-05T15:49:37.994Z</time>
      </trkpt>
      <trkpt lat="47.31252" lon="-2.18421">
        <ele>0.875407</ele>
        <time>2020-06-05T15:49:39.994Z</time>
      </trkpt>
      <trkpt lat="47.3126" lon="-2.18415">
        <ele>0.888585</ele>
        <time>2020-06-05T15:49:41.994Z</time>
      </trkpt>
      <trkpt lat="47.31272" lon="-2.18406">
        <ele>0.907216</ele>
        <time>2020-06-05T15:49:44.993Z</time>
      </trkpt>
      <trkpt lat="47.31284" lon="-2.18399">
        <ele>0.925533</ele>
        <time>2020-06-05T15:49:47.993Z</time>
      </trkpt>
      <trkpt lat="47.31296" lon="-2.18393">
        <ele>0.944052</ele>
        <time>2020-06-05T15:49:50.993Z</time>
      </trkpt>
      <trkpt lat="47.31309" lon="-2.18387">
        <ele>0.963781</ele>
        <time>2020-06-05T15:49:53.993Z</time>
      </trkpt>
      <trkpt lat="47.31319" lon="-2.18385">
        <ele>0.977337</ele>
        <time>2020-06-05T15:49:55.993Z</time>
      </trkpt>
      <trkpt lat="47.31329" lon="-2.18384">
        <ele>0.991821</ele>
        <time>2020-06-05T15:49:57.993Z</time>
      </trkpt>
      <trkpt lat="47.3134" lon="-2.18383">
        <ele>1.007868</ele>
        <time>2020-06-05T15:49:59.993Z</time>
      </trkpt>
      <trkpt lat="47.31351" lon="-2.18382">
        <ele>1.023186</ele>
        <time>2020-06-05T15:50:01.993Z</time>
      </trkpt>
      <trkpt lat="47.31362" lon="-2.18382">
        <ele>1.039211</ele>
        <time>2020-06-05T15:50:03.993Z</time>
      </trkpt>
      <trkpt lat="47.31373" lon="-2.18383">
        <ele>1.054662</ele>
        <time>2020-06-05T15:50:05.993Z</time>
      </trkpt>
      <trkpt lat="47.31383" lon="-2.18382">
        <ele>1.07016</ele>
        <time>2020-06-05T15:50:07.993Z</time>
      </trkpt>
      <trkpt lat="47.31392" lon="-2.1838">
        <ele>1.072655</ele>
        <time>2020-06-05T15:50:09.993Z</time>
      </trkpt>
      <trkpt lat="47.31402" lon="-2.18378">
        <ele>1.068219</ele>
        <time>2020-06-05T15:50:11.993Z</time>
      </trkpt>
      <trkpt lat="47.31416" lon="-2.18376">
        <ele>1.062233</ele>
        <time>2020-06-05T15:50:14.993Z</time>
      </trkpt>
      <trkpt lat="47.31425" lon="-2.18376">
        <ele>1.058209</ele>
        <time>2020-06-05T15:50:16.993Z</time>
      </trkpt>
      <trkpt lat="47.31438" lon="-2.18374">
        <ele>1.052029</ele>
        <time>2020-06-05T15:50:19.993Z</time>
      </trkpt>
      <trkpt lat="47.31449" lon="-2.18372">
        <ele>1.047351</ele>
        <time>2020-06-05T15:50:21.993Z</time>
      </trkpt>
      <trkpt lat="47.31458" lon="-2.1837">
        <ele>1.043006</ele>
        <time>2020-06-05T15:50:23.992Z</time>
      </trkpt>
      <trkpt lat="47.31471" lon="-2.1837">
        <ele>1.037597</ele>
        <time>2020-06-05T15:50:26.992Z</time>
      </trkpt>
      <trkpt lat="47.3148" lon="-2.18369">
        <ele>1.033523</ele>
        <time>2020-06-05T15:50:28.992Z</time>
      </trkpt>
      <trkpt lat="47.3149" lon="-2.18367">
        <ele>1.028937</ele>
        <time>2020-06-05T15:50:30.992Z</time>
      </trkpt>
      <trkpt lat="47.315" lon="-2.18365">
        <ele>1.024206</ele>
        <time>2020-06-05T15:50:32.992Z</time>
      </trkpt>
      <trkpt lat="47.31511" lon="-2.18363">
        <ele>1.019313</ele>
        <time>2020-06-05T15:50:34.992Z</time>
      </trkpt>
      <trkpt lat="47.31522" lon="-2.18363">
        <ele>1.014351</ele>
        <time>2020-06-05T15:50:36.992Z</time>
      </trkpt>
      <trkpt lat="47.31534" lon="-2.18362">
        <ele>1.008984</ele>
        <time>2020-06-05T15:50:38.992Z</time>
      </trkpt>
      <trkpt lat="47.31547" lon="-2.18362">
        <ele>1.003399</ele>
        <time>2020-06-05T15:50:40.992Z</time>
      </trkpt>
      <trkpt lat="47.31558" lon="-2.18362">
        <ele>0.998349</ele>
        <time>2020-06-05T15:50:42.992Z</time>
      </trkpt>
      <trkpt lat="47.31568" lon="-2.18363">
        <ele>0.9574</ele>
        <time>2020-06-05T15:50:44.992Z</time>
      </trkpt>
      <trkpt lat="47.31579" lon="-2.18362">
        <ele>0.798977</ele>
        <time>2020-06-05T15:50:46.992Z</time>
      </trkpt>
      <trkpt lat="47.31589" lon="-2.18361">
        <ele>0.644828</ele>
        <time>2020-06-05T15:50:48.992Z</time>
      </trkpt>
      <trkpt lat="47.31599" lon="-2.18359">
        <ele>0.488236</ele>
        <time>2020-06-05T15:50:50.992Z</time>
      </trkpt>
      <trkpt lat="47.31609" lon="-2.18358">
        <ele>0.336811</ele>
        <time>2020-06-05T15:50:52.992Z</time>
      </trkpt>
      <trkpt lat="47.31622" lon="-2.18355">
        <ele>0.129214</ele>
        <time>2020-06-05T15:50:55.992Z</time>
      </trkpt>
      <trkpt lat="47.31631" lon="-2.18351">
        <ele>-0.020148</ele>
        <time>2020-06-05T15:50:57.992Z</time>
      </trkpt>
      <trkpt lat="47.31642" lon="-2.18349">
        <ele>-0.186601</ele>
        <time>2020-06-05T15:50:59.992Z</time>
      </trkpt>
      <trkpt lat="47.31652" lon="-2.18346">
        <ele>-0.344654</ele>
        <time>2020-06-05T15:51:01.992Z</time>
      </trkpt>
      <trkpt lat="47.31663" lon="-2.18343">
        <ele>-0.50706</ele>
        <time>2020-06-05T15:51:03.991Z</time>
      </trkpt>
      <trkpt lat="47.31675" lon="-2.18341">
        <ele>-0.702588</ele>
        <time>2020-06-05T15:51:05.991Z</time>
      </trkpt>
      <trkpt lat="47.31688" lon="-2.18338">
        <ele>-0.899781</ele>
        <time>2020-06-05T15:51:07.991Z</time>
      </trkpt>
      <trkpt lat="47.31699" lon="-2.18335">
        <ele>-1.079391</ele>
        <time>2020-06-05T15:51:09.991Z</time>
      </trkpt>
      <trkpt lat="47.31712" lon="-2.18334">
        <ele>-1.281469</ele>
        <time>2020-06-05T15:51:11.991Z</time>
      </trkpt>
      <trkpt lat="47.31727" lon="-2.18331">
        <ele>-1.501535</ele>
        <time>2020-06-05T15:51:13.991Z</time>
      </trkpt>
      <trkpt lat="47.3174" lon="-2.18329">
        <ele>-1.706943</ele>
        <time>2020-06-05T15:51:15.991Z</time>
      </trkpt>
      <trkpt lat="47.31752" lon="-2.18327">
        <ele>-1.776789</ele>
        <time>2020-06-05T15:51:17.991Z</time>
      </trkpt>
      <trkpt lat="47.31764" lon="-2.18323">
        <ele>-1.784343</ele>
        <time>2020-06-05T15:51:19.991Z</time>
      </trkpt>
      <trkpt lat="47.31776" lon="-2.18321">
        <ele>-1.792859</ele>
        <time>2020-06-05T15:51:21.991Z</time>
      </trkpt>
      <trkpt lat="47.31786" lon="-2.18317">
        <ele>-1.799468</ele>
        <time>2020-06-05T15:51:23.991Z</time>
      </trkpt>
      <trkpt lat="47.31796" lon="-2.18313">
        <ele>-1.805978</ele>
        <time>2020-06-05T15:51:25.991Z</time>
      </trkpt>
      <trkpt lat="47.31805" lon="-2.1831">
        <ele>-1.812259</ele>
        <time>2020-06-05T15:51:27.991Z</time>
      </trkpt>
      <trkpt lat="47.31815" lon="-2.18307">
        <ele>-1.818942</ele>
        <time>2020-06-05T15:51:29.991Z</time>
      </trkpt>
      <trkpt lat="47.31827" lon="-2.18305">
        <ele>-1.826627</ele>
        <time>2020-06-05T15:51:31.991Z</time>
      </trkpt>
      <trkpt lat="47.31838" lon="-2.18302">
        <ele>-1.833781</ele>
        <time>2020-06-05T15:51:33.991Z</time>
      </trkpt>
      <trkpt lat="47.31848" lon="-2.18299">
        <ele>-1.840684</ele>
        <time>2020-06-05T15:51:35.991Z</time>
      </trkpt>
      <trkpt lat="47.31858" lon="-2.18296">
        <ele>-1.84756</ele>
        <time>2020-06-05T15:51:37.991Z</time>
      </trkpt>
      <trkpt lat="47.31868" lon="-2.18293">
        <ele>-1.854074</ele>
        <time>2020-06-05T15:51:39.991Z</time>
      </trkpt>
      <trkpt lat="47.31878" lon="-2.18291">
        <ele>-1.861027</ele>
        <time>2020-06-05T15:51:41.991Z</time>
      </trkpt>
      <trkpt lat="47.31888" lon="-2.18289">
        <ele>-1.867436</ele>
        <time>2020-06-05T15:51:43.990Z</time>
      </trkpt>
      <trkpt lat="47.31902" lon="-2.18285">
        <ele>-1.876656</ele>
        <time>2020-06-05T15:51:46.990Z</time>
      </trkpt>
      <trkpt lat="47.31912" lon="-2.18283">
        <ele>-1.883124</ele>
        <time>2020-06-05T15:51:48.990Z</time>
      </trkpt>
      <trkpt lat="47.31923" lon="-2.18281">
        <ele>-1.876117</ele>
        <time>2020-06-05T15:51:50.990Z</time>
      </trkpt>
      <trkpt lat="47.31935" lon="-2.18277">
        <ele>-1.785576</ele>
        <time>2020-06-05T15:51:52.990Z</time>
      </trkpt>
      <trkpt lat="47.31945" lon="-2.18274">
        <ele>-1.708161</ele>
        <time>2020-06-05T15:51:54.990Z</time>
      </trkpt>
      <trkpt lat="47.31957" lon="-2.18272">
        <ele>-1.615583</ele>
        <time>2020-06-05T15:51:56.990Z</time>
      </trkpt>
      <trkpt lat="47.31968" lon="-2.18268">
        <ele>-1.533554</ele>
        <time>2020-06-05T15:51:58.990Z</time>
      </trkpt>
      <trkpt lat="47.31978" lon="-2.18264">
        <ele>-1.451775</ele>
        <time>2020-06-05T15:52:00.990Z</time>
      </trkpt>
      <trkpt lat="47.31989" lon="-2.1826">
        <ele>-1.371901</ele>
        <time>2020-06-05T15:52:02.990Z</time>
      </trkpt>
      <trkpt lat="47.31999" lon="-2.18257">
        <ele>-1.291144</ele>
        <time>2020-06-05T15:52:04.990Z</time>
      </trkpt>
      <trkpt lat="47.3201" lon="-2.18254">
        <ele>-1.209254</ele>
        <time>2020-06-05T15:52:06.990Z</time>
      </trkpt>
      <trkpt lat="47.32022" lon="-2.1825">
        <ele>-1.118185</ele>
        <time>2020-06-05T15:52:08.990Z</time>
      </trkpt>
      <trkpt lat="47.32034" lon="-2.18246">
        <ele>-1.028473</ele>
        <time>2020-06-05T15:52:10.990Z</time>
      </trkpt>
      <trkpt lat="47.32045" lon="-2.18244">
        <ele>-0.940031</ele>
        <time>2020-06-05T15:52:12.990Z</time>
      </trkpt>
      <trkpt lat="47.32056" lon="-2.1824">
        <ele>-0.855732</ele>
        <time>2020-06-05T15:52:14.990Z</time>
      </trkpt>
      <trkpt lat="47.32069" lon="-2.18237">
        <ele>-0.763605</ele>
        <time>2020-06-05T15:52:16.990Z</time>
      </trkpt>
      <trkpt lat="47.32082" lon="-2.18234">
        <ele>-0.664608</ele>
        <time>2020-06-05T15:52:18.990Z</time>
      </trkpt>
      <trkpt lat="47.32093" lon="-2.18231">
        <ele>-0.581873</ele>
        <time>2020-06-05T15:52:20.990Z</time>
      </trkpt>
      <trkpt lat="47.32104" lon="-2.18228">
        <ele>-0.407772</ele>
        <time>2020-06-05T15:52:22.989Z</time>
      </trkpt>
      <trkpt lat="47.32116" lon="-2.18224">
        <ele>-0.165065</ele>
        <time>2020-06-05T15:52:24.989Z</time>
      </trkpt>
      <trkpt lat="47.32127" lon="-2.1822">
        <ele>0.065381</ele>
        <time>2020-06-05T15:52:26.989Z</time>
      </trkpt>
      <trkpt lat="47.32139" lon="-2.18217">
        <ele>0.30911</ele>
        <time>2020-06-05T15:52:28.989Z</time>
      </trkpt>
      <trkpt lat="47.32152" lon="-2.18214">
        <ele>0.567585</ele>
        <time>2020-06-05T15:52:30.989Z</time>
      </trkpt>
      <trkpt lat="47.32164" lon="-2.18211">
        <ele>0.821458</ele>
        <time>2020-06-05T15:52:32.989Z</time>
      </trkpt>
      <trkpt lat="47.32177" lon="-2.18207">
        <ele>1.082032</ele>
        <time>2020-06-05T15:52:34.989Z</time>
      </trkpt>
      <trkpt lat="47.3219" lon="-2.18203">
        <ele>1.35199</ele>
        <time>2020-06-05T15:52:36.989Z</time>
      </trkpt>
      <trkpt lat="47.32204" lon="-2.182">
        <ele>1.644711</ele>
        <time>2020-06-05T15:52:38.989Z</time>
      </trkpt>
      <trkpt lat="47.32217" lon="-2.18197">
        <ele>1.906785</ele>
        <time>2020-06-05T15:52:40.991Z</time>
      </trkpt>
      <trkpt lat="47.32228" lon="-2.18195">
        <ele>2.123886</ele>
        <time>2020-06-05T15:52:42.992Z</time>
      </trkpt>
      <trkpt lat="47.32237" lon="-2.18192">
        <ele>2.322614</ele>
        <time>2020-06-05T15:52:44.992Z</time>
      </trkpt>
      <trkpt lat="47.32248" lon="-2.1819">
        <ele>2.545105</ele>
        <time>2020-06-05T15:52:46.993Z</time>
      </trkpt>
      <trkpt lat="47.32258" lon="-2.18187">
        <ele>2.743518</ele>
        <time>2020-06-05T15:52:48.994Z</time>
      </trkpt>
      <trkpt lat="47.32268" lon="-2.18184">
        <ele>2.945467</ele>
        <time>2020-06-05T15:52:50.995Z</time>
      </trkpt>
      <trkpt lat="47.32278" lon="-2.18183">
        <ele>3.148082</ele>
        <time>2020-06-05T15:52:52.995Z</time>
      </trkpt>
      <trkpt lat="47.32288" lon="-2.18182">
        <ele>3.364166</ele>
        <time>2020-06-05T15:52:54.996Z</time>
      </trkpt>
      <trkpt lat="47.32298" lon="-2.18179">
        <ele>3.565504</ele>
        <time>2020-06-05T15:52:56.996Z</time>
      </trkpt>
      <trkpt lat="47.32307" lon="-2.18177">
        <ele>3.758885</ele>
        <time>2020-06-05T15:52:58.997Z</time>
      </trkpt>
      <trkpt lat="47.32317" lon="-2.18174">
        <ele>3.965185</ele>
        <time>2020-06-05T15:53:00.997Z</time>
      </trkpt>
      <trkpt lat="47.32327" lon="-2.1817">
        <ele>4.179879</ele>
        <time>2020-06-05T15:53:02.996Z</time>
      </trkpt>
      <trkpt lat="47.32336" lon="-2.18169">
        <ele>4.382488</ele>
        <time>2020-06-05T15:53:04.996Z</time>
      </trkpt>
      <trkpt lat="47.32346" lon="-2.18168">
        <ele>4.590114</ele>
        <time>2020-06-05T15:53:06.995Z</time>
      </trkpt>
      <trkpt lat="47.32356" lon="-2.18165">
        <ele>4.79876</ele>
        <time>2020-06-05T15:53:08.995Z</time>
      </trkpt>
      <trkpt lat="47.32367" lon="-2.18161">
        <ele>5.020601</ele>
        <time>2020-06-05T15:53:10.995Z</time>
      </trkpt>
      <trkpt lat="47.32378" lon="-2.18159">
        <ele>5.258691</ele>
        <time>2020-06-05T15:53:12.995Z</time>
      </trkpt>
      <trkpt lat="47.3239" lon="-2.18155">
        <ele>5.511926</ele>
        <time>2020-06-05T15:53:14.994Z</time>
      </trkpt>
      <trkpt lat="47.32403" lon="-2.1815">
        <ele>5.797371</ele>
        <time>2020-06-05T15:53:16.994Z</time>
      </trkpt>
      <trkpt lat="47.32418" lon="-2.18146">
        <ele>6.111747</ele>
        <time>2020-06-05T15:53:18.994Z</time>
      </trkpt>
      <trkpt lat="47.32435" lon="-2.18141">
        <ele>6.454182</ele>
        <time>2020-06-05T15:53:20.994Z</time>
      </trkpt>
      <trkpt lat="47.32443" lon="-2.18139">
        <ele>6.639395</ele>
        <time>2020-06-05T15:53:21.994Z</time>
      </trkpt>
      <trkpt lat="47.32461" lon="-2.18134">
        <ele>6.702425</ele>
        <time>2020-06-05T15:53:23.994Z</time>
      </trkpt>
      <trkpt lat="47.32478" lon="-2.18128">
        <ele>6.533308</ele>
        <time>2020-06-05T15:53:25.994Z</time>
      </trkpt>
      <trkpt lat="47.32493" lon="-2.18125">
        <ele>6.377364</ele>
        <time>2020-06-05T15:53:27.994Z</time>
      </trkpt>
      <trkpt lat="47.32508" lon="-2.18121">
        <ele>6.233603</ele>
        <time>2020-06-05T15:53:29.993Z</time>
      </trkpt>
      <trkpt lat="47.32521" lon="-2.18116">
        <ele>6.10302</ele>
        <time>2020-06-05T15:53:31.993Z</time>
      </trkpt>
      <trkpt lat="47.32533" lon="-2.18114">
        <ele>5.980116</ele>
        <time>2020-06-05T15:53:33.993Z</time>
      </trkpt>
      <trkpt lat="47.32545" lon="-2.18113">
        <ele>5.861998</ele>
        <time>2020-06-05T15:53:35.993Z</time>
      </trkpt>
      <trkpt lat="47.32556" lon="-2.18109">
        <ele>5.748246</ele>
        <time>2020-06-05T15:53:37.993Z</time>
      </trkpt>
      <trkpt lat="47.32568" lon="-2.18106">
        <ele>5.635749</ele>
        <time>2020-06-05T15:53:39.993Z</time>
      </trkpt>
      <trkpt lat="47.32578" lon="-2.18104">
        <ele>5.531005</ele>
        <time>2020-06-05T15:53:41.993Z</time>
      </trkpt>
      <trkpt lat="47.32588" lon="-2.18101">
        <ele>5.43072</ele>
        <time>2020-06-05T15:53:43.993Z</time>
      </trkpt>
      <trkpt lat="47.32598" lon="-2.18098">
        <ele>5.336111</ele>
        <time>2020-06-05T15:53:45.993Z</time>
      </trkpt>
      <trkpt lat="47.32607" lon="-2.18096">
        <ele>5.242777</ele>
        <time>2020-06-05T15:53:47.993Z</time>
      </trkpt>
      <trkpt lat="47.32616" lon="-2.18093">
        <ele>5.149731</ele>
        <time>2020-06-05T15:53:49.993Z</time>
      </trkpt>
      <trkpt lat="47.32629" lon="-2.18091">
        <ele>5.018745</ele>
        <time>2020-06-05T15:53:52.993Z</time>
      </trkpt>
      <trkpt lat="47.3264" lon="-2.18088">
        <ele>4.839533</ele>
        <time>2020-06-05T15:53:55.992Z</time>
      </trkpt>
      <trkpt lat="47.32651" lon="-2.18086">
        <ele>4.667718</ele>
        <time>2020-06-05T15:53:58.992Z</time>
      </trkpt>
      <trkpt lat="47.32662" lon="-2.18083">
        <ele>4.498345</ele>
        <time>2020-06-05T15:54:01.992Z</time>
      </trkpt>
      <trkpt lat="47.32672" lon="-2.1808">
        <ele>4.347244</ele>
        <time>2020-06-05T15:54:04.992Z</time>
      </trkpt>
      <trkpt lat="47.32682" lon="-2.18079">
        <ele>4.193399</ele>
        <time>2020-06-05T15:54:07.992Z</time>
      </trkpt>
      <trkpt lat="47.32691" lon="-2.18077">
        <ele>4.045204</ele>
        <time>2020-06-05T15:54:10.992Z</time>
      </trkpt>
      <trkpt lat="47.32703" lon="-2.18073">
        <ele>3.863361</ele>
        <time>2020-06-05T15:54:14.992Z</time>
      </trkpt>
      <trkpt lat="47.32713" lon="-2.18072">
        <ele>3.702357</ele>
        <time>2020-06-05T15:54:18.992Z</time>
      </trkpt>
      <trkpt lat="47.32723" lon="-2.18069">
        <ele>3.558129</ele>
        <time>2020-06-05T15:54:22.992Z</time>
      </trkpt>
      <trkpt lat="47.32735" lon="-2.18066">
        <ele>3.36069</ele>
        <time>2020-06-05T15:54:26.992Z</time>
      </trkpt>
      <trkpt lat="47.32746" lon="-2.18063">
        <ele>3.199462</ele>
        <time>2020-06-05T15:54:28.992Z</time>
      </trkpt>
      <trkpt lat="47.32757" lon="-2.18059">
        <ele>3.02054</ele>
        <time>2020-06-05T15:54:30.992Z</time>
      </trkpt>
      <trkpt lat="47.32769" lon="-2.18056">
        <ele>2.83171</ele>
        <time>2020-06-05T15:54:32.992Z</time>
      </trkpt>
      <trkpt lat="47.32782" lon="-2.18053">
        <ele>2.629396</ele>
        <time>2020-06-05T15:54:34.991Z</time>
      </trkpt>
      <trkpt lat="47.32795" lon="-2.1805">
        <ele>2.424199</ele>
        <time>2020-06-05T15:54:36.991Z</time>
      </trkpt>
      <trkpt lat="47.32809" lon="-2.18047">
        <ele>2.258442</ele>
        <time>2020-06-05T15:54:38.991Z</time>
      </trkpt>
      <trkpt lat="47.32821" lon="-2.18043">
        <ele>2.222289</ele>
        <time>2020-06-05T15:54:40.991Z</time>
      </trkpt>
      <trkpt lat="47.32834" lon="-2.1804">
        <ele>2.187626</ele>
        <time>2020-06-05T15:54:42.991Z</time>
      </trkpt>
      <trkpt lat="47.32846" lon="-2.18036">
        <ele>2.153245</ele>
        <time>2020-06-05T15:54:44.991Z</time>
      </trkpt>
      <trkpt lat="47.32858" lon="-2.18031">
        <ele>2.118025</ele>
        <time>2020-06-05T15:54:46.991Z</time>
      </trkpt>
      <trkpt lat="47.32871" lon="-2.18027">
        <ele>2.083871</ele>
        <time>2020-06-05T15:54:48.991Z</time>
      </trkpt>
      <trkpt lat="47.32883" lon="-2.18023">
        <ele>2.049261</ele>
        <time>2020-06-05T15:54:50.991Z</time>
      </trkpt>
      <trkpt lat="47.32895" lon="-2.18022">
        <ele>2.015871</ele>
        <time>2020-06-05T15:54:52.991Z</time>
      </trkpt>
      <trkpt lat="47.32906" lon="-2.18018">
        <ele>1.984524</ele>
        <time>2020-06-05T15:54:54.991Z</time>
      </trkpt>
      <trkpt lat="47.32917" lon="-2.18015">
        <ele>1.953208</ele>
        <time>2020-06-05T15:54:56.991Z</time>
      </trkpt>
      <trkpt lat="47.32928" lon="-2.18013">
        <ele>1.9221</ele>
        <time>2020-06-05T15:54:58.991Z</time>
      </trkpt>
      <trkpt lat="47.32939" lon="-2.18011">
        <ele>1.891562</ele>
        <time>2020-06-05T15:55:00.991Z</time>
      </trkpt>
      <trkpt lat="47.3295" lon="-2.18008">
        <ele>1.862715</ele>
        <time>2020-06-05T15:55:02.991Z</time>
      </trkpt>
      <trkpt lat="47.3296" lon="-2.18005">
        <ele>1.833999</ele>
        <time>2020-06-05T15:55:04.991Z</time>
      </trkpt>
      <trkpt lat="47.32971" lon="-2.18002">
        <ele>1.803695</ele>
        <time>2020-06-05T15:55:06.991Z</time>
      </trkpt>
      <trkpt lat="47.32982" lon="-2.18">
        <ele>1.773227</ele>
        <time>2020-06-05T15:55:08.991Z</time>
      </trkpt>
      <trkpt lat="47.32993" lon="-2.18">
        <ele>1.60837</ele>
        <time>2020-06-05T15:55:10.991Z</time>
      </trkpt>
      <trkpt lat="47.33004" lon="-2.18001">
        <ele>1.440436</ele>
        <time>2020-06-05T15:55:12.991Z</time>
      </trkpt>
      <trkpt lat="47.33015" lon="-2.17999">
        <ele>1.283714</ele>
        <time>2020-06-05T15:55:14.991Z</time>
      </trkpt>
      <trkpt lat="47.33025" lon="-2.17996">
        <ele>1.127426</ele>
        <time>2020-06-05T15:55:16.991Z</time>
      </trkpt>
      <trkpt lat="47.33035" lon="-2.17991">
        <ele>0.963717</ele>
        <time>2020-06-05T15:55:18.990Z</time>
      </trkpt>
      <trkpt lat="47.33045" lon="-2.17985">
        <ele>0.800473</ele>
        <time>2020-06-05T15:55:20.990Z</time>
      </trkpt>
      <trkpt lat="47.33056" lon="-2.17981">
        <ele>0.641812</ele>
        <time>2020-06-05T15:55:22.990Z</time>
      </trkpt>
      <trkpt lat="47.33065" lon="-2.17977">
        <ele>0.496828</ele>
        <time>2020-06-05T15:55:24.990Z</time>
      </trkpt>
      <trkpt lat="47.33075" lon="-2.17974">
        <ele>0.347128</ele>
        <time>2020-06-05T15:55:26.990Z</time>
      </trkpt>
      <trkpt lat="47.33085" lon="-2.1797">
        <ele>0.186013</ele>
        <time>2020-06-05T15:55:28.990Z</time>
      </trkpt>
      <trkpt lat="47.33096" lon="-2.17964">
        <ele>0.013268</ele>
        <time>2020-06-05T15:55:30.990Z</time>
      </trkpt>
      <trkpt lat="47.33107" lon="-2.17958">
        <ele>-0.167212</ele>
        <time>2020-06-05T15:55:32.990Z</time>
      </trkpt>
      <trkpt lat="47.33117" lon="-2.17949">
        <ele>-0.344519</ele>
        <time>2020-06-05T15:55:34.990Z</time>
      </trkpt>
      <trkpt lat="47.33127" lon="-2.17939">
        <ele>-0.522948</ele>
        <time>2020-06-05T15:55:36.990Z</time>
      </trkpt>
      <trkpt lat="47.33138" lon="-2.17931">
        <ele>-0.70567</ele>
        <time>2020-06-05T15:55:38.990Z</time>
      </trkpt>
      <trkpt lat="47.33149" lon="-2.17923">
        <ele>-0.891048</ele>
        <time>2020-06-05T15:55:40.990Z</time>
      </trkpt>
      <trkpt lat="47.3316" lon="-2.17913">
        <ele>-1.091774</ele>
        <time>2020-06-05T15:55:42.990Z</time>
      </trkpt>
      <trkpt lat="47.33171" lon="-2.17904">
        <ele>-1.301243</ele>
        <time>2020-06-05T15:55:44.990Z</time>
      </trkpt>
      <trkpt lat="47.33181" lon="-2.17894">
        <ele>-1.50113</ele>
        <time>2020-06-05T15:55:46.990Z</time>
      </trkpt>
      <trkpt lat="47.33191" lon="-2.17885">
        <ele>-1.699844</ele>
        <time>2020-06-05T15:55:48.990Z</time>
      </trkpt>
      <trkpt lat="47.33203" lon="-2.17876">
        <ele>-1.909711</ele>
        <time>2020-06-05T15:55:50.990Z</time>
      </trkpt>
      <trkpt lat="47.33213" lon="-2.17866">
        <ele>-2.10726</ele>
        <time>2020-06-05T15:55:52.990Z</time>
      </trkpt>
      <trkpt lat="47.33224" lon="-2.17859">
        <ele>-2.309201</ele>
        <time>2020-06-05T15:55:54.990Z</time>
      </trkpt>
      <trkpt lat="47.33234" lon="-2.1785">
        <ele>-2.504775</ele>
        <time>2020-06-05T15:55:56.990Z</time>
      </trkpt>
      <trkpt lat="47.33244" lon="-2.17842">
        <ele>-2.696254</ele>
        <time>2020-06-05T15:55:58.990Z</time>
      </trkpt>
      <trkpt lat="47.33254" lon="-2.17836">
        <ele>-2.873234</ele>
        <time>2020-06-05T15:56:00.990Z</time>
      </trkpt>
      <trkpt lat="47.33263" lon="-2.17829">
        <ele>-3.040096</ele>
        <time>2020-06-05T15:56:02.989Z</time>
      </trkpt>
      <trkpt lat="47.33272" lon="-2.17821">
        <ele>-3.206216</ele>
        <time>2020-06-05T15:56:04.989Z</time>
      </trkpt>
      <trkpt lat="47.3328" lon="-2.17814">
        <ele>-3.367554</ele>
        <time>2020-06-05T15:56:06.989Z</time>
      </trkpt>
      <trkpt lat="47.33289" lon="-2.17807">
        <ele>-3.528534</ele>
        <time>2020-06-05T15:56:08.989Z</time>
      </trkpt>
      <trkpt lat="47.33297" lon="-2.17802">
        <ele>-3.680218</ele>
        <time>2020-06-05T15:56:10.989Z</time>
      </trkpt>
      <trkpt lat="47.33306" lon="-2.17796">
        <ele>-3.833793</ele>
        <time>2020-06-05T15:56:12.989Z</time>
      </trkpt>
      <trkpt lat="47.33315" lon="-2.17791">
        <ele>-3.884987</ele>
        <time>2020-06-05T15:56:14.989Z</time>
      </trkpt>
      <trkpt lat="47.33324" lon="-2.17785">
        <ele>-3.893258</ele>
        <time>2020-06-05T15:56:16.989Z</time>
      </trkpt>
      <trkpt lat="47.33333" lon="-2.17778">
        <ele>-3.901609</ele>
        <time>2020-06-05T15:56:18.989Z</time>
      </trkpt>
      <trkpt lat="47.33342" lon="-2.17771">
        <ele>-3.910161</ele>
        <time>2020-06-05T15:56:20.989Z</time>
      </trkpt>
      <trkpt lat="47.33351" lon="-2.17764">
        <ele>-3.918708</ele>
        <time>2020-06-05T15:56:22.989Z</time>
      </trkpt>
      <trkpt lat="47.33361" lon="-2.17757">
        <ele>-3.927628</ele>
        <time>2020-06-05T15:56:24.989Z</time>
      </trkpt>
      <trkpt lat="47.3337" lon="-2.17748">
        <ele>-3.936669</ele>
        <time>2020-06-05T15:56:26.989Z</time>
      </trkpt>
      <trkpt lat="47.33379" lon="-2.17738">
        <ele>-3.94598</ele>
        <time>2020-06-05T15:56:28.989Z</time>
      </trkpt>
      <trkpt lat="47.33388" lon="-2.17729">
        <ele>-3.955451</ele>
        <time>2020-06-05T15:56:30.989Z</time>
      </trkpt>
      <trkpt lat="47.33398" lon="-2.17722">
        <ele>-3.964697</ele>
        <time>2020-06-05T15:56:32.989Z</time>
      </trkpt>
      <trkpt lat="47.33407" lon="-2.17714">
        <ele>-3.973461</ele>
        <time>2020-06-05T15:56:34.989Z</time>
      </trkpt>
      <trkpt lat="47.33417" lon="-2.17707">
        <ele>-3.982261</ele>
        <time>2020-06-05T15:56:36.989Z</time>
      </trkpt>
      <trkpt lat="47.33426" lon="-2.17699">
        <ele>-3.991197</ele>
        <time>2020-06-05T15:56:38.989Z</time>
      </trkpt>
      <trkpt lat="47.33434" lon="-2.17689">
        <ele>-4.00007</ele>
        <time>2020-06-05T15:56:40.989Z</time>
      </trkpt>
      <trkpt lat="47.33444" lon="-2.17683">
        <ele>-4.008923</ele>
        <time>2020-06-05T15:56:42.989Z</time>
      </trkpt>
      <trkpt lat="47.33453" lon="-2.17676">
        <ele>-4.017671</ele>
        <time>2020-06-05T15:56:44.989Z</time>
      </trkpt>
      <trkpt lat="47.33462" lon="-2.1767">
        <ele>-4.026191</ele>
        <time>2020-06-05T15:56:46.988Z</time>
      </trkpt>
      <trkpt lat="47.33472" lon="-2.17663">
        <ele>-4.052311</ele>
        <time>2020-06-05T15:56:48.988Z</time>
      </trkpt>
      <trkpt lat="47.33481" lon="-2.17655">
        <ele>-4.088152</ele>
        <time>2020-06-05T15:56:50.988Z</time>
      </trkpt>
      <trkpt lat="47.3349" lon="-2.17647">
        <ele>-4.123467</ele>
        <time>2020-06-05T15:56:52.988Z</time>
      </trkpt>
      <trkpt lat="47.33498" lon="-2.17637">
        <ele>-4.159675</ele>
        <time>2020-06-05T15:56:54.988Z</time>
      </trkpt>
      <trkpt lat="47.33508" lon="-2.17631">
        <ele>-4.196676</ele>
        <time>2020-06-05T15:56:56.988Z</time>
      </trkpt>
      <trkpt lat="47.33518" lon="-2.17625">
        <ele>-4.233722</ele>
        <time>2020-06-05T15:56:58.988Z</time>
      </trkpt>
      <trkpt lat="47.33528" lon="-2.17617">
        <ele>-4.271197</ele>
        <time>2020-06-05T15:57:00.988Z</time>
      </trkpt>
      <trkpt lat="47.33538" lon="-2.17611">
        <ele>-4.30851</ele>
        <time>2020-06-05T15:57:02.988Z</time>
      </trkpt>
      <trkpt lat="47.33548" lon="-2.17604">
        <ele>-4.345066</ele>
        <time>2020-06-05T15:57:04.988Z</time>
      </trkpt>
      <trkpt lat="47.33557" lon="-2.17596">
        <ele>-4.382676</ele>
        <time>2020-06-05T15:57:06.988Z</time>
      </trkpt>
      <trkpt lat="47.33567" lon="-2.17588">
        <ele>-4.420806</ele>
        <time>2020-06-05T15:57:08.988Z</time>
      </trkpt>
      <trkpt lat="47.33577" lon="-2.1758">
        <ele>-4.457272</ele>
        <time>2020-06-05T15:57:10.988Z</time>
      </trkpt>
      <trkpt lat="47.33586" lon="-2.17573">
        <ele>-4.492881</ele>
        <time>2020-06-05T15:57:12.988Z</time>
      </trkpt>
      <trkpt lat="47.33595" lon="-2.17565">
        <ele>-4.52856</ele>
        <time>2020-06-05T15:57:14.988Z</time>
      </trkpt>
      <trkpt lat="47.33604" lon="-2.17557">
        <ele>-4.564709</ele>
        <time>2020-06-05T15:57:16.988Z</time>
      </trkpt>
      <trkpt lat="47.33614" lon="-2.1755">
        <ele>-4.602686</ele>
        <time>2020-06-05T15:57:18.988Z</time>
      </trkpt>
      <trkpt lat="47.33624" lon="-2.17542">
        <ele>-4.640442</ele>
        <time>2020-06-05T15:57:20.988Z</time>
      </trkpt>
      <trkpt lat="47.33633" lon="-2.17533">
        <ele>-4.691253</ele>
        <time>2020-06-05T15:57:22.988Z</time>
      </trkpt>
      <trkpt lat="47.33643" lon="-2.17527">
        <ele>-4.743029</ele>
        <time>2020-06-05T15:57:24.988Z</time>
      </trkpt>
      <trkpt lat="47.33652" lon="-2.1752">
        <ele>-4.794655</ele>
        <time>2020-06-05T15:57:26.988Z</time>
      </trkpt>
      <trkpt lat="47.33662" lon="-2.17511">
        <ele>-4.846899</ele>
        <time>2020-06-05T15:57:28.988Z</time>
      </trkpt>
      <trkpt lat="47.33672" lon="-2.17503">
        <ele>-4.902127</ele>
        <time>2020-06-05T15:57:30.987Z</time>
      </trkpt>
      <trkpt lat="47.33682" lon="-2.17495">
        <ele>-4.957053</ele>
        <time>2020-06-05T15:57:32.987Z</time>
      </trkpt>
      <trkpt lat="47.33692" lon="-2.17488">
        <ele>-5.010682</ele>
        <time>2020-06-05T15:57:34.987Z</time>
      </trkpt>
      <trkpt lat="47.33702" lon="-2.1748">
        <ele>-5.063464</ele>
        <time>2020-06-05T15:57:36.987Z</time>
      </trkpt>
      <trkpt lat="47.33712" lon="-2.17474">
        <ele>-5.11527</ele>
        <time>2020-06-05T15:57:38.987Z</time>
      </trkpt>
      <trkpt lat="47.33722" lon="-2.17467">
        <ele>-5.167897</ele>
        <time>2020-06-05T15:57:40.987Z</time>
      </trkpt>
      <trkpt lat="47.33731" lon="-2.17458">
        <ele>-5.220672</ele>
        <time>2020-06-05T15:57:42.987Z</time>
      </trkpt>
      <trkpt lat="47.33741" lon="-2.17451">
        <ele>-5.273158</ele>
        <time>2020-06-05T15:57:44.987Z</time>
      </trkpt>
      <trkpt lat="47.33751" lon="-2.17444">
        <ele>-5.325505</ele>
        <time>2020-06-05T15:57:46.987Z</time>
      </trkpt>
      <trkpt lat="47.3376" lon="-2.17436">
        <ele>-5.378792</ele>
        <time>2020-06-05T15:57:48.987Z</time>
      </trkpt>
      <trkpt lat="47.3377" lon="-2.17427">
        <ele>-5.434223</ele>
        <time>2020-06-05T15:57:50.987Z</time>
      </trkpt>
      <trkpt lat="47.33781" lon="-2.1742">
        <ele>-5.488137</ele>
        <time>2020-06-05T15:57:52.987Z</time>
      </trkpt>
      <trkpt lat="47.3379" lon="-2.17412">
        <ele>-5.47059</ele>
        <time>2020-06-05T15:57:54.987Z</time>
      </trkpt>
      <trkpt lat="47.338" lon="-2.17403">
        <ele>-5.432826</ele>
        <time>2020-06-05T15:57:56.987Z</time>
      </trkpt>
      <trkpt lat="47.3381" lon="-2.17396">
        <ele>-5.394966</ele>
        <time>2020-06-05T15:57:58.987Z</time>
      </trkpt>
      <trkpt lat="47.33821" lon="-2.17389">
        <ele>-5.357321</ele>
        <time>2020-06-05T15:58:00.987Z</time>
      </trkpt>
      <trkpt lat="47.33831" lon="-2.17381">
        <ele>-5.319675</ele>
        <time>2020-06-05T15:58:02.987Z</time>
      </trkpt>
      <trkpt lat="47.33841" lon="-2.17374">
        <ele>-5.281327</ele>
        <time>2020-06-05T15:58:04.987Z</time>
      </trkpt>
      <trkpt lat="47.33851" lon="-2.17364">
        <ele>-5.242282</ele>
        <time>2020-06-05T15:58:06.987Z</time>
      </trkpt>
      <trkpt lat="47.33862" lon="-2.17356">
        <ele>-5.202452</ele>
        <time>2020-06-05T15:58:08.987Z</time>
      </trkpt>
      <trkpt lat="47.33872" lon="-2.17348">
        <ele>-5.162812</ele>
        <time>2020-06-05T15:58:10.987Z</time>
      </trkpt>
      <trkpt lat="47.33882" lon="-2.1734">
        <ele>-5.125609</ele>
        <time>2020-06-05T15:58:12.987Z</time>
      </trkpt>
      <trkpt lat="47.33892" lon="-2.17333">
        <ele>-5.08772</ele>
        <time>2020-06-05T15:58:14.986Z</time>
      </trkpt>
      <trkpt lat="47.33903" lon="-2.17324">
        <ele>-5.048633</ele>
        <time>2020-06-05T15:58:16.986Z</time>
      </trkpt>
      <trkpt lat="47.33913" lon="-2.17315">
        <ele>-5.008443</ele>
        <time>2020-06-05T15:58:18.986Z</time>
      </trkpt>
      <trkpt lat="47.33923" lon="-2.17306">
        <ele>-4.969864</ele>
        <time>2020-06-05T15:58:20.986Z</time>
      </trkpt>
      <trkpt lat="47.33933" lon="-2.17299">
        <ele>-4.932713</ele>
        <time>2020-06-05T15:58:22.986Z</time>
      </trkpt>
      <trkpt lat="47.33944" lon="-2.17294">
        <ele>-4.884019</ele>
        <time>2020-06-05T15:58:24.986Z</time>
      </trkpt>
      <trkpt lat="47.33955" lon="-2.17292">
        <ele>-4.799999</ele>
        <time>2020-06-05T15:58:26.986Z</time>
      </trkpt>
      <trkpt lat="47.33967" lon="-2.17293">
        <ele>-4.714914</ele>
        <time>2020-06-05T15:58:28.986Z</time>
      </trkpt>
      <trkpt lat="47.33978" lon="-2.17294">
        <ele>-4.630406</ele>
        <time>2020-06-05T15:58:30.986Z</time>
      </trkpt>
      <trkpt lat="47.33989" lon="-2.17296">
        <ele>-4.544543</ele>
        <time>2020-06-05T15:58:32.986Z</time>
      </trkpt>
      <trkpt lat="47.34001" lon="-2.173">
        <ele>-4.458181</ele>
        <time>2020-06-05T15:58:34.986Z</time>
      </trkpt>
      <trkpt lat="47.34011" lon="-2.17306">
        <ele>-4.373793</ele>
        <time>2020-06-05T15:58:36.986Z</time>
      </trkpt>
      <trkpt lat="47.34022" lon="-2.17312">
        <ele>-4.289072</ele>
        <time>2020-06-05T15:58:38.986Z</time>
      </trkpt>
      <trkpt lat="47.34032" lon="-2.17315">
        <ele>-4.210083</ele>
        <time>2020-06-05T15:58:40.986Z</time>
      </trkpt>
      <trkpt lat="47.34042" lon="-2.1732">
        <ele>-4.131453</ele>
        <time>2020-06-05T15:58:42.986Z</time>
      </trkpt>
      <trkpt lat="47.34052" lon="-2.17326">
        <ele>-4.050577</ele>
        <time>2020-06-05T15:58:44.986Z</time>
      </trkpt>
      <trkpt lat="47.34063" lon="-2.17329">
        <ele>-3.969519</ele>
        <time>2020-06-05T15:58:46.986Z</time>
      </trkpt>
      <trkpt lat="47.34073" lon="-2.17334">
        <ele>-3.887746</ele>
        <time>2020-06-05T15:58:48.986Z</time>
      </trkpt>
      <trkpt lat="47.34084" lon="-2.17338">
        <ele>-3.807698</ele>
        <time>2020-06-05T15:58:50.986Z</time>
      </trkpt>
      <trkpt lat="47.34093" lon="-2.17342">
        <ele>-3.732455</ele>
        <time>2020-06-05T15:58:52.986Z</time>
      </trkpt>
      <trkpt lat="47.34104" lon="-2.17345">
        <ele>-3.655124</ele>
        <time>2020-06-05T15:58:54.986Z</time>
      </trkpt>
      <trkpt lat="47.34114" lon="-2.17347">
        <ele>-3.576858</ele>
        <time>2020-06-05T15:58:56.986Z</time>
      </trkpt>
      <trkpt lat="47.34124" lon="-2.17351">
        <ele>-3.499301</ele>
        <time>2020-06-05T15:58:58.985Z</time>
      </trkpt>
      <trkpt lat="47.34133" lon="-2.17358">
        <ele>-3.419555</ele>
        <time>2020-06-05T15:59:00.985Z</time>
      </trkpt>
      <trkpt lat="47.34144" lon="-2.17363">
        <ele>-3.3372</ele>
        <time>2020-06-05T15:59:02.985Z</time>
      </trkpt>
      <trkpt lat="47.34154" lon="-2.17367">
        <ele>-3.255306</ele>
        <time>2020-06-05T15:59:04.985Z</time>
      </trkpt>
      <trkpt lat="47.34165" lon="-2.17372">
        <ele>-3.170636</ele>
        <time>2020-06-05T15:59:06.985Z</time>
      </trkpt>
      <trkpt lat="47.34175" lon="-2.17378">
        <ele>-3.084762</ele>
        <time>2020-06-05T15:59:08.985Z</time>
      </trkpt>
      <trkpt lat="47.34185" lon="-2.17385">
        <ele>-3.000771</ele>
        <time>2020-06-05T15:59:10.985Z</time>
      </trkpt>
      <trkpt lat="47.34194" lon="-2.17392">
        <ele>-2.921702</ele>
        <time>2020-06-05T15:59:12.985Z</time>
      </trkpt>
      <trkpt lat="47.34203" lon="-2.17401">
        <ele>-2.842225</ele>
        <time>2020-06-05T15:59:14.985Z</time>
      </trkpt>
      <trkpt lat="47.34212" lon="-2.17408">
        <ele>-2.76082</ele>
        <time>2020-06-05T15:59:16.985Z</time>
      </trkpt>
      <trkpt lat="47.34221" lon="-2.17417">
        <ele>-2.682052</ele>
        <time>2020-06-05T15:59:18.985Z</time>
      </trkpt>
      <trkpt lat="47.34228" lon="-2.17426">
        <ele>-2.607749</ele>
        <time>2020-06-05T15:59:20.985Z</time>
      </trkpt>
      <trkpt lat="47.34236" lon="-2.17434">
        <ele>-2.533577</ele>
        <time>2020-06-05T15:59:22.985Z</time>
      </trkpt>
      <trkpt lat="47.34245" lon="-2.17443">
        <ele>-2.455728</ele>
        <time>2020-06-05T15:59:24.985Z</time>
      </trkpt>
      <trkpt lat="47.34253" lon="-2.17453">
        <ele>-2.376858</ele>
        <time>2020-06-05T15:59:26.985Z</time>
      </trkpt>
      <trkpt lat="47.34261" lon="-2.17462">
        <ele>-2.297862</ele>
        <time>2020-06-05T15:59:28.985Z</time>
      </trkpt>
      <trkpt lat="47.3427" lon="-2.1747">
        <ele>-2.219477</ele>
        <time>2020-06-05T15:59:30.985Z</time>
      </trkpt>
      <trkpt lat="47.34278" lon="-2.17478">
        <ele>-2.10961</ele>
        <time>2020-06-05T15:59:32.985Z</time>
      </trkpt>
      <trkpt lat="47.34287" lon="-2.17484">
        <ele>-1.973453</ele>
        <time>2020-06-05T15:59:34.985Z</time>
      </trkpt>
      <trkpt lat="47.34297" lon="-2.17492">
        <ele>-1.831266</ele>
        <time>2020-06-05T15:59:36.985Z</time>
      </trkpt>
      <trkpt lat="47.34307" lon="-2.17499">
        <ele>-1.684118</ele>
        <time>2020-06-05T15:59:38.985Z</time>
      </trkpt>
      <trkpt lat="47.34317" lon="-2.17506">
        <ele>-1.534604</ele>
        <time>2020-06-05T15:59:40.985Z</time>
      </trkpt>
      <trkpt lat="47.34328" lon="-2.17512">
        <ele>-1.380757</ele>
        <time>2020-06-05T15:59:42.984Z</time>
      </trkpt>
      <trkpt lat="47.3434" lon="-2.17516">
        <ele>-1.223596</ele>
        <time>2020-06-05T15:59:44.984Z</time>
      </trkpt>
      <trkpt lat="47.34352" lon="-2.17522">
        <ele>-1.063039</ele>
        <time>2020-06-05T15:59:46.986Z</time>
      </trkpt>
      <trkpt lat="47.34363" lon="-2.17527">
        <ele>-0.910097</ele>
        <time>2020-06-05T15:59:48.987Z</time>
      </trkpt>
      <trkpt lat="47.34374" lon="-2.17531">
        <ele>-0.762309</ele>
        <time>2020-06-05T15:59:50.988Z</time>
      </trkpt>
      <trkpt lat="47.34385" lon="-2.17534">
        <ele>-0.614428</ele>
        <time>2020-06-05T15:59:52.990Z</time>
      </trkpt>
      <trkpt lat="47.34396" lon="-2.17537">
        <ele>-0.468968</ele>
        <time>2020-06-05T15:59:54.991Z</time>
      </trkpt>
      <trkpt lat="47.34406" lon="-2.17541">
        <ele>-0.324459</ele>
        <time>2020-06-05T15:59:56.992Z</time>
      </trkpt>
      <trkpt lat="47.34417" lon="-2.17545">
        <ele>-0.177478</ele>
        <time>2020-06-05T15:59:58.993Z</time>
      </trkpt>
      <trkpt lat="47.34428" lon="-2.1755">
        <ele>-0.025738</ele>
        <time>2020-06-05T16:00:00.994Z</time>
      </trkpt>
      <trkpt lat="47.34439" lon="-2.17554">
        <ele>0.120123</ele>
        <time>2020-06-05T16:00:02.995Z</time>
      </trkpt>
      <trkpt lat="47.3445" lon="-2.17558">
        <ele>0.136666</ele>
        <time>2020-06-05T16:00:04.996Z</time>
      </trkpt>
      <trkpt lat="47.3446" lon="-2.17563">
        <ele>0.093298</ele>
        <time>2020-06-05T16:00:06.996Z</time>
      </trkpt>
      <trkpt lat="47.34471" lon="-2.17567">
        <ele>0.048469</ele>
        <time>2020-06-05T16:00:08.997Z</time>
      </trkpt>
      <trkpt lat="47.34481" lon="-2.17573">
        <ele>0.002863</ele>
        <time>2020-06-05T16:00:10.997Z</time>
      </trkpt>
      <trkpt lat="47.34492" lon="-2.1758">
        <ele>-0.043418</ele>
        <time>2020-06-05T16:00:12.997Z</time>
      </trkpt>
      <trkpt lat="47.34502" lon="-2.17586">
        <ele>-0.087478</ele>
        <time>2020-06-05T16:00:14.998Z</time>
      </trkpt>
      <trkpt lat="47.34512" lon="-2.17593">
        <ele>-0.13117</ele>
        <time>2020-06-05T16:00:16.998Z</time>
      </trkpt>
      <trkpt lat="47.34523" lon="-2.17599">
        <ele>-0.175968</ele>
        <time>2020-06-05T16:00:18.998Z</time>
      </trkpt>
      <trkpt lat="47.34532" lon="-2.17607">
        <ele>-0.220295</ele>
        <time>2020-06-05T16:00:20.998Z</time>
      </trkpt>
      <trkpt lat="47.34542" lon="-2.17615">
        <ele>-0.265936</ele>
        <time>2020-06-05T16:00:22.998Z</time>
      </trkpt>
      <trkpt lat="47.34552" lon="-2.17624">
        <ele>-0.312468</ele>
        <time>2020-06-05T16:00:24.999Z</time>
      </trkpt>
      <trkpt lat="47.34562" lon="-2.17633">
        <ele>-0.357688</ele>
        <time>2020-06-05T16:00:26.999Z</time>
      </trkpt>
      <trkpt lat="47.34572" lon="-2.17639">
        <ele>-0.403968</ele>
        <time>2020-06-05T16:00:28.999Z</time>
      </trkpt>
      <trkpt lat="47.34583" lon="-2.17645">
        <ele>-0.449756</ele>
        <time>2020-06-05T16:00:30.999Z</time>
      </trkpt>
      <trkpt lat="47.34592" lon="-2.17654">
        <ele>-0.493334</ele>
        <time>2020-06-05T16:00:32.999Z</time>
      </trkpt>
      <trkpt lat="47.34602" lon="-2.17661">
        <ele>-0.537338</ele>
        <time>2020-06-05T16:00:34.999Z</time>
      </trkpt>
      <trkpt lat="47.34611" lon="-2.1767">
        <ele>-0.577247</ele>
        <time>2020-06-05T16:00:36.999Z</time>
      </trkpt>
      <trkpt lat="47.34621" lon="-2.17679">
        <ele>-0.613623</ele>
        <time>2020-06-05T16:00:38.999Z</time>
      </trkpt>
      <trkpt lat="47.34631" lon="-2.17685">
        <ele>-0.650838</ele>
        <time>2020-06-05T16:00:40.999Z</time>
      </trkpt>
      <trkpt lat="47.34641" lon="-2.17694">
        <ele>-0.687487</ele>
        <time>2020-06-05T16:00:42.999Z</time>
      </trkpt>
      <trkpt lat="47.34649" lon="-2.17703">
        <ele>-0.723033</ele>
        <time>2020-06-05T16:00:44.999Z</time>
      </trkpt>
      <trkpt lat="47.34658" lon="-2.17712">
        <ele>-0.758644</ele>
        <time>2020-06-05T16:00:46.999Z</time>
      </trkpt>
      <trkpt lat="47.34667" lon="-2.17721">
        <ele>-0.792081</ele>
        <time>2020-06-05T16:00:48.999Z</time>
      </trkpt>
      <trkpt lat="47.34674" lon="-2.1773">
        <ele>-0.824793</ele>
        <time>2020-06-05T16:00:50.999Z</time>
      </trkpt>
      <trkpt lat="47.34682" lon="-2.17741">
        <ele>-0.85977</ele>
        <time>2020-06-05T16:00:52.999Z</time>
      </trkpt>
      <trkpt lat="47.3469" lon="-2.17751">
        <ele>-0.894566</ele>
        <time>2020-06-05T16:00:54.999Z</time>
      </trkpt>
      <trkpt lat="47.34698" lon="-2.17761">
        <ele>-0.928107</ele>
        <time>2020-06-05T16:00:56.999Z</time>
      </trkpt>
      <trkpt lat="47.34706" lon="-2.1777">
        <ele>-0.960391</ele>
        <time>2020-06-05T16:00:58.999Z</time>
      </trkpt>
      <trkpt lat="47.34713" lon="-2.17781">
        <ele>-0.99404</ele>
        <time>2020-06-05T16:01:00.999Z</time>
      </trkpt>
      <trkpt lat="47.3472" lon="-2.17793">
        <ele>-1.030551</ele>
        <time>2020-06-05T16:01:02.999Z</time>
      </trkpt>
      <trkpt lat="47.34727" lon="-2.17805">
        <ele>-1.065621</ele>
        <time>2020-06-05T16:01:04.999Z</time>
      </trkpt>
      <trkpt lat="47.34734" lon="-2.17816">
        <ele>-1.09927</ele>
        <time>2020-06-05T16:01:06.999Z</time>
      </trkpt>
      <trkpt lat="47.34742" lon="-2.17826">
        <ele>-1.132627</ele>
        <time>2020-06-05T16:01:08.999Z</time>
      </trkpt>
      <trkpt lat="47.3475" lon="-2.17834">
        <ele>-1.184738</ele>
        <time>2020-06-05T16:01:10.999Z</time>
      </trkpt>
      <trkpt lat="47.34758" lon="-2.17842">
        <ele>-1.24576</ele>
        <time>2020-06-05T16:01:12.999Z</time>
      </trkpt>
      <trkpt lat="47.34764" lon="-2.17852">
        <ele>-1.304513</ele>
        <time>2020-06-05T16:01:14.999Z</time>
      </trkpt>
      <trkpt lat="47.3477" lon="-2.17862">
        <ele>-1.366703</ele>
        <time>2020-06-05T16:01:16.999Z</time>
      </trkpt>
      <trkpt lat="47.34779" lon="-2.17871">
        <ele>-1.432149</ele>
        <time>2020-06-05T16:01:18.999Z</time>
      </trkpt>
      <trkpt lat="47.34785" lon="-2.17882">
        <ele>-1.496177</ele>
        <time>2020-06-05T16:01:20.999Z</time>
      </trkpt>
      <trkpt lat="47.34793" lon="-2.1789">
        <ele>-1.559792</ele>
        <time>2020-06-05T16:01:22.999Z</time>
      </trkpt>
      <trkpt lat="47.34802" lon="-2.17898">
        <ele>-1.623838</ele>
        <time>2020-06-05T16:01:24.999Z</time>
      </trkpt>
      <trkpt lat="47.34809" lon="-2.17908">
        <ele>-1.688547</ele>
        <time>2020-06-05T16:01:26.999Z</time>
      </trkpt>
      <trkpt lat="47.34816" lon="-2.17919">
        <ele>-1.753421</ele>
        <time>2020-06-05T16:01:28.999Z</time>
      </trkpt>
      <trkpt lat="47.34824" lon="-2.17928">
        <ele>-1.818603</ele>
        <time>2020-06-05T16:01:30.999Z</time>
      </trkpt>
      <trkpt lat="47.34832" lon="-2.17936">
        <ele>-1.882732</ele>
        <time>2020-06-05T16:01:32.999Z</time>
      </trkpt>
      <trkpt lat="47.3484" lon="-2.17945">
        <ele>-1.945048</ele>
        <time>2020-06-05T16:01:34.998Z</time>
      </trkpt>
      <trkpt lat="47.34847" lon="-2.17955">
        <ele>-2.009798</ele>
        <time>2020-06-05T16:01:36.998Z</time>
      </trkpt>
      <trkpt lat="47.34855" lon="-2.17965">
        <ele>-2.073776</ele>
        <time>2020-06-05T16:01:38.998Z</time>
      </trkpt>
      <trkpt lat="47.34864" lon="-2.17973">
        <ele>-2.142264</ele>
        <time>2020-06-05T16:01:40.998Z</time>
      </trkpt>
      <trkpt lat="47.34871" lon="-2.17984">
        <ele>-2.209903</ele>
        <time>2020-06-05T16:01:42.998Z</time>
      </trkpt>
      <trkpt lat="47.34878" lon="-2.17996">
        <ele>-2.27741</ele>
        <time>2020-06-05T16:01:44.998Z</time>
      </trkpt>
      <trkpt lat="47.34887" lon="-2.18006">
        <ele>-2.2724</ele>
        <time>2020-06-05T16:01:46.998Z</time>
      </trkpt>
      <trkpt lat="47.34896" lon="-2.18015">
        <ele>-2.212656</ele>
        <time>2020-06-05T16:01:48.998Z</time>
      </trkpt>
      <trkpt lat="47.34904" lon="-2.18026">
        <ele>-2.155952</ele>
        <time>2020-06-05T16:01:50.998Z</time>
      </trkpt>
      <trkpt lat="47.34912" lon="-2.18037">
        <ele>-2.097734</ele>
        <time>2020-06-05T16:01:52.998Z</time>
      </trkpt>
      <trkpt lat="47.3492" lon="-2.18048">
        <ele>-2.038948</ele>
        <time>2020-06-05T16:01:54.998Z</time>
      </trkpt>
      <trkpt lat="47.34929" lon="-2.18058">
        <ele>-1.977431</ele>
        <time>2020-06-05T16:01:56.998Z</time>
      </trkpt>
      <trkpt lat="47.34938" lon="-2.18068">
        <ele>-1.919179</ele>
        <time>2020-06-05T16:01:58.998Z</time>
      </trkpt>
      <trkpt lat="47.34947" lon="-2.18078">
        <ele>-1.859836</ele>
        <time>2020-06-05T16:02:00.998Z</time>
      </trkpt>
      <trkpt lat="47.34957" lon="-2.18087">
        <ele>-1.797718</ele>
        <time>2020-06-05T16:02:02.998Z</time>
      </trkpt>
      <trkpt lat="47.34965" lon="-2.18099">
        <ele>-1.73593</ele>
        <time>2020-06-05T16:02:04.998Z</time>
      </trkpt>
      <trkpt lat="47.34975" lon="-2.18109">
        <ele>-1.672764</ele>
        <time>2020-06-05T16:02:06.998Z</time>
      </trkpt>
      <trkpt lat="47.34986" lon="-2.18118">
        <ele>-1.605248</ele>
        <time>2020-06-05T16:02:08.998Z</time>
      </trkpt>
      <trkpt lat="47.34997" lon="-2.18127">
        <ele>-1.537786</ele>
        <time>2020-06-05T16:02:10.998Z</time>
      </trkpt>
      <trkpt lat="47.35009" lon="-2.18135">
        <ele>-1.472106</ele>
        <time>2020-06-05T16:02:12.998Z</time>
      </trkpt>
      <trkpt lat="47.35018" lon="-2.18142">
        <ele>-1.414666</ele>
        <time>2020-06-05T16:02:14.998Z</time>
      </trkpt>
      <trkpt lat="47.35027" lon="-2.18149">
        <ele>-1.363258</ele>
        <time>2020-06-05T16:02:17.998Z</time>
      </trkpt>
      <trkpt lat="47.35037" lon="-2.18152">
        <ele>-1.295397</ele>
        <time>2020-06-05T16:02:30.997Z</time>
      </trkpt>
      <trkpt lat="47.35047" lon="-2.18156">
        <ele>-1.231274</ele>
        <time>2020-06-05T16:02:33.997Z</time>
      </trkpt>
      <trkpt lat="47.35058" lon="-2.18161">
        <ele>-1.153499</ele>
        <time>2020-06-05T16:02:36.997Z</time>
      </trkpt>
      <trkpt lat="47.35072" lon="-2.18166">
        <ele>-1.064631</ele>
        <time>2020-06-05T16:02:39.997Z</time>
      </trkpt>
      <trkpt lat="47.35081" lon="-2.18169">
        <ele>-1.000076</ele>
        <time>2020-06-05T16:02:41.997Z</time>
      </trkpt>
      <trkpt lat="47.35091" lon="-2.18173">
        <ele>-0.937083</ele>
        <time>2020-06-05T16:02:43.997Z</time>
      </trkpt>
      <trkpt lat="47.35102" lon="-2.18176">
        <ele>-0.865925</ele>
        <time>2020-06-05T16:02:45.997Z</time>
      </trkpt>
      <trkpt lat="47.35112" lon="-2.18178">
        <ele>-0.796088</ele>
        <time>2020-06-05T16:02:47.997Z</time>
      </trkpt>
      <trkpt lat="47.35123" lon="-2.1818">
        <ele>-0.726252</ele>
        <time>2020-06-05T16:02:49.997Z</time>
      </trkpt>
      <trkpt lat="47.35135" lon="-2.18181">
        <ele>-0.646337</ele>
        <time>2020-06-05T16:02:52.997Z</time>
      </trkpt>
      <trkpt lat="47.35145" lon="-2.18181">
        <ele>-0.582234</ele>
        <time>2020-06-05T16:02:54.997Z</time>
      </trkpt>
      <trkpt lat="47.35155" lon="-2.18181">
        <ele>-0.517481</ele>
        <time>2020-06-05T16:02:56.997Z</time>
      </trkpt>
      <trkpt lat="47.35166" lon="-2.18181">
        <ele>-0.449493</ele>
        <time>2020-06-05T16:02:58.997Z</time>
      </trkpt>
      <trkpt lat="47.35176" lon="-2.1818">
        <ele>-0.383271</ele>
        <time>2020-06-05T16:03:00.997Z</time>
      </trkpt>
      <trkpt lat="47.35185" lon="-2.18178">
        <ele>-0.324403</ele>
        <time>2020-06-05T16:03:02.997Z</time>
      </trkpt>
      <trkpt lat="47.35194" lon="-2.18177">
        <ele>-0.265113</ele>
        <time>2020-06-05T16:03:04.997Z</time>
      </trkpt>
      <trkpt lat="47.35204" lon="-2.18179">
        <ele>-0.200078</ele>
        <time>2020-06-05T16:03:22.996Z</time>
      </trkpt>
      <trkpt lat="47.35214" lon="-2.18186">
        <ele>-0.164692</ele>
        <time>2020-06-05T16:03:25.996Z</time>
      </trkpt>
      <trkpt lat="47.35223" lon="-2.18193">
        <ele>-0.139873</ele>
        <time>2020-06-05T16:03:27.996Z</time>
      </trkpt>
      <trkpt lat="47.35233" lon="-2.18202">
        <ele>-0.11217</ele>
        <time>2020-06-05T16:03:29.996Z</time>
      </trkpt>
      <trkpt lat="47.35244" lon="-2.18207">
        <ele>-0.082442</ele>
        <time>2020-06-05T16:03:31.996Z</time>
      </trkpt>
      <trkpt lat="47.35256" lon="-2.18213">
        <ele>-0.052226</ele>
        <time>2020-06-05T16:03:33.996Z</time>
      </trkpt>
      <trkpt lat="47.35265" lon="-2.18218">
        <ele>-0.028974</ele>
        <time>2020-06-05T16:03:35.996Z</time>
      </trkpt>
      <trkpt lat="47.35275" lon="-2.1822">
        <ele>-0.003287</ele>
        <time>2020-06-05T16:03:37.996Z</time>
      </trkpt>
      <trkpt lat="47.35286" lon="-2.18222">
        <ele>0.024057</ele>
        <time>2020-06-05T16:03:39.996Z</time>
      </trkpt>
      <trkpt lat="47.35297" lon="-2.18224">
        <ele>0.050305</ele>
        <time>2020-06-05T16:03:41.996Z</time>
      </trkpt>
      <trkpt lat="47.35306" lon="-2.18226">
        <ele>0.074675</ele>
        <time>2020-06-05T16:03:43.996Z</time>
      </trkpt>
      <trkpt lat="47.35317" lon="-2.18228">
        <ele>0.102361</ele>
        <time>2020-06-05T16:03:45.996Z</time>
      </trkpt>
      <trkpt lat="47.35329" lon="-2.1823">
        <ele>0.13115</ele>
        <time>2020-06-05T16:03:47.996Z</time>
      </trkpt>
      <trkpt lat="47.35342" lon="-2.18233">
        <ele>0.163383</ele>
        <time>2020-06-05T16:03:49.996Z</time>
      </trkpt>
      <trkpt lat="47.35356" lon="-2.18234">
        <ele>0.197986</ele>
        <time>2020-06-05T16:03:51.996Z</time>
      </trkpt>
      <trkpt lat="47.35368" lon="-2.18237">
        <ele>0.228549</ele>
        <time>2020-06-05T16:03:53.996Z</time>
      </trkpt>
      <trkpt lat="47.3538" lon="-2.18237">
        <ele>0.25939</ele>
        <time>2020-06-05T16:03:55.996Z</time>
      </trkpt>
      <trkpt lat="47.35391" lon="-2.18238">
        <ele>0.332554</ele>
        <time>2020-06-05T16:03:57.996Z</time>
      </trkpt>
      <trkpt lat="47.35403" lon="-2.18242">
        <ele>0.408664</ele>
        <time>2020-06-05T16:03:59.996Z</time>
      </trkpt>
      <trkpt lat="47.35414" lon="-2.18248">
        <ele>0.484394</ele>
        <time>2020-06-05T16:04:01.996Z</time>
      </trkpt>
      <trkpt lat="47.35426" lon="-2.18252">
        <ele>0.567466</ele>
        <time>2020-06-05T16:04:03.996Z</time>
      </trkpt>
      <trkpt lat="47.35437" lon="-2.18258">
        <ele>0.647048</ele>
        <time>2020-06-05T16:04:05.996Z</time>
      </trkpt>
      <trkpt lat="47.35448" lon="-2.18267">
        <ele>0.727006</ele>
        <time>2020-06-05T16:04:07.996Z</time>
      </trkpt>
      <trkpt lat="47.35457" lon="-2.18277">
        <ele>0.79941</ele>
        <time>2020-06-05T16:04:09.996Z</time>
      </trkpt>
      <trkpt lat="47.35466" lon="-2.18286">
        <ele>0.86815</ele>
        <time>2020-06-05T16:04:11.995Z</time>
      </trkpt>
      <trkpt lat="47.35476" lon="-2.18295">
        <ele>0.945693</ele>
        <time>2020-06-05T16:04:13.995Z</time>
      </trkpt>
      <trkpt lat="47.35485" lon="-2.18304">
        <ele>1.015298</ele>
        <time>2020-06-05T16:04:15.995Z</time>
      </trkpt>
      <trkpt lat="47.35495" lon="-2.18313">
        <ele>1.091212</ele>
        <time>2020-06-05T16:04:17.995Z</time>
      </trkpt>
      <trkpt lat="47.35503" lon="-2.18322">
        <ele>1.159679</ele>
        <time>2020-06-05T16:04:19.995Z</time>
      </trkpt>
      <trkpt lat="47.35512" lon="-2.18331">
        <ele>1.229348</ele>
        <time>2020-06-05T16:04:21.995Z</time>
      </trkpt>
      <trkpt lat="47.35521" lon="-2.18341">
        <ele>1.305688</ele>
        <time>2020-06-05T16:04:23.995Z</time>
      </trkpt>
      <trkpt lat="47.3553" lon="-2.18349">
        <ele>1.370025</ele>
        <time>2020-06-05T16:04:25.995Z</time>
      </trkpt>
      <trkpt lat="47.35539" lon="-2.18357">
        <ele>1.418908</ele>
        <time>2020-06-05T16:04:27.995Z</time>
      </trkpt>
      <trkpt lat="47.35547" lon="-2.18367">
        <ele>1.358956</ele>
        <time>2020-06-05T16:04:29.995Z</time>
      </trkpt>
      <trkpt lat="47.35556" lon="-2.18377">
        <ele>1.30252</ele>
        <time>2020-06-05T16:04:31.995Z</time>
      </trkpt>
      <trkpt lat="47.35565" lon="-2.18386">
        <ele>1.242284</ele>
        <time>2020-06-05T16:04:33.995Z</time>
      </trkpt>
      <trkpt lat="47.35573" lon="-2.18394">
        <ele>1.188259</ele>
        <time>2020-06-05T16:04:35.995Z</time>
      </trkpt>
      <trkpt lat="47.35582" lon="-2.18401">
        <ele>1.133459</ele>
        <time>2020-06-05T16:04:37.995Z</time>
      </trkpt>
      <trkpt lat="47.35592" lon="-2.1841">
        <ele>1.066134</ele>
        <time>2020-06-05T16:04:39.995Z</time>
      </trkpt>
      <trkpt lat="47.35602" lon="-2.18419">
        <ele>1.00334</ele>
        <time>2020-06-05T16:04:41.995Z</time>
      </trkpt>
      <trkpt lat="47.35612" lon="-2.18427">
        <ele>0.942518</ele>
        <time>2020-06-05T16:04:43.995Z</time>
      </trkpt>
      <trkpt lat="47.35625" lon="-2.18434">
        <ele>0.867494</ele>
        <time>2020-06-05T16:04:45.995Z</time>
      </trkpt>
      <trkpt lat="47.35637" lon="-2.1844">
        <ele>0.798695</ele>
        <time>2020-06-05T16:04:47.995Z</time>
      </trkpt>
      <trkpt lat="47.35648" lon="-2.18443">
        <ele>0.735294</ele>
        <time>2020-06-05T16:04:49.995Z</time>
      </trkpt>
      <trkpt lat="47.3566" lon="-2.18446">
        <ele>0.669694</ele>
        <time>2020-06-05T16:04:51.995Z</time>
      </trkpt>
      <trkpt lat="47.35674" lon="-2.18448">
        <ele>0.593272</ele>
        <time>2020-06-05T16:04:53.995Z</time>
      </trkpt>
      <trkpt lat="47.35688" lon="-2.18452">
        <ele>0.517125</ele>
        <time>2020-06-05T16:04:55.995Z</time>
      </trkpt>
      <trkpt lat="47.35701" lon="-2.18457">
        <ele>0.44189</ele>
        <time>2020-06-05T16:04:57.995Z</time>
      </trkpt>
      <trkpt lat="47.35713" lon="-2.18461">
        <ele>0.296018</ele>
        <time>2020-06-05T16:04:59.995Z</time>
      </trkpt>
      <trkpt lat="47.35724" lon="-2.18467">
        <ele>0.151505</ele>
        <time>2020-06-05T16:05:01.995Z</time>
      </trkpt>
      <trkpt lat="47.35738" lon="-2.18471">
        <ele>-0.007319</ele>
        <time>2020-06-05T16:05:03.994Z</time>
      </trkpt>
      <trkpt lat="47.35751" lon="-2.18475">
        <ele>-0.16217</ele>
        <time>2020-06-05T16:05:05.994Z</time>
      </trkpt>
      <trkpt lat="47.35762" lon="-2.1848">
        <ele>-0.297879</ele>
        <time>2020-06-05T16:05:07.994Z</time>
      </trkpt>
      <trkpt lat="47.35772" lon="-2.18486">
        <ele>-0.433229</ele>
        <time>2020-06-05T16:05:09.994Z</time>
      </trkpt>
      <trkpt lat="47.35781" lon="-2.18491">
        <ele>-0.548144</ele>
        <time>2020-06-05T16:05:11.994Z</time>
      </trkpt>
      <trkpt lat="47.35792" lon="-2.18497">
        <ele>-0.680968</ele>
        <time>2020-06-05T16:05:13.994Z</time>
      </trkpt>
      <trkpt lat="47.35801" lon="-2.18501">
        <ele>-0.797576</ele>
        <time>2020-06-05T16:05:15.994Z</time>
      </trkpt>
      <trkpt lat="47.35814" lon="-2.18508">
        <ele>-0.950517</ele>
        <time>2020-06-05T16:05:18.994Z</time>
      </trkpt>
      <trkpt lat="47.35823" lon="-2.18511">
        <ele>-1.059286</ele>
        <time>2020-06-05T16:05:20.994Z</time>
      </trkpt>
      <trkpt lat="47.35833" lon="-2.18517">
        <ele>-1.18715</ele>
        <time>2020-06-05T16:05:22.994Z</time>
      </trkpt>
      <trkpt lat="47.35843" lon="-2.18523">
        <ele>-1.320022</ele>
        <time>2020-06-05T16:05:24.994Z</time>
      </trkpt>
      <trkpt lat="47.35852" lon="-2.18529">
        <ele>-1.430013</ele>
        <time>2020-06-05T16:05:26.994Z</time>
      </trkpt>
      <trkpt lat="47.35862" lon="-2.18532">
        <ele>-1.547607</ele>
        <time>2020-06-05T16:05:28.994Z</time>
      </trkpt>
      <trkpt lat="47.35873" lon="-2.18539">
        <ele>-1.681938</ele>
        <time>2020-06-05T16:05:30.994Z</time>
      </trkpt>
      <trkpt lat="47.35885" lon="-2.18546">
        <ele>-1.777608</ele>
        <time>2020-06-05T16:05:32.994Z</time>
      </trkpt>
      <trkpt lat="47.35897" lon="-2.18553">
        <ele>-1.873334</ele>
        <time>2020-06-05T16:05:34.994Z</time>
      </trkpt>
      <trkpt lat="47.35909" lon="-2.18559">
        <ele>-1.966939</ele>
        <time>2020-06-05T16:05:36.994Z</time>
      </trkpt>
      <trkpt lat="47.35921" lon="-2.18566">
        <ele>-2.062253</ele>
        <time>2020-06-05T16:05:38.994Z</time>
      </trkpt>
      <trkpt lat="47.35933" lon="-2.18572">
        <ele>-2.152212</ele>
        <time>2020-06-05T16:05:40.994Z</time>
      </trkpt>
      <trkpt lat="47.35943" lon="-2.18577">
        <ele>-2.231874</ele>
        <time>2020-06-05T16:05:42.994Z</time>
      </trkpt>
      <trkpt lat="47.35953" lon="-2.18577">
        <ele>-2.307841</ele>
        <time>2020-06-05T16:05:44.994Z</time>
      </trkpt>
      <trkpt lat="47.35963" lon="-2.18578">
        <ele>-2.378548</ele>
        <time>2020-06-05T16:05:46.994Z</time>
      </trkpt>
      <trkpt lat="47.35974" lon="-2.18582">
        <ele>-2.460319</ele>
        <time>2020-06-05T16:05:48.994Z</time>
      </trkpt>
      <trkpt lat="47.35985" lon="-2.18585">
        <ele>-2.544668</ele>
        <time>2020-06-05T16:05:50.994Z</time>
      </trkpt>
      <trkpt lat="47.35995" lon="-2.18587">
        <ele>-2.617049</ele>
        <time>2020-06-05T16:05:52.994Z</time>
      </trkpt>
      <trkpt lat="47.36004" lon="-2.18587">
        <ele>-2.687881</ele>
        <time>2020-06-05T16:05:54.994Z</time>
      </trkpt>
      <trkpt lat="47.36015" lon="-2.18586">
        <ele>-2.765338</ele>
        <time>2020-06-05T16:05:56.993Z</time>
      </trkpt>
      <trkpt lat="47.36025" lon="-2.18584">
        <ele>-2.841295</ele>
        <time>2020-06-05T16:05:58.993Z</time>
      </trkpt>
      <trkpt lat="47.36034" lon="-2.18582">
        <ele>-2.909679</ele>
        <time>2020-06-05T16:06:00.993Z</time>
      </trkpt>
      <trkpt lat="47.36044" lon="-2.1858">
        <ele>-2.983206</ele>
        <time>2020-06-05T16:06:02.993Z</time>
      </trkpt>
      <trkpt lat="47.36054" lon="-2.18576">
        <ele>-3.053083</ele>
        <time>2020-06-05T16:06:04.993Z</time>
      </trkpt>
      <trkpt lat="47.36063" lon="-2.18573">
        <ele>-3.120092</ele>
        <time>2020-06-05T16:06:06.993Z</time>
      </trkpt>
      <trkpt lat="47.36073" lon="-2.18568">
        <ele>-3.193691</ele>
        <time>2020-06-05T16:06:08.993Z</time>
      </trkpt>
      <trkpt lat="47.36084" lon="-2.18563">
        <ele>-3.274021</ele>
        <time>2020-06-05T16:06:10.993Z</time>
      </trkpt>
      <trkpt lat="47.36097" lon="-2.18557">
        <ele>-3.363697</ele>
        <time>2020-06-05T16:06:12.993Z</time>
      </trkpt>
      <trkpt lat="47.36108" lon="-2.18551">
        <ele>-3.446733</ele>
        <time>2020-06-05T16:06:14.993Z</time>
      </trkpt>
      <trkpt lat="47.36119" lon="-2.18545">
        <ele>-3.530096</ele>
        <time>2020-06-05T16:06:16.993Z</time>
      </trkpt>
      <trkpt lat="47.36131" lon="-2.18539">
        <ele>-3.616643</ele>
        <time>2020-06-05T16:06:18.993Z</time>
      </trkpt>
      <trkpt lat="47.36144" lon="-2.18533">
        <ele>-3.707835</ele>
        <time>2020-06-05T16:06:20.993Z</time>
      </trkpt>
      <trkpt lat="47.36156" lon="-2.18527">
        <ele>-3.796408</ele>
        <time>2020-06-05T16:06:22.993Z</time>
      </trkpt>
      <trkpt lat="47.36167" lon="-2.18522">
        <ele>-3.872258</ele>
        <time>2020-06-05T16:06:24.993Z</time>
      </trkpt>
      <trkpt lat="47.36177" lon="-2.18518">
        <ele>-3.948765</ele>
        <time>2020-06-05T16:06:26.993Z</time>
      </trkpt>
      <trkpt lat="47.36189" lon="-2.18514">
        <ele>-4.027044</ele>
        <time>2020-06-05T16:06:28.993Z</time>
      </trkpt>
      <trkpt lat="47.36199" lon="-2.18513">
        <ele>-4.096802</ele>
        <time>2020-06-05T16:06:30.993Z</time>
      </trkpt>
      <trkpt lat="47.3621" lon="-2.18513">
        <ele>-4.178081</ele>
        <time>2020-06-05T16:06:32.993Z</time>
      </trkpt>
      <trkpt lat="47.36222" lon="-2.18515">
        <ele>-4.214296</ele>
        <time>2020-06-05T16:06:34.993Z</time>
      </trkpt>
      <trkpt lat="47.36233" lon="-2.18517">
        <ele>-4.161781</ele>
        <time>2020-06-05T16:06:36.993Z</time>
      </trkpt>
      <trkpt lat="47.36244" lon="-2.1852">
        <ele>-4.107965</ele>
        <time>2020-06-05T16:06:38.993Z</time>
      </trkpt>
      <trkpt lat="47.36257" lon="-2.18524">
        <ele>-4.042014</ele>
        <time>2020-06-05T16:06:40.993Z</time>
      </trkpt>
      <trkpt lat="47.36268" lon="-2.18528">
        <ele>-3.989561</ele>
        <time>2020-06-05T16:06:42.993Z</time>
      </trkpt>
      <trkpt lat="47.36279" lon="-2.18532">
        <ele>-3.936562</ele>
        <time>2020-06-05T16:06:44.993Z</time>
      </trkpt>
      <trkpt lat="47.36291" lon="-2.18537">
        <ele>-3.873568</ele>
        <time>2020-06-05T16:06:46.992Z</time>
      </trkpt>
      <trkpt lat="47.36304" lon="-2.18547">
        <ele>-3.80674</ele>
        <time>2020-06-05T16:06:48.992Z</time>
      </trkpt>
      <trkpt lat="47.36316" lon="-2.18557">
        <ele>-3.740257</ele>
        <time>2020-06-05T16:06:50.992Z</time>
      </trkpt>
      <trkpt lat="47.36328" lon="-2.18567">
        <ele>-3.673514</ele>
        <time>2020-06-05T16:06:52.994Z</time>
      </trkpt>
      <trkpt lat="47.36339" lon="-2.18576">
        <ele>-3.612737</ele>
        <time>2020-06-05T16:06:54.994Z</time>
      </trkpt>
      <trkpt lat="47.36348" lon="-2.18589">
        <ele>-3.552301</ele>
        <time>2020-06-05T16:06:56.995Z</time>
      </trkpt>
      <trkpt lat="47.36357" lon="-2.18601">
        <ele>-3.493754</ele>
        <time>2020-06-05T16:06:58.996Z</time>
      </trkpt>
      <trkpt lat="47.36367" lon="-2.18614">
        <ele>-3.428421</ele>
        <time>2020-06-05T16:07:00.996Z</time>
      </trkpt>
      <trkpt lat="47.36376" lon="-2.18624">
        <ele>-3.375544</ele>
        <time>2020-06-05T16:07:02.997Z</time>
      </trkpt>
      <trkpt lat="47.36387" lon="-2.18629">
        <ele>-3.462867</ele>
        <time>2020-06-05T16:07:04.997Z</time>
      </trkpt>
      <trkpt lat="47.36397" lon="-2.18642">
        <ele>-3.585415</ele>
        <time>2020-06-05T16:07:07.998Z</time>
      </trkpt>
      <trkpt lat="47.36402" lon="-2.18653">
        <ele>-3.669811</ele>
        <time>2020-06-05T16:07:09.998Z</time>
      </trkpt>
      <trkpt lat="47.36409" lon="-2.18663">
        <ele>-3.760963</ele>
        <time>2020-06-05T16:07:11.998Z</time>
      </trkpt>
      <trkpt lat="47.36415" lon="-2.18673">
        <ele>-3.84658</ele>
        <time>2020-06-05T16:07:13.998Z</time>
      </trkpt>
      <trkpt lat="47.36422" lon="-2.18684">
        <ele>-3.940131</ele>
        <time>2020-06-05T16:07:15.998Z</time>
      </trkpt>
      <trkpt lat="47.36429" lon="-2.18694">
        <ele>-4.026499</ele>
        <time>2020-06-05T16:07:17.999Z</time>
      </trkpt>
      <trkpt lat="47.36437" lon="-2.18702">
        <ele>-4.120696</ele>
        <time>2020-06-05T16:07:19.999Z</time>
      </trkpt>
      <trkpt lat="47.36448" lon="-2.18715">
        <ele>-4.249825</ele>
        <time>2020-06-05T16:07:22.999Z</time>
      </trkpt>
      <trkpt lat="47.36456" lon="-2.18724">
        <ele>-4.349271</ele>
        <time>2020-06-05T16:07:24.999Z</time>
      </trkpt>
      <trkpt lat="47.36464" lon="-2.18734">
        <ele>-4.44498</ele>
        <time>2020-06-05T16:07:26.999Z</time>
      </trkpt>
      <trkpt lat="47.36472" lon="-2.18744">
        <ele>-4.540834</ele>
        <time>2020-06-05T16:07:28.999Z</time>
      </trkpt>
      <trkpt lat="47.36481" lon="-2.18754">
        <ele>-4.643258</ele>
        <time>2020-06-05T16:07:30.999Z</time>
      </trkpt>
      <trkpt lat="47.36489" lon="-2.18764">
        <ele>-4.739637</ele>
        <time>2020-06-05T16:07:32.999Z</time>
      </trkpt>
      <trkpt lat="47.36498" lon="-2.18774">
        <ele>-4.843897</ele>
        <time>2020-06-05T16:07:34.999Z</time>
      </trkpt>
      <trkpt lat="47.36507" lon="-2.18784">
        <ele>-4.950455</ele>
        <time>2020-06-05T16:07:36.999Z</time>
      </trkpt>
      <trkpt lat="47.36515" lon="-2.18793">
        <ele>-5.033418</ele>
        <time>2020-06-05T16:07:38.999Z</time>
      </trkpt>
      <trkpt lat="47.36524" lon="-2.18802">
        <ele>-4.93267</ele>
        <time>2020-06-05T16:07:40.999Z</time>
      </trkpt>
      <trkpt lat="47.36533" lon="-2.18809">
        <ele>-4.840431</ele>
        <time>2020-06-05T16:07:42.999Z</time>
      </trkpt>
      <trkpt lat="47.36541" lon="-2.18817">
        <ele>-4.75048</ele>
        <time>2020-06-05T16:07:44.999Z</time>
      </trkpt>
      <trkpt lat="47.36548" lon="-2.18826">
        <ele>-4.664984</ele>
        <time>2020-06-05T16:07:46.999Z</time>
      </trkpt>
      <trkpt lat="47.36561" lon="-2.18836">
        <ele>-4.527999</ele>
        <time>2020-06-05T16:07:49.999Z</time>
      </trkpt>
      <trkpt lat="47.36572" lon="-2.18842">
        <ele>-4.420524</ele>
        <time>2020-06-05T16:07:51.999Z</time>
      </trkpt>
      <trkpt lat="47.36583" lon="-2.18848">
        <ele>-4.312228</ele>
        <time>2020-06-05T16:07:53.999Z</time>
      </trkpt>
      <trkpt lat="47.36593" lon="-2.18854">
        <ele>-4.208953</ele>
        <time>2020-06-05T16:07:55.999Z</time>
      </trkpt>
      <trkpt lat="47.36603" lon="-2.18859">
        <ele>-4.11441</ele>
        <time>2020-06-05T16:07:57.999Z</time>
      </trkpt>
      <trkpt lat="47.36611" lon="-2.18864">
        <ele>-4.02576</ele>
        <time>2020-06-05T16:07:59.999Z</time>
      </trkpt>
      <trkpt lat="47.36621" lon="-2.18869">
        <ele>-3.9358</ele>
        <time>2020-06-05T16:08:01.999Z</time>
      </trkpt>
      <trkpt lat="47.36629" lon="-2.18873">
        <ele>-3.85039</ele>
        <time>2020-06-05T16:08:03.999Z</time>
      </trkpt>
      <trkpt lat="47.36638" lon="-2.18878">
        <ele>-3.765892</ele>
        <time>2020-06-05T16:08:05.999Z</time>
      </trkpt>
      <trkpt lat="47.36647" lon="-2.18882">
        <ele>-3.67303</ele>
        <time>2020-06-05T16:08:07.999Z</time>
      </trkpt>
      <trkpt lat="47.3666" lon="-2.18889">
        <ele>-3.547265</ele>
        <time>2020-06-05T16:08:10.999Z</time>
      </trkpt>
      <trkpt lat="47.36669" lon="-2.18894">
        <ele>-3.456587</ele>
        <time>2020-06-05T16:08:12.999Z</time>
      </trkpt>
      <trkpt lat="47.3668" lon="-2.189">
        <ele>-3.348967</ele>
        <time>2020-06-05T16:08:14.999Z</time>
      </trkpt>
      <trkpt lat="47.36689" lon="-2.18905">
        <ele>-3.235988</ele>
        <time>2020-06-05T16:08:16.999Z</time>
      </trkpt>
      <trkpt lat="47.36698" lon="-2.1891">
        <ele>-3.118951</ele>
        <time>2020-06-05T16:08:18.999Z</time>
      </trkpt>
      <trkpt lat="47.36709" lon="-2.18916">
        <ele>-2.986202</ele>
        <time>2020-06-05T16:08:20.999Z</time>
      </trkpt>
      <trkpt lat="47.36721" lon="-2.18921">
        <ele>-2.848465</ele>
        <time>2020-06-05T16:08:22.999Z</time>
      </trkpt>
      <trkpt lat="47.3673" lon="-2.18927">
        <ele>-2.724535</ele>
        <time>2020-06-05T16:08:24.999Z</time>
      </trkpt>
      <trkpt lat="47.36741" lon="-2.18932">
        <ele>-2.60152</ele>
        <time>2020-06-05T16:08:26.999Z</time>
      </trkpt>
      <trkpt lat="47.36751" lon="-2.18938">
        <ele>-2.476643</ele>
        <time>2020-06-05T16:08:28.999Z</time>
      </trkpt>
      <trkpt lat="47.3676" lon="-2.18943">
        <ele>-2.359329</ele>
        <time>2020-06-05T16:08:30.998Z</time>
      </trkpt>
      <trkpt lat="47.36771" lon="-2.18949">
        <ele>-2.222547</ele>
        <time>2020-06-05T16:08:32.998Z</time>
      </trkpt>
      <trkpt lat="47.36781" lon="-2.18957">
        <ele>-2.091729</ele>
        <time>2020-06-05T16:08:34.998Z</time>
      </trkpt>
      <trkpt lat="47.36791" lon="-2.18966">
        <ele>-1.963308</ele>
        <time>2020-06-05T16:08:36.998Z</time>
      </trkpt>
      <trkpt lat="47.368" lon="-2.18973">
        <ele>-1.845423</ele>
        <time>2020-06-05T16:08:38.998Z</time>
      </trkpt>
      <trkpt lat="47.36809" lon="-2.18983">
        <ele>-1.717468</ele>
        <time>2020-06-05T16:08:40.998Z</time>
      </trkpt>
      <trkpt lat="47.36818" lon="-2.18992">
        <ele>-1.589748</ele>
        <time>2020-06-05T16:08:42.998Z</time>
      </trkpt>
      <trkpt lat="47.36828" lon="-2.19002">
        <ele>-1.451598</ele>
        <time>2020-06-05T16:08:44.998Z</time>
      </trkpt>
      <trkpt lat="47.36839" lon="-2.19014">
        <ele>-1.294444</ele>
        <time>2020-06-05T16:08:46.998Z</time>
      </trkpt>
      <trkpt lat="47.3685" lon="-2.19027">
        <ele>-1.342639</ele>
        <time>2020-06-05T16:08:48.998Z</time>
      </trkpt>
      <trkpt lat="47.36863" lon="-2.1904">
        <ele>-1.397218</ele>
        <time>2020-06-05T16:08:50.998Z</time>
      </trkpt>
      <trkpt lat="47.36875" lon="-2.19053">
        <ele>-1.446381</ele>
        <time>2020-06-05T16:08:52.998Z</time>
      </trkpt>
      <trkpt lat="47.36886" lon="-2.19066">
        <ele>-1.495566</ele>
        <time>2020-06-05T16:08:54.998Z</time>
      </trkpt>
      <trkpt lat="47.36896" lon="-2.19078">
        <ele>-1.53888</ele>
        <time>2020-06-05T16:08:56.998Z</time>
      </trkpt>
      <trkpt lat="47.36906" lon="-2.19088">
        <ele>-1.580944</ele>
        <time>2020-06-05T16:08:58.998Z</time>
      </trkpt>
      <trkpt lat="47.36915" lon="-2.19099">
        <ele>-1.623283</ele>
        <time>2020-06-05T16:09:00.998Z</time>
      </trkpt>
      <trkpt lat="47.36925" lon="-2.19109">
        <ele>-1.6641</ele>
        <time>2020-06-05T16:09:02.998Z</time>
      </trkpt>
      <trkpt lat="47.36935" lon="-2.19119">
        <ele>-1.704685</ele>
        <time>2020-06-05T16:09:04.998Z</time>
      </trkpt>
      <trkpt lat="47.36945" lon="-2.19128">
        <ele>-1.745304</ele>
        <time>2020-06-05T16:09:06.998Z</time>
      </trkpt>
      <trkpt lat="47.36954" lon="-2.19137">
        <ele>-1.784255</ele>
        <time>2020-06-05T16:09:08.998Z</time>
      </trkpt>
      <trkpt lat="47.36964" lon="-2.19146">
        <ele>-1.823914</ele>
        <time>2020-06-05T16:09:10.998Z</time>
      </trkpt>
      <trkpt lat="47.36973" lon="-2.19156">
        <ele>-1.863896</ele>
        <time>2020-06-05T16:09:12.998Z</time>
      </trkpt>
      <trkpt lat="47.36983" lon="-2.19167">
        <ele>-1.905422</ele>
        <time>2020-06-05T16:09:14.998Z</time>
      </trkpt>
      <trkpt lat="47.36993" lon="-2.19177">
        <ele>-2.027032</ele>
        <time>2020-06-05T16:09:16.998Z</time>
      </trkpt>
      <trkpt lat="47.37003" lon="-2.19188">
        <ele>-2.170258</ele>
        <time>2020-06-05T16:09:18.998Z</time>
      </trkpt>
      <trkpt lat="47.37013" lon="-2.19198">
        <ele>-2.30973</ele>
        <time>2020-06-05T16:09:20.998Z</time>
      </trkpt>
      <trkpt lat="47.37022" lon="-2.19209">
        <ele>-2.45155</ele>
        <time>2020-06-05T16:09:22.998Z</time>
      </trkpt>
      <trkpt lat="47.37033" lon="-2.19218">
        <ele>-2.594252</ele>
        <time>2020-06-05T16:09:24.997Z</time>
      </trkpt>
      <trkpt lat="47.37042" lon="-2.19229">
        <ele>-2.72954</ele>
        <time>2020-06-05T16:09:26.997Z</time>
      </trkpt>
      <trkpt lat="47.37051" lon="-2.19239">
        <ele>-2.864829</ele>
        <time>2020-06-05T16:09:28.997Z</time>
      </trkpt>
      <trkpt lat="47.37061" lon="-2.19249">
        <ele>-3.006313</ele>
        <time>2020-06-05T16:09:30.997Z</time>
      </trkpt>
      <trkpt lat="47.37072" lon="-2.1926">
        <ele>-3.157113</ele>
        <time>2020-06-05T16:09:32.997Z</time>
      </trkpt>
      <trkpt lat="47.37082" lon="-2.1927">
        <ele>-3.298699</ele>
        <time>2020-06-05T16:09:34.997Z</time>
      </trkpt>
      <trkpt lat="47.37093" lon="-2.19279">
        <ele>-3.437153</ele>
        <time>2020-06-05T16:09:36.997Z</time>
      </trkpt>
      <trkpt lat="47.37103" lon="-2.19288">
        <ele>-3.580209</ele>
        <time>2020-06-05T16:09:38.997Z</time>
      </trkpt>
      <trkpt lat="47.37113" lon="-2.19296">
        <ele>-3.710495</ele>
        <time>2020-06-05T16:09:40.997Z</time>
      </trkpt>
      <trkpt lat="47.37122" lon="-2.19304">
        <ele>-3.838525</ele>
        <time>2020-06-05T16:09:42.997Z</time>
      </trkpt>
      <trkpt lat="47.37133" lon="-2.19313">
        <ele>-3.980644</ele>
        <time>2020-06-05T16:09:44.997Z</time>
      </trkpt>
      <trkpt lat="47.37143" lon="-2.19321">
        <ele>-4.016571</ele>
        <time>2020-06-05T16:09:46.997Z</time>
      </trkpt>
      <trkpt lat="47.37153" lon="-2.19329">
        <ele>-4.028726</ele>
        <time>2020-06-05T16:09:48.997Z</time>
      </trkpt>
      <trkpt lat="47.37163" lon="-2.19335">
        <ele>-4.039919</ele>
        <time>2020-06-05T16:09:50.997Z</time>
      </trkpt>
      <trkpt lat="47.37173" lon="-2.19344">
        <ele>-4.052744</ele>
        <time>2020-06-05T16:09:52.997Z</time>
      </trkpt>
      <trkpt lat="47.37183" lon="-2.19352">
        <ele>-4.065253</ele>
        <time>2020-06-05T16:09:54.997Z</time>
      </trkpt>
      <trkpt lat="47.37194" lon="-2.19361">
        <ele>-4.078229</ele>
        <time>2020-06-05T16:09:56.996Z</time>
      </trkpt>
      <trkpt lat="47.37205" lon="-2.1937">
        <ele>-4.091724</ele>
        <time>2020-06-05T16:09:58.996Z</time>
      </trkpt>
      <trkpt lat="47.37215" lon="-2.19377">
        <ele>-4.10452</ele>
        <time>2020-06-05T16:10:00.996Z</time>
      </trkpt>
      <trkpt lat="47.37225" lon="-2.19386">
        <ele>-4.116789</ele>
        <time>2020-06-05T16:10:02.996Z</time>
      </trkpt>
      <trkpt lat="47.37233" lon="-2.19394">
        <ele>-4.127602</ele>
        <time>2020-06-05T16:10:04.996Z</time>
      </trkpt>
      <trkpt lat="47.37245" lon="-2.19402">
        <ele>-4.140727</ele>
        <time>2020-06-05T16:10:06.996Z</time>
      </trkpt>
      <trkpt lat="47.37256" lon="-2.19412">
        <ele>-4.155116</ele>
        <time>2020-06-05T16:10:08.996Z</time>
      </trkpt>
      <trkpt lat="47.37266" lon="-2.19422">
        <ele>-4.168141</ele>
        <time>2020-06-05T16:10:10.996Z</time>
      </trkpt>
      <trkpt lat="47.37275" lon="-2.19432">
        <ele>-4.180452</ele>
        <time>2020-06-05T16:10:12.996Z</time>
      </trkpt>
      <trkpt lat="47.37286" lon="-2.19442">
        <ele>-4.193632</ele>
        <time>2020-06-05T16:10:14.996Z</time>
      </trkpt>
      <trkpt lat="47.37294" lon="-2.1945">
        <ele>-4.240598</ele>
        <time>2020-06-05T16:10:16.996Z</time>
      </trkpt>
      <trkpt lat="47.37303" lon="-2.19457">
        <ele>-4.336694</ele>
        <time>2020-06-05T16:10:18.995Z</time>
      </trkpt>
      <trkpt lat="47.37311" lon="-2.19463">
        <ele>-4.43131</ele>
        <time>2020-06-05T16:10:20.995Z</time>
      </trkpt>
      <trkpt lat="47.37321" lon="-2.19471">
        <ele>-4.544873</ele>
        <time>2020-06-05T16:10:22.995Z</time>
      </trkpt>
      <trkpt lat="47.37332" lon="-2.19479">
        <ele>-4.660475</ele>
        <time>2020-06-05T16:10:24.995Z</time>
      </trkpt>
      <trkpt lat="47.3734" lon="-2.19486">
        <ele>-4.756372</ele>
        <time>2020-06-05T16:10:26.995Z</time>
      </trkpt>
      <trkpt lat="47.37348" lon="-2.19494">
        <ele>-4.853537</ele>
        <time>2020-06-05T16:10:28.995Z</time>
      </trkpt>
      <trkpt lat="47.37358" lon="-2.19502">
        <ele>-4.962849</ele>
        <time>2020-06-05T16:10:30.995Z</time>
      </trkpt>
      <trkpt lat="47.37368" lon="-2.1951">
        <ele>-5.072046</ele>
        <time>2020-06-05T16:10:32.995Z</time>
      </trkpt>
      <trkpt lat="47.37377" lon="-2.19519">
        <ele>-5.18356</ele>
        <time>2020-06-05T16:10:34.995Z</time>
      </trkpt>
      <trkpt lat="47.37387" lon="-2.19526">
        <ele>-5.290299</ele>
        <time>2020-06-05T16:10:36.995Z</time>
      </trkpt>
      <trkpt lat="47.37396" lon="-2.19533">
        <ele>-5.392619</ele>
        <time>2020-06-05T16:10:38.995Z</time>
      </trkpt>
      <trkpt lat="47.37404" lon="-2.19541">
        <ele>-5.492052</ele>
        <time>2020-06-05T16:10:40.995Z</time>
      </trkpt>
      <trkpt lat="47.37415" lon="-2.1955">
        <ele>-5.609699</ele>
        <time>2020-06-05T16:10:42.995Z</time>
      </trkpt>
      <trkpt lat="47.37425" lon="-2.19558">
        <ele>-5.728006</ele>
        <time>2020-06-05T16:10:44.995Z</time>
      </trkpt>
      <trkpt lat="47.37436" lon="-2.19567">
        <ele>-5.847365</ele>
        <time>2020-06-05T16:10:46.995Z</time>
      </trkpt>
      <trkpt lat="47.37446" lon="-2.19578">
        <ele>-5.971543</ele>
        <time>2020-06-05T16:10:48.995Z</time>
      </trkpt>
      <trkpt lat="47.37457" lon="-2.19587">
        <ele>-5.968</ele>
        <time>2020-06-05T16:10:50.995Z</time>
      </trkpt>
      <trkpt lat="47.37468" lon="-2.19596">
        <ele>-5.957076</ele>
        <time>2020-06-05T16:10:52.995Z</time>
      </trkpt>
      <trkpt lat="47.37478" lon="-2.19604">
        <ele>-5.947005</ele>
        <time>2020-06-05T16:10:54.995Z</time>
      </trkpt>
      <trkpt lat="47.37488" lon="-2.19613">
        <ele>-5.935881</ele>
        <time>2020-06-05T16:10:56.995Z</time>
      </trkpt>
      <trkpt lat="47.37496" lon="-2.19622">
        <ele>-5.92723</ele>
        <time>2020-06-05T16:10:58.995Z</time>
      </trkpt>
      <trkpt lat="47.37506" lon="-2.19631">
        <ele>-5.917163</ele>
        <time>2020-06-05T16:11:00.995Z</time>
      </trkpt>
      <trkpt lat="47.37516" lon="-2.1964">
        <ele>-5.906266</ele>
        <time>2020-06-05T16:11:02.995Z</time>
      </trkpt>
      <trkpt lat="47.37526" lon="-2.19649">
        <ele>-5.895678</ele>
        <time>2020-06-05T16:11:04.995Z</time>
      </trkpt>
      <trkpt lat="47.37537" lon="-2.19657">
        <ele>-5.885314</ele>
        <time>2020-06-05T16:11:06.995Z</time>
      </trkpt>
      <trkpt lat="47.37547" lon="-2.19666">
        <ele>-5.87486</ele>
        <time>2020-06-05T16:11:08.995Z</time>
      </trkpt>
      <trkpt lat="47.37557" lon="-2.19672">
        <ele>-5.865079</ele>
        <time>2020-06-05T16:11:10.994Z</time>
      </trkpt>
      <trkpt lat="47.37566" lon="-2.19679">
        <ele>-5.856097</ele>
        <time>2020-06-05T16:11:12.994Z</time>
      </trkpt>
      <trkpt lat="47.37576" lon="-2.19686">
        <ele>-5.846291</ele>
        <time>2020-06-05T16:11:14.994Z</time>
      </trkpt>
      <trkpt lat="47.37587" lon="-2.19689">
        <ele>-5.836827</ele>
        <time>2020-06-05T16:11:16.994Z</time>
      </trkpt>
      <trkpt lat="47.37596" lon="-2.19694">
        <ele>-5.827615</ele>
        <time>2020-06-05T16:11:18.994Z</time>
      </trkpt>
      <trkpt lat="47.37606" lon="-2.19701">
        <ele>-5.81058</ele>
        <time>2020-06-05T16:11:20.994Z</time>
      </trkpt>
      <trkpt lat="47.37615" lon="-2.19706">
        <ele>-5.688637</ele>
        <time>2020-06-05T16:11:22.994Z</time>
      </trkpt>
      <trkpt lat="47.37624" lon="-2.19713">
        <ele>-5.568355</ele>
        <time>2020-06-05T16:11:24.994Z</time>
      </trkpt>
      <trkpt lat="47.37635" lon="-2.19722">
        <ele>-5.416168</ele>
        <time>2020-06-05T16:11:26.994Z</time>
      </trkpt>
      <trkpt lat="47.37646" lon="-2.1973">
        <ele>-5.276356</ele>
        <time>2020-06-05T16:11:28.994Z</time>
      </trkpt>
      <trkpt lat="47.37655" lon="-2.19736">
        <ele>-5.151546</ele>
        <time>2020-06-05T16:11:30.994Z</time>
      </trkpt>
      <trkpt lat="47.37666" lon="-2.19742">
        <ele>-5.008562</ele>
        <time>2020-06-05T16:11:32.994Z</time>
      </trkpt>
      <trkpt lat="47.37675" lon="-2.19747">
        <ele>-4.887839</ele>
        <time>2020-06-05T16:11:34.994Z</time>
      </trkpt>
      <trkpt lat="47.37685" lon="-2.19751">
        <ele>-4.773312</ele>
        <time>2020-06-05T16:11:36.994Z</time>
      </trkpt>
      <trkpt lat="47.37693" lon="-2.19758">
        <ele>-4.653782</ele>
        <time>2020-06-05T16:11:38.994Z</time>
      </trkpt>
      <trkpt lat="47.37703" lon="-2.19764">
        <ele>-4.522903</ele>
        <time>2020-06-05T16:11:41.994Z</time>
      </trkpt>
      <trkpt lat="47.37713" lon="-2.1977">
        <ele>-4.396167</ele>
        <time>2020-06-05T16:11:44.994Z</time>
      </trkpt>
      <trkpt lat="47.37723" lon="-2.19776">
        <ele>-4.262271</ele>
        <time>2020-06-05T16:11:47.994Z</time>
      </trkpt>
      <trkpt lat="47.37733" lon="-2.19775">
        <ele>-4.139559</ele>
        <time>2020-06-05T16:11:50.994Z</time>
      </trkpt>
      <trkpt lat="47.37745" lon="-2.19772">
        <ele>-3.999985</ele>
        <time>2020-06-05T16:11:53.994Z</time>
      </trkpt>
      <trkpt lat="47.37756" lon="-2.19771">
        <ele>-3.863863</ele>
        <time>2020-06-05T16:11:56.994Z</time>
      </trkpt>
      <trkpt lat="47.37766" lon="-2.19769">
        <ele>-3.744364</ele>
        <time>2020-06-05T16:11:59.994Z</time>
      </trkpt>
      <trkpt lat="47.37777" lon="-2.19768">
        <ele>-3.564417</ele>
        <time>2020-06-05T16:12:03.993Z</time>
      </trkpt>
      <trkpt lat="47.37788" lon="-2.19764">
        <ele>-3.276582</ele>
        <time>2020-06-05T16:12:06.993Z</time>
      </trkpt>
      <trkpt lat="47.37801" lon="-2.19766">
        <ele>-2.921176</ele>
        <time>2020-06-05T16:12:09.993Z</time>
      </trkpt>
      <trkpt lat="47.37811" lon="-2.19772">
        <ele>-2.621211</ele>
        <time>2020-06-05T16:12:12.993Z</time>
      </trkpt>
      <trkpt lat="47.37821" lon="-2.19774">
        <ele>-2.355058</ele>
        <time>2020-06-05T16:12:15.993Z</time>
      </trkpt>
      <trkpt lat="47.37811" lon="-2.19771">
        <ele>-2.08378</ele>
        <time>2020-06-05T16:13:16.992Z</time>
      </trkpt>
      <trkpt lat="47.37801" lon="-2.19768">
        <ele>-1.799804</ele>
        <time>2020-06-05T16:13:18.992Z</time>
      </trkpt>
      <trkpt lat="47.37789" lon="-2.19765">
        <ele>-1.476247</ele>
        <time>2020-06-05T16:13:20.992Z</time>
      </trkpt>
      <trkpt lat="47.37779" lon="-2.19763">
        <ele>-1.201425</ele>
        <time>2020-06-05T16:13:22.992Z</time>
      </trkpt>
      <trkpt lat="47.37768" lon="-2.19767">
        <ele>-0.906271</ele>
        <time>2020-06-05T16:13:24.992Z</time>
      </trkpt>
      <trkpt lat="47.37758" lon="-2.19771">
        <ele>-0.641234</ele>
        <time>2020-06-05T16:13:26.992Z</time>
      </trkpt>
      <trkpt lat="47.37749" lon="-2.19775">
        <ele>-0.384147</ele>
        <time>2020-06-05T16:13:28.992Z</time>
      </trkpt>
      <trkpt lat="47.3774" lon="-2.19784">
        <ele>-0.100771</ele>
        <time>2020-06-05T16:13:30.992Z</time>
      </trkpt>
      <trkpt lat="47.37739" lon="-2.19801">
        <ele>0.201287</ele>
        <time>2020-06-05T16:13:32.992Z</time>
      </trkpt>
      <trkpt lat="47.37739" lon="-2.19817">
        <ele>0.491563</ele>
        <time>2020-06-05T16:13:34.992Z</time>
      </trkpt>
      <trkpt lat="47.37741" lon="-2.19833">
        <ele>0.788497</ele>
        <time>2020-06-05T16:13:36.992Z</time>
      </trkpt>
      <trkpt lat="47.37745" lon="-2.19849">
        <ele>1.093155</ele>
        <time>2020-06-05T16:13:38.992Z</time>
      </trkpt>
      <trkpt lat="47.37752" lon="-2.19862">
        <ele>1.028547</ele>
        <time>2020-06-05T16:13:40.992Z</time>
      </trkpt>
      <trkpt lat="47.3776" lon="-2.19874">
        <ele>0.893639</ele>
        <time>2020-06-05T16:13:42.992Z</time>
      </trkpt>
      <trkpt lat="47.37771" lon="-2.19881">
        <ele>0.755082</ele>
        <time>2020-06-05T16:13:44.992Z</time>
      </trkpt>
      <trkpt lat="47.37782" lon="-2.19887">
        <ele>0.619172</ele>
        <time>2020-06-05T16:13:46.992Z</time>
      </trkpt>
      <trkpt lat="47.37793" lon="-2.19894">
        <ele>0.486287</ele>
        <time>2020-06-05T16:13:48.992Z</time>
      </trkpt>
      <trkpt lat="47.37802" lon="-2.19901">
        <ele>0.364688</ele>
        <time>2020-06-05T16:13:50.991Z</time>
      </trkpt>
      <trkpt lat="47.37811" lon="-2.19907">
        <ele>0.247635</ele>
        <time>2020-06-05T16:13:52.991Z</time>
      </trkpt>
      <trkpt lat="47.37822" lon="-2.19914">
        <ele>0.104467</ele>
        <time>2020-06-05T16:13:54.991Z</time>
      </trkpt>
      <trkpt lat="47.37831" lon="-2.19921">
        <ele>-0.005298</ele>
        <time>2020-06-05T16:13:56.991Z</time>
      </trkpt>
      <trkpt lat="47.3784" lon="-2.19926">
        <ele>-0.118501</ele>
        <time>2020-06-05T16:13:58.993Z</time>
      </trkpt>
      <trkpt lat="47.37852" lon="-2.19931">
        <ele>-0.267981</ele>
        <time>2020-06-05T16:14:01.994Z</time>
      </trkpt>
      <trkpt lat="47.37862" lon="-2.19934">
        <ele>-0.38361</ele>
        <time>2020-06-05T16:14:03.995Z</time>
      </trkpt>
      <trkpt lat="47.37873" lon="-2.19937">
        <ele>-0.519657</ele>
        <time>2020-06-05T16:14:05.995Z</time>
      </trkpt>
      <trkpt lat="47.37883" lon="-2.19939">
        <ele>-0.633285</ele>
        <time>2020-06-05T16:14:07.996Z</time>
      </trkpt>
      <trkpt lat="47.37893" lon="-2.19942">
        <ele>-0.755283</ele>
        <time>2020-06-05T16:14:09.996Z</time>
      </trkpt>
      <trkpt lat="47.37902" lon="-2.19946">
        <ele>-0.869148</ele>
        <time>2020-06-05T16:14:11.996Z</time>
      </trkpt>
      <trkpt lat="47.37914" lon="-2.19957">
        <ele>-0.99476</ele>
        <time>2020-06-05T16:14:14.997Z</time>
      </trkpt>
      <trkpt lat="47.37925" lon="-2.19966">
        <ele>-1.066422</ele>
        <time>2020-06-05T16:14:17.997Z</time>
      </trkpt>
      <trkpt lat="47.37934" lon="-2.19971">
        <ele>-1.120155</ele>
        <time>2020-06-05T16:14:19.998Z</time>
      </trkpt>
      <trkpt lat="47.37943" lon="-2.19977">
        <ele>-1.18023</ele>
        <time>2020-06-05T16:14:21.998Z</time>
      </trkpt>
      <trkpt lat="47.37952" lon="-2.19984">
        <ele>-1.23785</ele>
        <time>2020-06-05T16:14:23.998Z</time>
      </trkpt>
      <trkpt lat="47.37964" lon="-2.19995">
        <ele>-1.316872</ele>
        <time>2020-06-05T16:14:26.998Z</time>
      </trkpt>
      <trkpt lat="47.37973" lon="-2.20005">
        <ele>-1.382419</ele>
        <time>2020-06-05T16:14:29.998Z</time>
      </trkpt>
      <trkpt lat="47.3798" lon="-2.20014">
        <ele>-1.435109</ele>
        <time>2020-06-05T16:14:31.998Z</time>
      </trkpt>
      <trkpt lat="47.37986" lon="-2.20025">
        <ele>-1.490959</ele>
        <time>2020-06-05T16:14:33.998Z</time>
      </trkpt>
      <trkpt lat="47.37991" lon="-2.20038">
        <ele>-1.549409</ele>
        <time>2020-06-05T16:14:35.998Z</time>
      </trkpt>
      <trkpt lat="47.37997" lon="-2.20051">
        <ele>-1.606831</ele>
        <time>2020-06-05T16:14:37.998Z</time>
      </trkpt>
      <trkpt lat="47.38002" lon="-2.20063">
        <ele>-1.661644</ele>
        <time>2020-06-05T16:14:39.998Z</time>
      </trkpt>
      <trkpt lat="47.38007" lon="-2.20074">
        <ele>-1.713572</ele>
        <time>2020-06-05T16:14:41.998Z</time>
      </trkpt>
      <trkpt lat="47.38013" lon="-2.20085">
        <ele>-1.768431</ele>
        <time>2020-06-05T16:14:43.998Z</time>
      </trkpt>
      <trkpt lat="47.38018" lon="-2.20096">
        <ele>-1.820091</ele>
        <time>2020-06-05T16:14:45.998Z</time>
      </trkpt>
      <trkpt lat="47.38024" lon="-2.20108">
        <ele>-1.878179</ele>
        <time>2020-06-05T16:14:47.998Z</time>
      </trkpt>
      <trkpt lat="47.38032" lon="-2.20124">
        <ele>-1.953851</ele>
        <time>2020-06-05T16:14:50.998Z</time>
      </trkpt>
      <trkpt lat="47.3804" lon="-2.20134">
        <ele>-2.040076</ele>
        <time>2020-06-05T16:14:52.998Z</time>
      </trkpt>
      <trkpt lat="47.38049" lon="-2.2014">
        <ele>-2.164362</ele>
        <time>2020-06-05T16:14:54.998Z</time>
      </trkpt>
      <trkpt lat="47.38062" lon="-2.20149">
        <ele>-2.325686</ele>
        <time>2020-06-05T16:14:57.998Z</time>
      </trkpt>
      <trkpt lat="47.38071" lon="-2.20155">
        <ele>-2.441984</ele>
        <time>2020-06-05T16:14:59.998Z</time>
      </trkpt>
      <trkpt lat="47.38079" lon="-2.20159">
        <ele>-2.552307</ele>
        <time>2020-06-05T16:15:01.998Z</time>
      </trkpt>
      <trkpt lat="47.38089" lon="-2.20163">
        <ele>-2.664516</ele>
        <time>2020-06-05T16:15:03.998Z</time>
      </trkpt>
      <trkpt lat="47.38101" lon="-2.2017">
        <ele>-2.817526</ele>
        <time>2020-06-05T16:15:06.998Z</time>
      </trkpt>
      <trkpt lat="47.38111" lon="-2.20176">
        <ele>-2.945701</ele>
        <time>2020-06-05T16:15:09.998Z</time>
      </trkpt>
      <trkpt lat="47.38123" lon="-2.20185">
        <ele>-3.107929</ele>
        <time>2020-06-05T16:15:12.998Z</time>
      </trkpt>
      <trkpt lat="47.38133" lon="-2.20191">
        <ele>-3.229419</ele>
        <time>2020-06-05T16:15:14.998Z</time>
      </trkpt>
      <trkpt lat="47.38141" lon="-2.20197">
        <ele>-3.34256</ele>
        <time>2020-06-05T16:15:16.998Z</time>
      </trkpt>
      <trkpt lat="47.3815" lon="-2.20201">
        <ele>-3.450984</ele>
        <time>2020-06-05T16:15:18.998Z</time>
      </trkpt>
      <trkpt lat="47.38159" lon="-2.20205">
        <ele>-3.566377</ele>
        <time>2020-06-05T16:15:20.998Z</time>
      </trkpt>
      <trkpt lat="47.38173" lon="-2.20208">
        <ele>-3.733158</ele>
        <time>2020-06-05T16:15:23.998Z</time>
      </trkpt>
      <trkpt lat="47.38185" lon="-2.20217">
        <ele>-3.890831</ele>
        <time>2020-06-05T16:15:26.998Z</time>
      </trkpt>
      <trkpt lat="47.38194" lon="-2.20223">
        <ele>-4.002238</ele>
        <time>2020-06-05T16:15:28.998Z</time>
      </trkpt>
      <trkpt lat="47.38203" lon="-2.20234">
        <ele>-4.154406</ele>
        <time>2020-06-05T16:15:31.998Z</time>
      </trkpt>
      <trkpt lat="47.38211" lon="-2.20241">
        <ele>-4.297986</ele>
        <time>2020-06-05T16:15:33.998Z</time>
      </trkpt>
      <trkpt lat="47.38222" lon="-2.20252">
        <ele>-4.511803</ele>
        <time>2020-06-05T16:15:36.998Z</time>
      </trkpt>
      <trkpt lat="47.38231" lon="-2.2026">
        <ele>-4.678534</ele>
        <time>2020-06-05T16:15:39.998Z</time>
      </trkpt>
      <trkpt lat="47.3824" lon="-2.20267">
        <ele>-4.825337</ele>
        <time>2020-06-05T16:15:41.998Z</time>
      </trkpt>
      <trkpt lat="47.38248" lon="-2.20276">
        <ele>-4.993045</ele>
        <time>2020-06-05T16:15:43.998Z</time>
      </trkpt>
      <trkpt lat="47.38257" lon="-2.20284">
        <ele>-5.153344</ele>
        <time>2020-06-05T16:15:45.998Z</time>
      </trkpt>
      <trkpt lat="47.38265" lon="-2.2029">
        <ele>-5.299759</ele>
        <time>2020-06-05T16:15:47.998Z</time>
      </trkpt>
      <trkpt lat="47.38276" lon="-2.20294">
        <ele>-5.467845</ele>
        <time>2020-06-05T16:15:49.998Z</time>
      </trkpt>
      <trkpt lat="47.38284" lon="-2.203">
        <ele>-5.618445</ele>
        <time>2020-06-05T16:15:51.997Z</time>
      </trkpt>
      <trkpt lat="47.38294" lon="-2.20305">
        <ele>-5.774443</ele>
        <time>2020-06-05T16:15:53.997Z</time>
      </trkpt>
      <trkpt lat="47.38306" lon="-2.2031">
        <ele>-5.968777</ele>
        <time>2020-06-05T16:15:56.997Z</time>
      </trkpt>
      <trkpt lat="47.38319" lon="-2.20315">
        <ele>-6.195151</ele>
        <time>2020-06-05T16:15:59.997Z</time>
      </trkpt>
      <trkpt lat="47.38329" lon="-2.2032">
        <ele>-6.347522</ele>
        <time>2020-06-05T16:16:01.997Z</time>
      </trkpt>
      <trkpt lat="47.38338" lon="-2.20325">
        <ele>-6.502644</ele>
        <time>2020-06-05T16:16:03.997Z</time>
      </trkpt>
      <trkpt lat="47.38347" lon="-2.20329">
        <ele>-6.651702</ele>
        <time>2020-06-05T16:16:05.997Z</time>
      </trkpt>
      <trkpt lat="47.38361" lon="-2.20332">
        <ele>-6.87456</ele>
        <time>2020-06-05T16:16:08.997Z</time>
      </trkpt>
      <trkpt lat="47.38371" lon="-2.20335">
        <ele>-6.920339</ele>
        <time>2020-06-05T16:16:10.997Z</time>
      </trkpt>
      <trkpt lat="47.38381" lon="-2.20341">
        <ele>-6.879245</ele>
        <time>2020-06-05T16:16:12.997Z</time>
      </trkpt>
      <trkpt lat="47.3839" lon="-2.20345">
        <ele>-6.844387</ele>
        <time>2020-06-05T16:16:14.997Z</time>
      </trkpt>
      <trkpt lat="47.38401" lon="-2.20349">
        <ele>-6.800485</ele>
        <time>2020-06-05T16:16:16.997Z</time>
      </trkpt>
      <trkpt lat="47.38412" lon="-2.20353">
        <ele>-6.757605</ele>
        <time>2020-06-05T16:16:18.997Z</time>
      </trkpt>
      <trkpt lat="47.38422" lon="-2.20358">
        <ele>-6.718181</ele>
        <time>2020-06-05T16:16:20.997Z</time>
      </trkpt>
      <trkpt lat="47.38434" lon="-2.20361">
        <ele>-6.67161</ele>
        <time>2020-06-05T16:16:23.997Z</time>
      </trkpt>
      <trkpt lat="47.38443" lon="-2.20365">
        <ele>-6.633572</ele>
        <time>2020-06-05T16:16:25.997Z</time>
      </trkpt>
      <trkpt lat="47.38453" lon="-2.2037">
        <ele>-6.592449</ele>
        <time>2020-06-05T16:16:27.997Z</time>
      </trkpt>
      <trkpt lat="47.38464" lon="-2.20375">
        <ele>-6.550517</ele>
        <time>2020-06-05T16:16:29.997Z</time>
      </trkpt>
      <trkpt lat="47.38476" lon="-2.20382">
        <ele>-6.499953</ele>
        <time>2020-06-05T16:16:32.997Z</time>
      </trkpt>
      <trkpt lat="47.38487" lon="-2.20386">
        <ele>-6.45842</ele>
        <time>2020-06-05T16:16:34.997Z</time>
      </trkpt>
      <trkpt lat="47.38498" lon="-2.20388">
        <ele>-6.416089</ele>
        <time>2020-06-05T16:16:36.997Z</time>
      </trkpt>
      <trkpt lat="47.38508" lon="-2.20389">
        <ele>-6.376203</ele>
        <time>2020-06-05T16:16:38.997Z</time>
      </trkpt>
      <trkpt lat="47.38517" lon="-2.20389">
        <ele>-6.340884</ele>
        <time>2020-06-05T16:16:40.997Z</time>
      </trkpt>
      <trkpt lat="47.38527" lon="-2.20391">
        <ele>-6.303491</ele>
        <time>2020-06-05T16:16:42.997Z</time>
      </trkpt>
      <trkpt lat="47.38537" lon="-2.20392">
        <ele>-6.265336</ele>
        <time>2020-06-05T16:16:44.996Z</time>
      </trkpt>
      <trkpt lat="47.38547" lon="-2.20396">
        <ele>-6.196723</ele>
        <time>2020-06-05T16:16:46.996Z</time>
      </trkpt>
      <trkpt lat="47.38557" lon="-2.20401">
        <ele>-6.108849</ele>
        <time>2020-06-05T16:16:48.996Z</time>
      </trkpt>
      <trkpt lat="47.38566" lon="-2.20409">
        <ele>-6.026146</ele>
        <time>2020-06-05T16:16:50.996Z</time>
      </trkpt>
      <trkpt lat="47.38575" lon="-2.20416">
        <ele>-5.945103</ele>
        <time>2020-06-05T16:16:52.996Z</time>
      </trkpt>
      <trkpt lat="47.38582" lon="-2.20424">
        <ele>-5.870682</ele>
        <time>2020-06-05T16:16:54.996Z</time>
      </trkpt>
      <trkpt lat="47.38591" lon="-2.20431">
        <ele>-5.789527</ele>
        <time>2020-06-05T16:16:56.996Z</time>
      </trkpt>
      <trkpt lat="47.38601" lon="-2.20437">
        <ele>-5.708306</ele>
        <time>2020-06-05T16:16:58.996Z</time>
      </trkpt>
      <trkpt lat="47.38613" lon="-2.20447">
        <ele>-5.598332</ele>
        <time>2020-06-05T16:17:01.996Z</time>
      </trkpt>
      <trkpt lat="47.38622" lon="-2.20454">
        <ele>-5.51193</ele>
        <time>2020-06-05T16:17:03.996Z</time>
      </trkpt>
      <trkpt lat="47.38632" lon="-2.20458">
        <ele>-5.432084</ele>
        <time>2020-06-05T16:17:05.996Z</time>
      </trkpt>
      <trkpt lat="47.38642" lon="-2.20461">
        <ele>-5.345468</ele>
        <time>2020-06-05T16:17:07.996Z</time>
      </trkpt>
      <trkpt lat="47.38654" lon="-2.20463">
        <ele>-5.255836</ele>
        <time>2020-06-05T16:17:09.996Z</time>
      </trkpt>
      <trkpt lat="47.38663" lon="-2.20465">
        <ele>-5.175866</ele>
        <time>2020-06-05T16:17:11.996Z</time>
      </trkpt>
      <trkpt lat="47.38674" lon="-2.20469">
        <ele>-5.090124</ele>
        <time>2020-06-05T16:17:13.996Z</time>
      </trkpt>
      <trkpt lat="47.38684" lon="-2.20475">
        <ele>-5.003591</ele>
        <time>2020-06-05T16:17:15.996Z</time>
      </trkpt>
      <trkpt lat="47.38693" lon="-2.20482">
        <ele>-4.921225</ele>
        <time>2020-06-05T16:17:17.996Z</time>
      </trkpt>
      <trkpt lat="47.38701" lon="-2.2049">
        <ele>-4.840393</ele>
        <time>2020-06-05T16:17:19.996Z</time>
      </trkpt>
      <trkpt lat="47.3871" lon="-2.20499">
        <ele>-4.651972</ele>
        <time>2020-06-05T16:17:21.996Z</time>
      </trkpt>
      <trkpt lat="47.38722" lon="-2.20507">
        <ele>-4.354651</ele>
        <time>2020-06-05T16:17:24.996Z</time>
      </trkpt>
      <trkpt lat="47.38732" lon="-2.20513">
        <ele>-4.121621</ele>
        <time>2020-06-05T16:17:26.996Z</time>
      </trkpt>
      <trkpt lat="47.38743" lon="-2.2052">
        <ele>-3.857137</ele>
        <time>2020-06-05T16:17:29.996Z</time>
      </trkpt>
      <trkpt lat="47.38752" lon="-2.20525">
        <ele>-3.647556</ele>
        <time>2020-06-05T16:17:31.996Z</time>
      </trkpt>
      <trkpt lat="47.38763" lon="-2.20535">
        <ele>-3.35537</ele>
        <time>2020-06-05T16:17:34.996Z</time>
      </trkpt>
      <trkpt lat="47.38771" lon="-2.20548">
        <ele>-3.08949</ele>
        <time>2020-06-05T16:17:37.995Z</time>
      </trkpt>
      <trkpt lat="47.38779" lon="-2.20565">
        <ele>-2.781463</ele>
        <time>2020-06-05T16:17:40.995Z</time>
      </trkpt>
      <trkpt lat="47.38785" lon="-2.20577">
        <ele>-2.549199</ele>
        <time>2020-06-05T16:17:42.995Z</time>
      </trkpt>
      <trkpt lat="47.38792" lon="-2.20591">
        <ele>-2.29744</ele>
        <time>2020-06-05T16:17:44.995Z</time>
      </trkpt>
      <trkpt lat="47.38794" lon="-2.20605">
        <ele>-2.073419</ele>
        <time>2020-06-05T16:17:46.995Z</time>
      </trkpt>
      <trkpt lat="47.38798" lon="-2.20619">
        <ele>-1.854608</ele>
        <time>2020-06-05T16:17:48.995Z</time>
      </trkpt>
      <trkpt lat="47.38801" lon="-2.20632">
        <ele>-1.640662</ele>
        <time>2020-06-05T16:17:50.995Z</time>
      </trkpt>
      <trkpt lat="47.38806" lon="-2.20643">
        <ele>-1.437535</ele>
        <time>2020-06-05T16:17:52.995Z</time>
      </trkpt>
      <trkpt lat="47.38812" lon="-2.20655">
        <ele>-1.220674</ele>
        <time>2020-06-05T16:17:54.995Z</time>
      </trkpt>
      <trkpt lat="47.38818" lon="-2.20665">
        <ele>-1.014677</ele>
        <time>2020-06-05T16:17:56.995Z</time>
      </trkpt>
      <trkpt lat="47.38827" lon="-2.20675">
        <ele>-0.8731</ele>
        <time>2020-06-05T16:17:58.995Z</time>
      </trkpt>
      <trkpt lat="47.38836" lon="-2.20683">
        <ele>-1.100792</ele>
        <time>2020-06-05T16:18:00.995Z</time>
      </trkpt>
      <trkpt lat="47.38846" lon="-2.20689">
        <ele>-1.342469</ele>
        <time>2020-06-05T16:18:02.995Z</time>
      </trkpt>
      <trkpt lat="47.38856" lon="-2.20693">
        <ele>-1.559551</ele>
        <time>2020-06-05T16:18:04.995Z</time>
      </trkpt>
      <trkpt lat="47.38866" lon="-2.207">
        <ele>-1.81532</ele>
        <time>2020-06-05T16:18:06.995Z</time>
      </trkpt>
      <trkpt lat="47.38875" lon="-2.20709">
        <ele>-2.05192</ele>
        <time>2020-06-05T16:18:08.995Z</time>
      </trkpt>
      <trkpt lat="47.38885" lon="-2.20716">
        <ele>-2.286392</ele>
        <time>2020-06-05T16:18:10.995Z</time>
      </trkpt>
      <trkpt lat="47.38894" lon="-2.20721">
        <ele>-2.513912</ele>
        <time>2020-06-05T16:18:12.995Z</time>
      </trkpt>
      <trkpt lat="47.38906" lon="-2.20728">
        <ele>-2.804892</ele>
        <time>2020-06-05T16:18:15.995Z</time>
      </trkpt>
      <trkpt lat="47.38917" lon="-2.20734">
        <ele>-3.050063</ele>
        <time>2020-06-05T16:18:17.995Z</time>
      </trkpt>
      <trkpt lat="47.38926" lon="-2.2074">
        <ele>-3.267544</ele>
        <time>2020-06-05T16:18:19.995Z</time>
      </trkpt>
      <trkpt lat="47.38935" lon="-2.20745">
        <ele>-3.489982</ele>
        <time>2020-06-05T16:18:21.995Z</time>
      </trkpt>
      <trkpt lat="47.38945" lon="-2.20755">
        <ele>-3.754954</ele>
        <time>2020-06-05T16:18:24.995Z</time>
      </trkpt>
      <trkpt lat="47.38952" lon="-2.20763">
        <ele>-3.95899</ele>
        <time>2020-06-05T16:18:26.995Z</time>
      </trkpt>
      <trkpt lat="47.38962" lon="-2.20777">
        <ele>-4.247789</ele>
        <time>2020-06-05T16:18:29.994Z</time>
      </trkpt>
      <trkpt lat="47.38967" lon="-2.20788">
        <ele>-4.461616</ele>
        <time>2020-06-05T16:18:31.994Z</time>
      </trkpt>
      <trkpt lat="47.38973" lon="-2.20803">
        <ele>-4.707961</ele>
        <time>2020-06-05T16:18:34.994Z</time>
      </trkpt>
      <trkpt lat="47.38981" lon="-2.20817">
        <ele>-4.702257</ele>
        <time>2020-06-05T16:18:37.994Z</time>
      </trkpt>
      <trkpt lat="47.38987" lon="-2.20828">
        <ele>-4.588416</ele>
        <time>2020-06-05T16:18:39.994Z</time>
      </trkpt>
      <trkpt lat="47.38992" lon="-2.2084">
        <ele>-4.478694</ele>
        <time>2020-06-05T16:18:41.994Z</time>
      </trkpt>
      <trkpt lat="47.38999" lon="-2.20851">
        <ele>-4.35578</ele>
        <time>2020-06-05T16:18:43.994Z</time>
      </trkpt>
      <trkpt lat="47.39009" lon="-2.20863">
        <ele>-4.20954</ele>
        <time>2020-06-05T16:18:46.994Z</time>
      </trkpt>
      <trkpt lat="47.39018" lon="-2.20873">
        <ele>-4.081166</ele>
        <time>2020-06-05T16:18:48.994Z</time>
      </trkpt>
      <trkpt lat="47.39025" lon="-2.20881">
        <ele>-3.970624</ele>
        <time>2020-06-05T16:18:50.994Z</time>
      </trkpt>
      <trkpt lat="47.39035" lon="-2.20889">
        <ele>-3.840611</ele>
        <time>2020-06-05T16:18:52.994Z</time>
      </trkpt>
      <trkpt lat="47.39045" lon="-2.20896">
        <ele>-3.718019</ele>
        <time>2020-06-05T16:18:54.994Z</time>
      </trkpt>
      <trkpt lat="47.39055" lon="-2.20901">
        <ele>-3.592867</ele>
        <time>2020-06-05T16:18:56.994Z</time>
      </trkpt>
      <trkpt lat="47.39067" lon="-2.20906">
        <ele>-3.439184</ele>
        <time>2020-06-05T16:18:59.994Z</time>
      </trkpt>
      <trkpt lat="47.39079" lon="-2.20902">
        <ele>-3.303596</ele>
        <time>2020-06-05T16:19:01.994Z</time>
      </trkpt>
      <trkpt lat="47.39089" lon="-2.20899">
        <ele>-3.185488</ele>
        <time>2020-06-05T16:19:03.994Z</time>
      </trkpt>
      <trkpt lat="47.391" lon="-2.20898">
        <ele>-3.058435</ele>
        <time>2020-06-05T16:19:05.994Z</time>
      </trkpt>
      <trkpt lat="47.3911" lon="-2.20897">
        <ele>-2.933472</ele>
        <time>2020-06-05T16:19:07.994Z</time>
      </trkpt>
      <trkpt lat="47.39125" lon="-2.20891">
        <ele>-2.759921</ele>
        <time>2020-06-05T16:19:10.994Z</time>
      </trkpt>
      <trkpt lat="47.39134" lon="-2.20885">
        <ele>-2.611119</ele>
        <time>2020-06-05T16:19:12.994Z</time>
      </trkpt>
      <trkpt lat="47.39143" lon="-2.20874">
        <ele>-2.392148</ele>
        <time>2020-06-05T16:19:15.994Z</time>
      </trkpt>
      <trkpt lat="47.39151" lon="-2.20868">
        <ele>-2.225968</ele>
        <time>2020-06-05T16:19:18.994Z</time>
      </trkpt>
      <trkpt lat="47.39162" lon="-2.20878">
        <ele>-1.999558</ele>
        <time>2020-06-05T16:19:22.993Z</time>
      </trkpt>
      <trkpt lat="47.39166" lon="-2.20891">
        <ele>-1.826744</ele>
        <time>2020-06-05T16:19:24.993Z</time>
      </trkpt>
      <trkpt lat="47.3917" lon="-2.20904">
        <ele>-1.648271</ele>
        <time>2020-06-05T16:19:26.993Z</time>
      </trkpt>
      <trkpt lat="47.39175" lon="-2.20917">
        <ele>-1.461088</ele>
        <time>2020-06-05T16:19:28.993Z</time>
      </trkpt>
      <trkpt lat="47.3918" lon="-2.2093">
        <ele>-1.281224</ele>
        <time>2020-06-05T16:19:30.993Z</time>
      </trkpt>
      <trkpt lat="47.39185" lon="-2.20944">
        <ele>-1.093202</ele>
        <time>2020-06-05T16:19:32.993Z</time>
      </trkpt>
      <trkpt lat="47.39189" lon="-2.20958">
        <ele>-0.91092</ele>
        <time>2020-06-05T16:19:34.993Z</time>
      </trkpt>
      <trkpt lat="47.39194" lon="-2.20971">
        <ele>-0.7259</ele>
        <time>2020-06-05T16:19:36.993Z</time>
      </trkpt>
      <trkpt lat="47.39198" lon="-2.20984">
        <ele>-0.548186</ele>
        <time>2020-06-05T16:19:38.993Z</time>
      </trkpt>
      <trkpt lat="47.39204" lon="-2.20999">
        <ele>-0.342138</ele>
        <time>2020-06-05T16:19:40.993Z</time>
      </trkpt>
      <trkpt lat="47.39208" lon="-2.21012">
        <ele>-0.162275</ele>
        <time>2020-06-05T16:19:42.993Z</time>
      </trkpt>
      <trkpt lat="47.39216" lon="-2.21029">
        <ele>0.078395</ele>
        <time>2020-06-05T16:19:45.993Z</time>
      </trkpt>
      <trkpt lat="47.3922" lon="-2.21041">
        <ele>0.250111</ele>
        <time>2020-06-05T16:19:47.993Z</time>
      </trkpt>
      <trkpt lat="47.39224" lon="-2.21058">
        <ele>0.46858</ele>
        <time>2020-06-05T16:19:50.993Z</time>
      </trkpt>
      <trkpt lat="47.39229" lon="-2.2107">
        <ele>0.487334</ele>
        <time>2020-06-05T16:19:52.993Z</time>
      </trkpt>
      <trkpt lat="47.39234" lon="-2.21084">
        <ele>0.38854</ele>
        <time>2020-06-05T16:19:54.993Z</time>
      </trkpt>
      <trkpt lat="47.3924" lon="-2.21098">
        <ele>0.287932</ele>
        <time>2020-06-05T16:19:56.993Z</time>
      </trkpt>
      <trkpt lat="47.39245" lon="-2.21114">
        <ele>0.180993</ele>
        <time>2020-06-05T16:19:58.993Z</time>
      </trkpt>
      <trkpt lat="47.39251" lon="-2.21129">
        <ele>0.074549</ele>
        <time>2020-06-05T16:20:00.993Z</time>
      </trkpt>
      <trkpt lat="47.39256" lon="-2.21142">
        <ele>-0.016724</ele>
        <time>2020-06-05T16:20:02.993Z</time>
      </trkpt>
      <trkpt lat="47.3926" lon="-2.21157">
        <ele>-0.115859</ele>
        <time>2020-06-05T16:20:04.993Z</time>
      </trkpt>
      <trkpt lat="47.39262" lon="-2.21171">
        <ele>-0.202159</ele>
        <time>2020-06-05T16:20:06.993Z</time>
      </trkpt>
      <trkpt lat="47.39267" lon="-2.21192">
        <ele>-0.333623</ele>
        <time>2020-06-05T16:20:09.993Z</time>
      </trkpt>
      <trkpt lat="47.3927" lon="-2.21208">
        <ele>-0.436537</ele>
        <time>2020-06-05T16:20:11.993Z</time>
      </trkpt>
      <trkpt lat="47.39272" lon="-2.21222">
        <ele>-0.523208</ele>
        <time>2020-06-05T16:20:13.993Z</time>
      </trkpt>
      <trkpt lat="47.39275" lon="-2.2124">
        <ele>-0.636045</ele>
        <time>2020-06-05T16:20:16.992Z</time>
      </trkpt>
      <trkpt lat="47.39277" lon="-2.21255">
        <ele>-0.729243</ele>
        <time>2020-06-05T16:20:18.992Z</time>
      </trkpt>
      <trkpt lat="47.39281" lon="-2.21268">
        <ele>-0.818201</ele>
        <time>2020-06-05T16:20:20.992Z</time>
      </trkpt>
      <trkpt lat="47.39284" lon="-2.21283">
        <ele>-0.91409</ele>
        <time>2020-06-05T16:20:22.992Z</time>
      </trkpt>
      <trkpt lat="47.39287" lon="-2.21296">
        <ele>-0.997849</ele>
        <time>2020-06-05T16:20:24.992Z</time>
      </trkpt>
      <trkpt lat="47.39294" lon="-2.21314">
        <ele>-1.263483</ele>
        <time>2020-06-05T16:20:27.992Z</time>
      </trkpt>
      <trkpt lat="47.393" lon="-2.21327">
        <ele>-1.670095</ele>
        <time>2020-06-05T16:20:29.992Z</time>
      </trkpt>
      <trkpt lat="47.39308" lon="-2.2134">
        <ele>-2.121071</ele>
        <time>2020-06-05T16:20:31.992Z</time>
      </trkpt>
      <trkpt lat="47.39316" lon="-2.21351">
        <ele>-2.566338</ele>
        <time>2020-06-05T16:20:33.992Z</time>
      </trkpt>
      <trkpt lat="47.39324" lon="-2.2136">
        <ele>-2.942314</ele>
        <time>2020-06-05T16:20:35.992Z</time>
      </trkpt>
      <trkpt lat="47.39332" lon="-2.21368">
        <ele>-3.296546</ele>
        <time>2020-06-05T16:20:37.992Z</time>
      </trkpt>
      <trkpt lat="47.39339" lon="-2.21378">
        <ele>-3.681594</ele>
        <time>2020-06-05T16:20:39.992Z</time>
      </trkpt>
      <trkpt lat="47.39348" lon="-2.21388">
        <ele>-4.116818</ele>
        <time>2020-06-05T16:20:41.992Z</time>
      </trkpt>
      <trkpt lat="47.39356" lon="-2.21396">
        <ele>-4.51895</ele>
        <time>2020-06-05T16:20:43.992Z</time>
      </trkpt>
      <trkpt lat="47.39364" lon="-2.21405">
        <ele>-4.907709</ele>
        <time>2020-06-05T16:20:45.992Z</time>
      </trkpt>
      <trkpt lat="47.39373" lon="-2.21416">
        <ele>-5.341768</ele>
        <time>2020-06-05T16:20:47.992Z</time>
      </trkpt>
      <trkpt lat="47.39381" lon="-2.21425">
        <ele>-5.742649</ele>
        <time>2020-06-05T16:20:49.992Z</time>
      </trkpt>
      <trkpt lat="47.3939" lon="-2.21436">
        <ele>-6.19402</ele>
        <time>2020-06-05T16:20:51.992Z</time>
      </trkpt>
      <trkpt lat="47.394" lon="-2.21447">
        <ele>-6.682319</ele>
        <time>2020-06-05T16:20:53.992Z</time>
      </trkpt>
      <trkpt lat="47.39409" lon="-2.21454">
        <ele>-7.067664</ele>
        <time>2020-06-05T16:20:55.992Z</time>
      </trkpt>
      <trkpt lat="47.39417" lon="-2.21463">
        <ele>-7.446813</ele>
        <time>2020-06-05T16:20:57.992Z</time>
      </trkpt>
      <trkpt lat="47.39425" lon="-2.21472">
        <ele>-7.840565</ele>
        <time>2020-06-05T16:20:59.992Z</time>
      </trkpt>
      <trkpt lat="47.39433" lon="-2.21484">
        <ele>-8.048146</ele>
        <time>2020-06-05T16:21:01.992Z</time>
      </trkpt>
      <trkpt lat="47.39441" lon="-2.21494">
        <ele>-8.026922</ele>
        <time>2020-06-05T16:21:03.992Z</time>
      </trkpt>
      <trkpt lat="47.39449" lon="-2.21505">
        <ele>-8.004792</ele>
        <time>2020-06-05T16:21:05.994Z</time>
      </trkpt>
      <trkpt lat="47.39458" lon="-2.21517">
        <ele>-7.981169</ele>
        <time>2020-06-05T16:21:07.994Z</time>
      </trkpt>
      <trkpt lat="47.39467" lon="-2.21529">
        <ele>-7.958548</ele>
        <time>2020-06-05T16:21:09.995Z</time>
      </trkpt>
      <trkpt lat="47.39474" lon="-2.2154">
        <ele>-7.937964</ele>
        <time>2020-06-05T16:21:11.996Z</time>
      </trkpt>
      <trkpt lat="47.39483" lon="-2.2155">
        <ele>-7.916506</ele>
        <time>2020-06-05T16:21:13.996Z</time>
      </trkpt>
      <trkpt lat="47.39491" lon="-2.2156">
        <ele>-7.896245</ele>
        <time>2020-06-05T16:21:15.996Z</time>
      </trkpt>
      <trkpt lat="47.395" lon="-2.2157">
        <ele>-7.873508</ele>
        <time>2020-06-05T16:21:17.997Z</time>
      </trkpt>
      <trkpt lat="47.39509" lon="-2.21581">
        <ele>-7.852073</ele>
        <time>2020-06-05T16:21:19.997Z</time>
      </trkpt>
      <trkpt lat="47.39518" lon="-2.21592">
        <ele>-7.828886</ele>
        <time>2020-06-05T16:21:21.997Z</time>
      </trkpt>
      <trkpt lat="47.39526" lon="-2.21601">
        <ele>-7.808432</ele>
        <time>2020-06-05T16:21:23.998Z</time>
      </trkpt>
      <trkpt lat="47.39535" lon="-2.21611">
        <ele>-7.78663</ele>
        <time>2020-06-05T16:21:25.998Z</time>
      </trkpt>
      <trkpt lat="47.39544" lon="-2.21622">
        <ele>-7.762928</ele>
        <time>2020-06-05T16:21:27.998Z</time>
      </trkpt>
      <trkpt lat="47.39553" lon="-2.21633">
        <ele>-7.739742</ele>
        <time>2020-06-05T16:21:29.998Z</time>
      </trkpt>
      <trkpt lat="47.39563" lon="-2.21644">
        <ele>-7.715515</ele>
        <time>2020-06-05T16:21:31.998Z</time>
      </trkpt>
      <trkpt lat="47.39572" lon="-2.21656">
        <ele>-7.59884</ele>
        <time>2020-06-05T16:21:33.998Z</time>
      </trkpt>
      <trkpt lat="47.39581" lon="-2.21667">
        <ele>-7.435188</ele>
        <time>2020-06-05T16:21:35.998Z</time>
      </trkpt>
      <trkpt lat="47.3959" lon="-2.21677">
        <ele>-7.27796</ele>
        <time>2020-06-05T16:21:37.998Z</time>
      </trkpt>
      <trkpt lat="47.39599" lon="-2.21686">
        <ele>-7.12538</ele>
        <time>2020-06-05T16:21:39.999Z</time>
      </trkpt>
      <trkpt lat="47.39608" lon="-2.21698">
        <ele>-6.9544</ele>
        <time>2020-06-05T16:21:41.999Z</time>
      </trkpt>
      <trkpt lat="47.39617" lon="-2.21709">
        <ele>-6.788649</ele>
        <time>2020-06-05T16:21:43.999Z</time>
      </trkpt>
      <trkpt lat="47.39626" lon="-2.2172">
        <ele>-6.613565</ele>
        <time>2020-06-05T16:21:45.999Z</time>
      </trkpt>
      <trkpt lat="47.39636" lon="-2.21731">
        <ele>-6.44558</ele>
        <time>2020-06-05T16:21:47.999Z</time>
      </trkpt>
      <trkpt lat="47.39645" lon="-2.21742">
        <ele>-6.281442</ele>
        <time>2020-06-05T16:21:49.999Z</time>
      </trkpt>
      <trkpt lat="47.39654" lon="-2.21753">
        <ele>-6.1184</ele>
        <time>2020-06-05T16:21:51.999Z</time>
      </trkpt>
      <trkpt lat="47.39662" lon="-2.21763">
        <ele>-5.962636</ele>
        <time>2020-06-05T16:21:53.999Z</time>
      </trkpt>
      <trkpt lat="47.3967" lon="-2.21773">
        <ele>-5.817338</ele>
        <time>2020-06-05T16:21:55.999Z</time>
      </trkpt>
      <trkpt lat="47.39679" lon="-2.21782">
        <ele>-5.664172</ele>
        <time>2020-06-05T16:21:57.999Z</time>
      </trkpt>
      <trkpt lat="47.39687" lon="-2.21791">
        <ele>-5.514981</ele>
        <time>2020-06-05T16:21:59.999Z</time>
      </trkpt>
      <trkpt lat="47.39697" lon="-2.218">
        <ele>-5.347772</ele>
        <time>2020-06-05T16:22:01.999Z</time>
      </trkpt>
      <trkpt lat="47.39708" lon="-2.21806">
        <ele>-5.189086</ele>
        <time>2020-06-05T16:22:03.999Z</time>
      </trkpt>
      <trkpt lat="47.39718" lon="-2.2181">
        <ele>-5.172908</ele>
        <time>2020-06-05T16:22:05.999Z</time>
      </trkpt>
      <trkpt lat="47.39729" lon="-2.21814">
        <ele>-5.18828</ele>
        <time>2020-06-05T16:22:07.999Z</time>
      </trkpt>
      <trkpt lat="47.39741" lon="-2.21816">
        <ele>-5.203609</ele>
        <time>2020-06-05T16:22:09.999Z</time>
      </trkpt>
      <trkpt lat="47.39752" lon="-2.21819">
        <ele>-5.218582</ele>
        <time>2020-06-05T16:22:11.998Z</time>
      </trkpt>
      <trkpt lat="47.39762" lon="-2.21822">
        <ele>-5.232628</ele>
        <time>2020-06-05T16:22:13.998Z</time>
      </trkpt>
      <trkpt lat="47.39772" lon="-2.21824">
        <ele>-5.246146</ele>
        <time>2020-06-05T16:22:15.998Z</time>
      </trkpt>
      <trkpt lat="47.39782" lon="-2.21827">
        <ele>-5.259813</ele>
        <time>2020-06-05T16:22:17.998Z</time>
      </trkpt>
      <trkpt lat="47.39792" lon="-2.2183">
        <ele>-5.27333</ele>
        <time>2020-06-05T16:22:19.998Z</time>
      </trkpt>
      <trkpt lat="47.39806" lon="-2.21834">
        <ele>-5.2924</ele>
        <time>2020-06-05T16:22:22.998Z</time>
      </trkpt>
      <trkpt lat="47.39816" lon="-2.21837">
        <ele>-5.306283</ele>
        <time>2020-06-05T16:22:24.998Z</time>
      </trkpt>
      <trkpt lat="47.39825" lon="-2.21839">
        <ele>-5.319195</ele>
        <time>2020-06-05T16:22:26.998Z</time>
      </trkpt>
      <trkpt lat="47.39837" lon="-2.21842">
        <ele>-5.335817</ele>
        <time>2020-06-05T16:22:28.998Z</time>
      </trkpt>
      <trkpt lat="47.39851" lon="-2.21844">
        <ele>-5.353654</ele>
        <time>2020-06-05T16:22:30.998Z</time>
      </trkpt>
      <trkpt lat="47.39861" lon="-2.21846">
        <ele>-5.367628</ele>
        <time>2020-06-05T16:22:32.998Z</time>
      </trkpt>
      <trkpt lat="47.39873" lon="-2.2185">
        <ele>-5.384333</ele>
        <time>2020-06-05T16:22:34.998Z</time>
      </trkpt>
      <trkpt lat="47.39884" lon="-2.21854">
        <ele>-5.398849</ele>
        <time>2020-06-05T16:22:36.998Z</time>
      </trkpt>
      <trkpt lat="47.39896" lon="-2.21858">
        <ele>-5.403382</ele>
        <time>2020-06-05T16:22:38.998Z</time>
      </trkpt>
      <trkpt lat="47.39907" lon="-2.2186">
        <ele>-5.403984</ele>
        <time>2020-06-05T16:22:40.998Z</time>
      </trkpt>
      <trkpt lat="47.39917" lon="-2.21862">
        <ele>-5.404509</ele>
        <time>2020-06-05T16:22:42.998Z</time>
      </trkpt>
      <trkpt lat="47.3993" lon="-2.21864">
        <ele>-5.405134</ele>
        <time>2020-06-05T16:22:44.998Z</time>
      </trkpt>
      <trkpt lat="47.39943" lon="-2.21869">
        <ele>-5.405851</ele>
        <time>2020-06-05T16:22:46.998Z</time>
      </trkpt>
      <trkpt lat="47.39955" lon="-2.21873">
        <ele>-5.406491</ele>
        <time>2020-06-05T16:22:48.998Z</time>
      </trkpt>
      <trkpt lat="47.39967" lon="-2.21878">
        <ele>-5.407126</ele>
        <time>2020-06-05T16:22:50.998Z</time>
      </trkpt>
      <trkpt lat="47.39978" lon="-2.21881">
        <ele>-5.407666</ele>
        <time>2020-06-05T16:22:52.998Z</time>
      </trkpt>
      <trkpt lat="47.39989" lon="-2.21885">
        <ele>-5.408278</ele>
        <time>2020-06-05T16:22:54.998Z</time>
      </trkpt>
      <trkpt lat="47.40002" lon="-2.2189">
        <ele>-5.408957</ele>
        <time>2020-06-05T16:22:56.998Z</time>
      </trkpt>
      <trkpt lat="47.40014" lon="-2.21894">
        <ele>-5.409594</ele>
        <time>2020-06-05T16:22:58.998Z</time>
      </trkpt>
      <trkpt lat="47.40027" lon="-2.219">
        <ele>-5.410274</ele>
        <time>2020-06-05T16:23:00.998Z</time>
      </trkpt>
      <trkpt lat="47.40038" lon="-2.21905">
        <ele>-5.410864</ele>
        <time>2020-06-05T16:23:02.998Z</time>
      </trkpt>
      <trkpt lat="47.4005" lon="-2.21908">
        <ele>-5.411502</ele>
        <time>2020-06-05T16:23:04.998Z</time>
      </trkpt>
      <trkpt lat="47.40063" lon="-2.21911">
        <ele>-5.405397</ele>
        <time>2020-06-05T16:23:06.997Z</time>
      </trkpt>
      <trkpt lat="47.40074" lon="-2.21914">
        <ele>-5.287873</ele>
        <time>2020-06-05T16:23:08.997Z</time>
      </trkpt>
      <trkpt lat="47.40087" lon="-2.21918">
        <ele>-5.160344</ele>
        <time>2020-06-05T16:23:10.997Z</time>
      </trkpt>
      <trkpt lat="47.40099" lon="-2.21924">
        <ele>-5.032146</ele>
        <time>2020-06-05T16:23:12.997Z</time>
      </trkpt>
      <trkpt lat="47.40112" lon="-2.21928">
        <ele>-4.890212</ele>
        <time>2020-06-05T16:23:14.997Z</time>
      </trkpt>
      <trkpt lat="47.40126" lon="-2.21931">
        <ele>-4.754227</ele>
        <time>2020-06-05T16:23:16.997Z</time>
      </trkpt>
      <trkpt lat="47.40137" lon="-2.21935">
        <ele>-4.634027</ele>
        <time>2020-06-05T16:23:18.997Z</time>
      </trkpt>
      <trkpt lat="47.4015" lon="-2.21939">
        <ele>-4.50665</ele>
        <time>2020-06-05T16:23:20.997Z</time>
      </trkpt>
      <trkpt lat="47.40161" lon="-2.21942">
        <ele>-4.386323</ele>
        <time>2020-06-05T16:23:22.997Z</time>
      </trkpt>
      <trkpt lat="47.40174" lon="-2.21945">
        <ele>-4.2595</ele>
        <time>2020-06-05T16:23:24.997Z</time>
      </trkpt>
      <trkpt lat="47.40186" lon="-2.21949">
        <ele>-4.136887</ele>
        <time>2020-06-05T16:23:26.997Z</time>
      </trkpt>
      <trkpt lat="47.40197" lon="-2.21953">
        <ele>-4.015306</ele>
        <time>2020-06-05T16:23:28.997Z</time>
      </trkpt>
      <trkpt lat="47.40209" lon="-2.21958">
        <ele>-3.887618</ele>
        <time>2020-06-05T16:23:30.997Z</time>
      </trkpt>
      <trkpt lat="47.4022" lon="-2.21963">
        <ele>-3.777176</ele>
        <time>2020-06-05T16:23:32.997Z</time>
      </trkpt>
      <trkpt lat="47.4023" lon="-2.21967">
        <ele>-3.668476</ele>
        <time>2020-06-05T16:23:34.997Z</time>
      </trkpt>
      <trkpt lat="47.4024" lon="-2.21972">
        <ele>-3.652655</ele>
        <time>2020-06-05T16:23:36.997Z</time>
      </trkpt>
      <trkpt lat="47.4025" lon="-2.21978">
        <ele>-3.832493</ele>
        <time>2020-06-05T16:23:38.997Z</time>
      </trkpt>
      <trkpt lat="47.40259" lon="-2.21985">
        <ele>-4.004548</ele>
        <time>2020-06-05T16:23:40.997Z</time>
      </trkpt>
      <trkpt lat="47.40267" lon="-2.21993">
        <ele>-4.166723</ele>
        <time>2020-06-05T16:23:42.997Z</time>
      </trkpt>
      <trkpt lat="47.40275" lon="-2.22004">
        <ele>-4.362134</ele>
        <time>2020-06-05T16:23:44.997Z</time>
      </trkpt>
      <trkpt lat="47.40283" lon="-2.22015">
        <ele>-4.55167</ele>
        <time>2020-06-05T16:23:46.997Z</time>
      </trkpt>
      <trkpt lat="47.4029" lon="-2.22027">
        <ele>-4.742296</ele>
        <time>2020-06-05T16:23:48.997Z</time>
      </trkpt>
      <trkpt lat="47.40298" lon="-2.22037">
        <ele>-4.919138</ele>
        <time>2020-06-05T16:23:50.997Z</time>
      </trkpt>
      <trkpt lat="47.40304" lon="-2.22049">
        <ele>-5.095384</ele>
        <time>2020-06-05T16:23:52.997Z</time>
      </trkpt>
      <trkpt lat="47.40312" lon="-2.2206">
        <ele>-5.286917</ele>
        <time>2020-06-05T16:23:54.997Z</time>
      </trkpt>
      <trkpt lat="47.40319" lon="-2.22071">
        <ele>-5.457005</ele>
        <time>2020-06-05T16:23:56.996Z</time>
      </trkpt>
      <trkpt lat="47.40327" lon="-2.22083">
        <ele>-5.654781</ele>
        <time>2020-06-05T16:23:58.996Z</time>
      </trkpt>
      <trkpt lat="47.40336" lon="-2.22095">
        <ele>-5.859029</ele>
        <time>2020-06-05T16:24:00.996Z</time>
      </trkpt>
      <trkpt lat="47.40344" lon="-2.22107">
        <ele>-6.063277</ele>
        <time>2020-06-05T16:24:02.996Z</time>
      </trkpt>
      <trkpt lat="47.40354" lon="-2.22119">
        <ele>-6.278375</ele>
        <time>2020-06-05T16:24:05.996Z</time>
      </trkpt>
      <trkpt lat="47.40363" lon="-2.22132">
        <ele>-6.506126</ele>
        <time>2020-06-05T16:24:08.996Z</time>
      </trkpt>
      <trkpt lat="47.4037" lon="-2.22143">
        <ele>-6.670428</ele>
        <time>2020-06-05T16:24:10.996Z</time>
      </trkpt>
      <trkpt lat="47.40378" lon="-2.22155">
        <ele>-6.76438</ele>
        <time>2020-06-05T16:24:12.996Z</time>
      </trkpt>
      <trkpt lat="47.40385" lon="-2.22166">
        <ele>-6.834831</ele>
        <time>2020-06-05T16:24:14.996Z</time>
      </trkpt>
      <trkpt lat="47.40392" lon="-2.22178">
        <ele>-6.901443</ele>
        <time>2020-06-05T16:24:16.996Z</time>
      </trkpt>
      <trkpt lat="47.40398" lon="-2.2219">
        <ele>-6.967918</ele>
        <time>2020-06-05T16:24:18.996Z</time>
      </trkpt>
      <trkpt lat="47.40405" lon="-2.22202">
        <ele>-7.037801</ele>
        <time>2020-06-05T16:24:20.996Z</time>
      </trkpt>
      <trkpt lat="47.40414" lon="-2.22214">
        <ele>-7.115801</ele>
        <time>2020-06-05T16:24:22.996Z</time>
      </trkpt>
      <trkpt lat="47.40423" lon="-2.22226">
        <ele>-7.194277</ele>
        <time>2020-06-05T16:24:24.996Z</time>
      </trkpt>
      <trkpt lat="47.40431" lon="-2.22236">
        <ele>-7.263709</ele>
        <time>2020-06-05T16:24:26.996Z</time>
      </trkpt>
      <trkpt lat="47.40439" lon="-2.22247">
        <ele>-7.336539</ele>
        <time>2020-06-05T16:24:28.996Z</time>
      </trkpt>
      <trkpt lat="47.40448" lon="-2.22259">
        <ele>-7.413745</ele>
        <time>2020-06-05T16:24:30.996Z</time>
      </trkpt>
      <trkpt lat="47.40456" lon="-2.22271">
        <ele>-7.487894</ele>
        <time>2020-06-05T16:24:32.996Z</time>
      </trkpt>
      <trkpt lat="47.40465" lon="-2.22284">
        <ele>-7.566329</ele>
        <time>2020-06-05T16:24:34.996Z</time>
      </trkpt>
      <trkpt lat="47.40474" lon="-2.22296">
        <ele>-7.648023</ele>
        <time>2020-06-05T16:24:36.996Z</time>
      </trkpt>
      <trkpt lat="47.40483" lon="-2.22309">
        <ele>-7.726006</ele>
        <time>2020-06-05T16:24:38.996Z</time>
      </trkpt>
      <trkpt lat="47.4049" lon="-2.2232">
        <ele>-7.796115</ele>
        <time>2020-06-05T16:24:40.996Z</time>
      </trkpt>
      <trkpt lat="47.40499" lon="-2.22331">
        <ele>-7.868553</ele>
        <time>2020-06-05T16:24:42.996Z</time>
      </trkpt>
      <trkpt lat="47.40507" lon="-2.22344">
        <ele>-7.918907</ele>
        <time>2020-06-05T16:24:44.995Z</time>
      </trkpt>
      <trkpt lat="47.40516" lon="-2.22357">
        <ele>-7.970344</ele>
        <time>2020-06-05T16:24:46.995Z</time>
      </trkpt>
      <trkpt lat="47.40525" lon="-2.22371">
        <ele>-8.025955</ele>
        <time>2020-06-05T16:24:48.995Z</time>
      </trkpt>
      <trkpt lat="47.40534" lon="-2.22383">
        <ele>-8.07579</ele>
        <time>2020-06-05T16:24:50.995Z</time>
      </trkpt>
      <trkpt lat="47.40542" lon="-2.22396">
        <ele>-8.125445</ele>
        <time>2020-06-05T16:24:52.995Z</time>
      </trkpt>
      <trkpt lat="47.40549" lon="-2.22407">
        <ele>-8.169521</ele>
        <time>2020-06-05T16:24:54.995Z</time>
      </trkpt>
      <trkpt lat="47.40556" lon="-2.22418">
        <ele>-8.211808</ele>
        <time>2020-06-05T16:24:56.995Z</time>
      </trkpt>
      <trkpt lat="47.40563" lon="-2.22429">
        <ele>-8.253539</ele>
        <time>2020-06-05T16:24:58.995Z</time>
      </trkpt>
      <trkpt lat="47.40571" lon="-2.22439">
        <ele>-8.296577</ele>
        <time>2020-06-05T16:25:00.995Z</time>
      </trkpt>
      <trkpt lat="47.4058" lon="-2.22451">
        <ele>-8.349438</ele>
        <time>2020-06-05T16:25:03.995Z</time>
      </trkpt>
      <trkpt lat="47.40588" lon="-2.22462">
        <ele>-8.393854</ele>
        <time>2020-06-05T16:25:05.995Z</time>
      </trkpt>
      <trkpt lat="47.40595" lon="-2.2247">
        <ele>-8.433235</ele>
        <time>2020-06-05T16:25:07.995Z</time>
      </trkpt>
      <trkpt lat="47.40604" lon="-2.22481">
        <ele>-8.479226</ele>
        <time>2020-06-05T16:25:09.995Z</time>
      </trkpt>
      <trkpt lat="47.40611" lon="-2.22494">
        <ele>-8.529012</ele>
        <time>2020-06-05T16:25:11.995Z</time>
      </trkpt>
      <trkpt lat="47.40619" lon="-2.22506">
        <ele>-8.573616</ele>
        <time>2020-06-05T16:25:13.995Z</time>
      </trkpt>
      <trkpt lat="47.40626" lon="-2.22518">
        <ele>-8.619195</ele>
        <time>2020-06-05T16:25:15.995Z</time>
      </trkpt>
      <trkpt lat="47.40634" lon="-2.2253">
        <ele>-8.594106</ele>
        <time>2020-06-05T16:25:17.995Z</time>
      </trkpt>
      <trkpt lat="47.40641" lon="-2.22541">
        <ele>-8.569107</ele>
        <time>2020-06-05T16:25:19.995Z</time>
      </trkpt>
      <trkpt lat="47.40648" lon="-2.22554">
        <ele>-8.543616</ele>
        <time>2020-06-05T16:25:21.995Z</time>
      </trkpt>
      <trkpt lat="47.40656" lon="-2.22566">
        <ele>-8.516433</ele>
        <time>2020-06-05T16:25:23.995Z</time>
      </trkpt>
      <trkpt lat="47.40664" lon="-2.22578">
        <ele>-8.489415</ele>
        <time>2020-06-05T16:25:25.995Z</time>
      </trkpt>
      <trkpt lat="47.40671" lon="-2.22589">
        <ele>-8.465343</ele>
        <time>2020-06-05T16:25:27.995Z</time>
      </trkpt>
      <trkpt lat="47.40678" lon="-2.22601">
        <ele>-8.439057</ele>
        <time>2020-06-05T16:25:29.995Z</time>
      </trkpt>
      <trkpt lat="47.40685" lon="-2.22611">
        <ele>-8.416593</ele>
        <time>2020-06-05T16:25:31.995Z</time>
      </trkpt>
      <trkpt lat="47.40693" lon="-2.22622">
        <ele>-8.390911</ele>
        <time>2020-06-05T16:25:33.995Z</time>
      </trkpt>
      <trkpt lat="47.40702" lon="-2.22633">
        <ele>-8.362621</ele>
        <time>2020-06-05T16:25:35.994Z</time>
      </trkpt>
      <trkpt lat="47.40711" lon="-2.22646">
        <ele>-8.333472</ele>
        <time>2020-06-05T16:25:37.994Z</time>
      </trkpt>
      <trkpt lat="47.40717" lon="-2.22657">
        <ele>-8.310902</ele>
        <time>2020-06-05T16:25:39.994Z</time>
      </trkpt>
      <trkpt lat="47.40725" lon="-2.22668">
        <ele>-8.286243</ele>
        <time>2020-06-05T16:25:41.994Z</time>
      </trkpt>
      <trkpt lat="47.40734" lon="-2.2268">
        <ele>-8.256812</ele>
        <time>2020-06-05T16:25:44.994Z</time>
      </trkpt>
      <trkpt lat="47.40743" lon="-2.22694">
        <ele>-8.226492</ele>
        <time>2020-06-05T16:25:47.994Z</time>
      </trkpt>
      <trkpt lat="47.40751" lon="-2.22705">
        <ele>-8.200655</ele>
        <time>2020-06-05T16:25:50.994Z</time>
      </trkpt>
      <trkpt lat="47.40759" lon="-2.22716">
        <ele>-8.270944</ele>
        <time>2020-06-05T16:25:53.994Z</time>
      </trkpt>
      <trkpt lat="47.40766" lon="-2.22725">
        <ele>-8.35193</ele>
        <time>2020-06-05T16:25:55.994Z</time>
      </trkpt>
      <trkpt lat="47.40774" lon="-2.22736">
        <ele>-8.439431</ele>
        <time>2020-06-05T16:25:57.994Z</time>
      </trkpt>
      <trkpt lat="47.40781" lon="-2.22747">
        <ele>-8.523955</ele>
        <time>2020-06-05T16:25:59.994Z</time>
      </trkpt>
      <trkpt lat="47.40788" lon="-2.2276">
        <ele>-8.620169</ele>
        <time>2020-06-05T16:26:01.994Z</time>
      </trkpt>
      <trkpt lat="47.40797" lon="-2.22772">
        <ele>-8.71901</ele>
        <time>2020-06-05T16:26:03.994Z</time>
      </trkpt>
      <trkpt lat="47.40807" lon="-2.22785">
        <ele>-8.832376</ele>
        <time>2020-06-05T16:26:05.994Z</time>
      </trkpt>
      <trkpt lat="47.40815" lon="-2.22797">
        <ele>-8.928439</ele>
        <time>2020-06-05T16:26:07.994Z</time>
      </trkpt>
      <trkpt lat="47.40823" lon="-2.22809">
        <ele>-9.020712</ele>
        <time>2020-06-05T16:26:09.994Z</time>
      </trkpt>
      <trkpt lat="47.40832" lon="-2.22823">
        <ele>-9.129269</ele>
        <time>2020-06-05T16:26:11.994Z</time>
      </trkpt>
      <trkpt lat="47.40841" lon="-2.22835">
        <ele>-9.233094</ele>
        <time>2020-06-05T16:26:13.994Z</time>
      </trkpt>
      <trkpt lat="47.4085" lon="-2.22847">
        <ele>-9.337389</ele>
        <time>2020-06-05T16:26:15.994Z</time>
      </trkpt>
      <trkpt lat="47.40859" lon="-2.2286">
        <ele>-9.440242</ele>
        <time>2020-06-05T16:26:17.994Z</time>
      </trkpt>
      <trkpt lat="47.40867" lon="-2.22873">
        <ele>-9.541118</ele>
        <time>2020-06-05T16:26:19.994Z</time>
      </trkpt>
      <trkpt lat="47.40876" lon="-2.22888">
        <ele>-9.654098</ele>
        <time>2020-06-05T16:26:21.994Z</time>
      </trkpt>
      <trkpt lat="47.40885" lon="-2.22899">
        <ele>-9.688464</ele>
        <time>2020-06-05T16:26:23.994Z</time>
      </trkpt>
      <trkpt lat="47.40893" lon="-2.22911">
        <ele>-9.660793</ele>
        <time>2020-06-05T16:26:25.993Z</time>
      </trkpt>
      <trkpt lat="47.40902" lon="-2.22923">
        <ele>-9.630389</ele>
        <time>2020-06-05T16:26:27.993Z</time>
      </trkpt>
      <trkpt lat="47.40912" lon="-2.22936">
        <ele>-9.600447</ele>
        <time>2020-06-05T16:26:29.993Z</time>
      </trkpt>
      <trkpt lat="47.40921" lon="-2.22949">
        <ele>-9.570115</ele>
        <time>2020-06-05T16:26:31.993Z</time>
      </trkpt>
      <trkpt lat="47.4093" lon="-2.22964">
        <ele>-9.536754</ele>
        <time>2020-06-05T16:26:33.993Z</time>
      </trkpt>
      <trkpt lat="47.40939" lon="-2.22977">
        <ele>-9.507099</ele>
        <time>2020-06-05T16:26:35.993Z</time>
      </trkpt>
      <trkpt lat="47.40947" lon="-2.22989">
        <ele>-9.479262</ele>
        <time>2020-06-05T16:26:37.993Z</time>
      </trkpt>
      <trkpt lat="47.40955" lon="-2.23">
        <ele>-9.452516</ele>
        <time>2020-06-05T16:26:39.993Z</time>
      </trkpt>
      <trkpt lat="47.40964" lon="-2.23012">
        <ele>-9.424631</ele>
        <time>2020-06-05T16:26:41.993Z</time>
      </trkpt>
      <trkpt lat="47.40974" lon="-2.23023">
        <ele>-9.392959</ele>
        <time>2020-06-05T16:26:43.993Z</time>
      </trkpt>
      <trkpt lat="47.40985" lon="-2.23034">
        <ele>-9.361083</ele>
        <time>2020-06-05T16:26:45.993Z</time>
      </trkpt>
      <trkpt lat="47.40994" lon="-2.23043">
        <ele>-9.336257</ele>
        <time>2020-06-05T16:26:47.993Z</time>
      </trkpt>
      <trkpt lat="47.41001" lon="-2.23054">
        <ele>-9.310707</ele>
        <time>2020-06-05T16:26:49.993Z</time>
      </trkpt>
      <trkpt lat="47.41011" lon="-2.23065">
        <ele>-9.281836</ele>
        <time>2020-06-05T16:26:51.993Z</time>
      </trkpt>
      <trkpt lat="47.41021" lon="-2.23076">
        <ele>-9.161017</ele>
        <time>2020-06-05T16:26:53.993Z</time>
      </trkpt>
      <trkpt lat="47.41031" lon="-2.23089">
        <ele>-8.965209</ele>
        <time>2020-06-05T16:26:55.993Z</time>
      </trkpt>
      <trkpt lat="47.4104" lon="-2.231">
        <ele>-8.779816</ele>
        <time>2020-06-05T16:26:57.993Z</time>
      </trkpt>
      <trkpt lat="47.4105" lon="-2.23111">
        <ele>-8.600472</ele>
        <time>2020-06-05T16:26:59.993Z</time>
      </trkpt>
      <trkpt lat="47.41061" lon="-2.2312">
        <ele>-8.418354</ele>
        <time>2020-06-05T16:27:01.993Z</time>
      </trkpt>
      <trkpt lat="47.41071" lon="-2.23129">
        <ele>-8.243186</ele>
        <time>2020-06-05T16:27:03.993Z</time>
      </trkpt>
      <trkpt lat="47.41081" lon="-2.23137">
        <ele>-8.072322</ele>
        <time>2020-06-05T16:27:05.993Z</time>
      </trkpt>
      <trkpt lat="47.41093" lon="-2.23144">
        <ele>-7.892114</ele>
        <time>2020-06-05T16:27:07.993Z</time>
      </trkpt>
      <trkpt lat="47.41105" lon="-2.23153">
        <ele>-7.69163</ele>
        <time>2020-06-05T16:27:09.993Z</time>
      </trkpt>
      <trkpt lat="47.41117" lon="-2.23161">
        <ele>-7.499102</ele>
        <time>2020-06-05T16:27:11.993Z</time>
      </trkpt>
      <trkpt lat="47.41127" lon="-2.23169">
        <ele>-7.329907</ele>
        <time>2020-06-05T16:27:13.993Z</time>
      </trkpt>
      <trkpt lat="47.41138" lon="-2.23178">
        <ele>-7.142968</ele>
        <time>2020-06-05T16:27:15.992Z</time>
      </trkpt>
      <trkpt lat="47.41148" lon="-2.23187">
        <ele>-6.966023</ele>
        <time>2020-06-05T16:27:17.992Z</time>
      </trkpt>
      <trkpt lat="47.41159" lon="-2.23195">
        <ele>-6.79337</ele>
        <time>2020-06-05T16:27:19.992Z</time>
      </trkpt>
      <trkpt lat="47.41169" lon="-2.23203">
        <ele>-6.616425</ele>
        <time>2020-06-05T16:27:21.992Z</time>
      </trkpt>
      <trkpt lat="47.41177" lon="-2.2321">
        <ele>-6.501825</ele>
        <time>2020-06-05T16:27:23.992Z</time>
      </trkpt>
      <trkpt lat="47.41188" lon="-2.23218">
        <ele>-6.353771</ele>
        <time>2020-06-05T16:27:25.992Z</time>
      </trkpt>
      <trkpt lat="47.41199" lon="-2.23226">
        <ele>-6.198246</ele>
        <time>2020-06-05T16:27:27.992Z</time>
      </trkpt>
      <trkpt lat="47.41209" lon="-2.23233">
        <ele>-6.050217</ele>
        <time>2020-06-05T16:27:29.992Z</time>
      </trkpt>
      <trkpt lat="47.4122" lon="-2.2324">
        <ele>-5.90012</ele>
        <time>2020-06-05T16:27:31.992Z</time>
      </trkpt>
      <trkpt lat="47.41232" lon="-2.23249">
        <ele>-5.732229</ele>
        <time>2020-06-05T16:27:33.992Z</time>
      </trkpt>
      <trkpt lat="47.41243" lon="-2.23256">
        <ele>-5.587515</ele>
        <time>2020-06-05T16:27:35.992Z</time>
      </trkpt>
      <trkpt lat="47.41253" lon="-2.23265">
        <ele>-5.437878</ele>
        <time>2020-06-05T16:27:37.992Z</time>
      </trkpt>
      <trkpt lat="47.41263" lon="-2.23272">
        <ele>-5.300334</ele>
        <time>2020-06-05T16:27:39.992Z</time>
      </trkpt>
      <trkpt lat="47.41273" lon="-2.23278">
        <ele>-5.169486</ele>
        <time>2020-06-05T16:27:41.992Z</time>
      </trkpt>
      <trkpt lat="47.41283" lon="-2.23286">
        <ele>-5.028345</ele>
        <time>2020-06-05T16:27:43.992Z</time>
      </trkpt>
      <trkpt lat="47.41294" lon="-2.23296">
        <ele>-4.858024</ele>
        <time>2020-06-05T16:27:45.992Z</time>
      </trkpt>
      <trkpt lat="47.41305" lon="-2.23304">
        <ele>-4.70811</ele>
        <time>2020-06-05T16:27:47.992Z</time>
      </trkpt>
      <trkpt lat="47.41318" lon="-2.23309">
        <ele>-4.537202</ele>
        <time>2020-06-05T16:27:49.992Z</time>
      </trkpt>
      <trkpt lat="47.41329" lon="-2.23314">
        <ele>-4.397024</ele>
        <time>2020-06-05T16:27:51.992Z</time>
      </trkpt>
      <trkpt lat="47.4134" lon="-2.23316">
        <ele>-4.247649</ele>
        <time>2020-06-05T16:27:53.992Z</time>
      </trkpt>
      <trkpt lat="47.4135" lon="-2.23319">
        <ele>-4.11529</ele>
        <time>2020-06-05T16:27:55.992Z</time>
      </trkpt>
      <trkpt lat="47.4136" lon="-2.23324">
        <ele>-3.975327</ele>
        <time>2020-06-05T16:27:57.992Z</time>
      </trkpt>
      <trkpt lat="47.41369" lon="-2.23333">
        <ele>-3.838982</ele>
        <time>2020-06-05T16:27:59.992Z</time>
      </trkpt>
      <trkpt lat="47.4137" lon="-2.23348">
        <ele>-3.703985</ele>
        <time>2020-06-05T16:28:01.992Z</time>
      </trkpt>
      <trkpt lat="47.41375" lon="-2.23361">
        <ele>-3.573827</ele>
        <time>2020-06-05T16:28:03.991Z</time>
      </trkpt>
      <trkpt lat="47.41382" lon="-2.23372">
        <ele>-3.431997</ele>
        <time>2020-06-05T16:28:05.991Z</time>
      </trkpt>
      <trkpt lat="47.41391" lon="-2.23381">
        <ele>-3.296191</ele>
        <time>2020-06-05T16:28:07.991Z</time>
      </trkpt>
      <trkpt lat="47.41399" lon="-2.23388">
        <ele>-3.164159</ele>
        <time>2020-06-05T16:28:09.993Z</time>
      </trkpt>
      <trkpt lat="47.41407" lon="-2.23395">
        <ele>-3.042383</ele>
        <time>2020-06-05T16:28:11.994Z</time>
      </trkpt>
      <trkpt lat="47.41418" lon="-2.23405">
        <ele>-2.876798</ele>
        <time>2020-06-05T16:28:14.995Z</time>
      </trkpt>
      <trkpt lat="47.41426" lon="-2.23412">
        <ele>-2.753429</ele>
        <time>2020-06-05T16:28:16.995Z</time>
      </trkpt>
      <trkpt lat="47.41434" lon="-2.23418">
        <ele>-2.6305</ele>
        <time>2020-06-05T16:28:18.996Z</time>
      </trkpt>
      <trkpt lat="47.41445" lon="-2.23426">
        <ele>-2.472098</ele>
        <time>2020-06-05T16:28:21.997Z</time>
      </trkpt>
      <trkpt lat="47.41454" lon="-2.23436">
        <ele>-2.317114</ele>
        <time>2020-06-05T16:28:24.997Z</time>
      </trkpt>
      <trkpt lat="47.41464" lon="-2.23446">
        <ele>-2.158081</ele>
        <time>2020-06-05T16:28:27.998Z</time>
      </trkpt>
      <trkpt lat="47.41475" lon="-2.23454">
        <ele>-1.995283</ele>
        <time>2020-06-05T16:28:30.998Z</time>
      </trkpt>
      <trkpt lat="47.41484" lon="-2.23462">
        <ele>-1.877078</ele>
        <time>2020-06-05T16:28:32.998Z</time>
      </trkpt>
      <trkpt lat="47.41494" lon="-2.23468">
        <ele>-1.748979</ele>
        <time>2020-06-05T16:28:34.998Z</time>
      </trkpt>
      <trkpt lat="47.41503" lon="-2.23473">
        <ele>-1.637594</ele>
        <time>2020-06-05T16:28:36.998Z</time>
      </trkpt>
      <trkpt lat="47.41516" lon="-2.23479">
        <ele>-1.477326</ele>
        <time>2020-06-05T16:28:39.999Z</time>
      </trkpt>
      <trkpt lat="47.41526" lon="-2.23483">
        <ele>-1.357126</ele>
        <time>2020-06-05T16:28:41.999Z</time>
      </trkpt>
      <trkpt lat="47.41535" lon="-2.23486">
        <ele>-1.246011</ele>
        <time>2020-06-05T16:28:43.999Z</time>
      </trkpt>
      <trkpt lat="47.41544" lon="-2.23492">
        <ele>-1.126382</ele>
        <time>2020-06-05T16:28:45.999Z</time>
      </trkpt>
      <trkpt lat="47.41557" lon="-2.23494">
        <ele>-0.979049</ele>
        <time>2020-06-05T16:28:48.999Z</time>
      </trkpt>
      <trkpt lat="47.41569" lon="-2.23499">
        <ele>-0.828569</ele>
        <time>2020-06-05T16:28:51.999Z</time>
      </trkpt>
      <trkpt lat="47.41579" lon="-2.23502">
        <ele>-0.712917</ele>
        <time>2020-06-05T16:28:54.999Z</time>
      </trkpt>
      <trkpt lat="47.41587" lon="-2.23509">
        <ele>-0.60051</ele>
        <time>2020-06-05T16:28:59.999Z</time>
      </trkpt>
      <trkpt lat="47.41577" lon="-2.23506">
        <ele>-0.470528</ele>
        <time>2020-06-05T16:29:05.999Z</time>
      </trkpt>
      <trkpt lat="47.41567" lon="-2.23502">
        <ele>-0.350485</ele>
        <time>2020-06-05T16:29:07.999Z</time>
      </trkpt>
      <trkpt lat="47.41558" lon="-2.23498">
        <ele>-0.240785</ele>
        <time>2020-06-05T16:29:12.999Z</time>
      </trkpt>
      <trkpt lat="47.41571" lon="-2.235">
        <ele>-0.081746</ele>
        <time>2020-06-05T16:33:55.993Z</time>
      </trkpt>
      <trkpt lat="47.4158" lon="-2.23503">
        <ele>0.026166</ele>
        <time>2020-06-05T16:33:58.993Z</time>
      </trkpt>
      <trkpt lat="47.4159" lon="-2.23505">
        <ele>0.176759</ele>
        <time>2020-06-05T16:34:01.993Z</time>
      </trkpt>
      <trkpt lat="47.41601" lon="-2.23507">
        <ele>0.52371</ele>
        <time>2020-06-05T16:34:04.993Z</time>
      </trkpt>
      <trkpt lat="47.41612" lon="-2.23511">
        <ele>0.904122</ele>
        <time>2020-06-05T16:34:07.993Z</time>
      </trkpt>
      <trkpt lat="47.41625" lon="-2.23516">
        <ele>1.322122</ele>
        <time>2020-06-05T16:34:10.993Z</time>
      </trkpt>
      <trkpt lat="47.41638" lon="-2.2352">
        <ele>1.746401</ele>
        <time>2020-06-05T16:34:13.993Z</time>
      </trkpt>
      <trkpt lat="47.41648" lon="-2.23524">
        <ele>2.102613</ele>
        <time>2020-06-05T16:34:16.993Z</time>
      </trkpt>
      <trkpt lat="47.41661" lon="-2.23529">
        <ele>2.527382</ele>
        <time>2020-06-05T16:34:19.993Z</time>
      </trkpt>
      <trkpt lat="47.41673" lon="-2.23533">
        <ele>2.923872</ele>
        <time>2020-06-05T16:34:22.993Z</time>
      </trkpt>
      <trkpt lat="47.41685" lon="-2.23536">
        <ele>3.313013</ele>
        <time>2020-06-05T16:34:25.992Z</time>
      </trkpt>
      <trkpt lat="47.41698" lon="-2.23536">
        <ele>3.746329</ele>
        <time>2020-06-05T16:34:28.992Z</time>
      </trkpt>
      <trkpt lat="47.41711" lon="-2.23534">
        <ele>4.146794</ele>
        <time>2020-06-05T16:34:31.992Z</time>
      </trkpt>
      <trkpt lat="47.41723" lon="-2.2353">
        <ele>4.556116</ele>
        <time>2020-06-05T16:34:34.992Z</time>
      </trkpt>
      <trkpt lat="47.41735" lon="-2.23525">
        <ele>4.975845</ele>
        <time>2020-06-05T16:34:37.992Z</time>
      </trkpt>
      <trkpt lat="47.41745" lon="-2.23521">
        <ele>5.282712</ele>
        <time>2020-06-05T16:34:39.992Z</time>
      </trkpt>
      <trkpt lat="47.41754" lon="-2.23518">
        <ele>5.582965</ele>
        <time>2020-06-05T16:34:41.992Z</time>
      </trkpt>
      <trkpt lat="47.41763" lon="-2.23514">
        <ele>5.899138</ele>
        <time>2020-06-05T16:34:43.992Z</time>
      </trkpt>
      <trkpt lat="47.41772" lon="-2.2351">
        <ele>5.701931</ele>
        <time>2020-06-05T16:34:45.992Z</time>
      </trkpt>
      <trkpt lat="47.41784" lon="-2.23505">
        <ele>5.297732</ele>
        <time>2020-06-05T16:34:48.992Z</time>
      </trkpt>
      <trkpt lat="47.41797" lon="-2.23497">
        <ele>4.885912</ele>
        <time>2020-06-05T16:34:51.992Z</time>
      </trkpt>
      <trkpt lat="47.41806" lon="-2.23494">
        <ele>4.585314</ele>
        <time>2020-06-05T16:34:53.992Z</time>
      </trkpt>
      <trkpt lat="47.41815" lon="-2.23489">
        <ele>4.300379</ele>
        <time>2020-06-05T16:34:55.992Z</time>
      </trkpt>
      <trkpt lat="47.41825" lon="-2.23485">
        <ele>3.999031</ele>
        <time>2020-06-05T16:34:57.992Z</time>
      </trkpt>
      <trkpt lat="47.41834" lon="-2.23482">
        <ele>3.717653</ele>
        <time>2020-06-05T16:34:59.992Z</time>
      </trkpt>
      <trkpt lat="47.41844" lon="-2.23479">
        <ele>3.407988</ele>
        <time>2020-06-05T16:35:01.992Z</time>
      </trkpt>
      <trkpt lat="47.41853" lon="-2.23478">
        <ele>3.119168</ele>
        <time>2020-06-05T16:35:03.992Z</time>
      </trkpt>
      <trkpt lat="47.41867" lon="-2.23477">
        <ele>2.695239</ele>
        <time>2020-06-05T16:35:06.992Z</time>
      </trkpt>
      <trkpt lat="47.41876" lon="-2.23481">
        <ele>2.415634</ele>
        <time>2020-06-05T16:35:08.992Z</time>
      </trkpt>
      <trkpt lat="47.41885" lon="-2.23485">
        <ele>2.131807</ele>
        <time>2020-06-05T16:35:10.992Z</time>
      </trkpt>
      <trkpt lat="47.41894" lon="-2.23489">
        <ele>1.845589</ele>
        <time>2020-06-05T16:35:12.992Z</time>
      </trkpt>
      <trkpt lat="47.41904" lon="-2.23493">
        <ele>1.51678</ele>
        <time>2020-06-05T16:35:15.994Z</time>
      </trkpt>
      <trkpt lat="47.41915" lon="-2.23498">
        <ele>1.163339</ele>
        <time>2020-06-05T16:35:18.994Z</time>
      </trkpt>
      <trkpt lat="47.41926" lon="-2.23502">
        <ele>0.823484</ele>
        <time>2020-06-05T16:35:21.995Z</time>
      </trkpt>
      <trkpt lat="47.41936" lon="-2.23507">
        <ele>0.502349</ele>
        <time>2020-06-05T16:35:24.996Z</time>
      </trkpt>
      <trkpt lat="47.41946" lon="-2.23512">
        <ele>0.221183</ele>
        <time>2020-06-05T16:35:27.997Z</time>
      </trkpt>
      <trkpt lat="47.41955" lon="-2.23519">
        <ele>-0.043575</ele>
        <time>2020-06-05T16:35:31.998Z</time>
      </trkpt>
      <trkpt lat="47.41964" lon="-2.23525">
        <ele>-0.291899</ele>
        <time>2020-06-05T16:35:37.998Z</time>
      </trkpt>
      <trkpt lat="47.41972" lon="-2.23534">
        <ele>-0.561374</ele>
        <time>2020-06-05T16:35:43.999Z</time>
      </trkpt>
      <trkpt lat="47.4198" lon="-2.2354">
        <ele>-0.796623</ele>
        <time>2020-06-05T16:35:46.999Z</time>
      </trkpt>
      <trkpt lat="47.41989" lon="-2.23549">
        <ele>-1.079619</ele>
        <time>2020-06-05T16:35:50.999Z</time>
      </trkpt>
      <trkpt lat="47.41996" lon="-2.2356">
        <ele>-1.331648</ele>
        <time>2020-06-05T16:35:54.999Z</time>
      </trkpt>
      <trkpt lat="47.42006" lon="-2.23567">
        <ele>-1.623469</ele>
        <time>2020-06-05T16:35:58.999Z</time>
      </trkpt>
      <trkpt lat="47.42015" lon="-2.23576">
        <ele>-1.902197</ele>
        <time>2020-06-05T16:36:01.999Z</time>
      </trkpt>
      <trkpt lat="47.42025" lon="-2.23586">
        <ele>-2.21479</ele>
        <time>2020-06-05T16:36:04.999Z</time>
      </trkpt>
      <trkpt lat="47.42033" lon="-2.23593">
        <ele>-2.449066</ele>
        <time>2020-06-05T16:36:06.999Z</time>
      </trkpt>
      <trkpt lat="47.42041" lon="-2.23601">
        <ele>-2.70914</ele>
        <time>2020-06-05T16:36:08.999Z</time>
      </trkpt>
      <trkpt lat="47.42049" lon="-2.23609">
        <ele>-2.951402</ele>
        <time>2020-06-05T16:36:10.999Z</time>
      </trkpt>
      <trkpt lat="47.42059" lon="-2.2362">
        <ele>-3.271998</ele>
        <time>2020-06-05T16:36:13.999Z</time>
      </trkpt>
      <trkpt lat="47.4207" lon="-2.23629">
        <ele>-3.612502</ele>
        <time>2020-06-05T16:36:16.999Z</time>
      </trkpt>
      <trkpt lat="47.42078" lon="-2.23638">
        <ele>-3.875564</ele>
        <time>2020-06-05T16:36:18.999Z</time>
      </trkpt>
      <trkpt lat="47.42086" lon="-2.23646">
        <ele>-4.120957</ele>
        <time>2020-06-05T16:36:20.999Z</time>
      </trkpt>
      <trkpt lat="47.42094" lon="-2.23654">
        <ele>-4.188165</ele>
        <time>2020-06-05T16:36:22.999Z</time>
      </trkpt>
      <trkpt lat="47.42106" lon="-2.23664">
        <ele>-4.131231</ele>
        <time>2020-06-05T16:36:25.999Z</time>
      </trkpt>
      <trkpt lat="47.42115" lon="-2.23672">
        <ele>-4.086335</ele>
        <time>2020-06-05T16:36:27.999Z</time>
      </trkpt>
      <trkpt lat="47.42123" lon="-2.2368">
        <ele>-4.047624</ele>
        <time>2020-06-05T16:36:29.999Z</time>
      </trkpt>
      <trkpt lat="47.42131" lon="-2.23687">
        <ele>-4.009577</ele>
        <time>2020-06-05T16:36:31.999Z</time>
      </trkpt>
      <trkpt lat="47.42139" lon="-2.23694">
        <ele>-3.969389</ele>
        <time>2020-06-05T16:36:33.999Z</time>
      </trkpt>
      <trkpt lat="47.42148" lon="-2.237">
        <ele>-3.928329</ele>
        <time>2020-06-05T16:36:35.999Z</time>
      </trkpt>
      <trkpt lat="47.42156" lon="-2.23708">
        <ele>-3.887667</ele>
        <time>2020-06-05T16:36:37.998Z</time>
      </trkpt>
      <trkpt lat="47.42165" lon="-2.23716">
        <ele>-3.844195</ele>
        <time>2020-06-05T16:36:39.998Z</time>
      </trkpt>
      <trkpt lat="47.42175" lon="-2.23723">
        <ele>-3.79951</ele>
        <time>2020-06-05T16:36:41.998Z</time>
      </trkpt>
      <trkpt lat="47.42183" lon="-2.2373">
        <ele>-3.758139</ele>
        <time>2020-06-05T16:36:43.998Z</time>
      </trkpt>
      <trkpt lat="47.42192" lon="-2.23738">
        <ele>-3.715902</ele>
        <time>2020-06-05T16:36:45.998Z</time>
      </trkpt>
      <trkpt lat="47.42201" lon="-2.23746">
        <ele>-3.671396</ele>
        <time>2020-06-05T16:36:47.998Z</time>
      </trkpt>
      <trkpt lat="47.42208" lon="-2.23759">
        <ele>-3.623242</ele>
        <time>2020-06-05T16:36:49.998Z</time>
      </trkpt>
      <trkpt lat="47.42217" lon="-2.23768">
        <ele>-3.578795</ele>
        <time>2020-06-05T16:36:51.998Z</time>
      </trkpt>
      <trkpt lat="47.42226" lon="-2.23774">
        <ele>-3.536323</ele>
        <time>2020-06-05T16:36:53.998Z</time>
      </trkpt>
      <trkpt lat="47.42236" lon="-2.23781">
        <ele>-3.490133</ele>
        <time>2020-06-05T16:36:55.998Z</time>
      </trkpt>
      <trkpt lat="47.42245" lon="-2.23791">
        <ele>-3.476045</ele>
        <time>2020-06-05T16:36:57.998Z</time>
      </trkpt>
      <trkpt lat="47.42254" lon="-2.23799">
        <ele>-3.517118</ele>
        <time>2020-06-05T16:36:59.998Z</time>
      </trkpt>
      <trkpt lat="47.42263" lon="-2.23807">
        <ele>-3.555388</ele>
        <time>2020-06-05T16:37:01.998Z</time>
      </trkpt>
      <trkpt lat="47.42271" lon="-2.23814">
        <ele>-3.589085</ele>
        <time>2020-06-05T16:37:03.998Z</time>
      </trkpt>
      <trkpt lat="47.4228" lon="-2.23819">
        <ele>-3.623601</ele>
        <time>2020-06-05T16:37:05.998Z</time>
      </trkpt>
      <trkpt lat="47.42288" lon="-2.23825">
        <ele>-3.658381</ele>
        <time>2020-06-05T16:37:07.998Z</time>
      </trkpt>
      <trkpt lat="47.42298" lon="-2.2383">
        <ele>-3.695737</ele>
        <time>2020-06-05T16:37:09.998Z</time>
      </trkpt>
      <trkpt lat="47.42307" lon="-2.23835">
        <ele>-3.73275</ele>
        <time>2020-06-05T16:37:11.998Z</time>
      </trkpt>
      <trkpt lat="47.42315" lon="-2.23842">
        <ele>-3.767087</ele>
        <time>2020-06-05T16:37:13.998Z</time>
      </trkpt>
      <trkpt lat="47.42324" lon="-2.23845">
        <ele>-3.801118</ele>
        <time>2020-06-05T16:37:15.998Z</time>
      </trkpt>
      <trkpt lat="47.42337" lon="-2.23849">
        <ele>-3.849531</ele>
        <time>2020-06-05T16:37:18.998Z</time>
      </trkpt>
      <trkpt lat="47.42347" lon="-2.23852">
        <ele>-3.885962</ele>
        <time>2020-06-05T16:37:20.998Z</time>
      </trkpt>
      <trkpt lat="47.42357" lon="-2.23856">
        <ele>-3.924338</ele>
        <time>2020-06-05T16:37:22.998Z</time>
      </trkpt>
      <trkpt lat="47.42366" lon="-2.23859">
        <ele>-3.960222</ele>
        <time>2020-06-05T16:37:24.998Z</time>
      </trkpt>
      <trkpt lat="47.42376" lon="-2.23861">
        <ele>-3.998704</ele>
        <time>2020-06-05T16:37:26.997Z</time>
      </trkpt>
      <trkpt lat="47.42386" lon="-2.23863">
        <ele>-4.035056</ele>
        <time>2020-06-05T16:37:28.997Z</time>
      </trkpt>
      <trkpt lat="47.42399" lon="-2.23866">
        <ele>-4.085338</ele>
        <time>2020-06-05T16:37:31.997Z</time>
      </trkpt>
      <trkpt lat="47.42409" lon="-2.23869">
        <ele>-4.12107</ele>
        <time>2020-06-05T16:37:33.997Z</time>
      </trkpt>
      <trkpt lat="47.42419" lon="-2.23873">
        <ele>-3.933448</ele>
        <time>2020-06-05T16:37:35.997Z</time>
      </trkpt>
      <trkpt lat="47.42429" lon="-2.23876">
        <ele>-3.689544</ele>
        <time>2020-06-05T16:37:37.997Z</time>
      </trkpt>
      <trkpt lat="47.42439" lon="-2.2388">
        <ele>-3.450485</ele>
        <time>2020-06-05T16:37:39.997Z</time>
      </trkpt>
      <trkpt lat="47.42449" lon="-2.23884">
        <ele>-3.215489</ele>
        <time>2020-06-05T16:37:41.997Z</time>
      </trkpt>
      <trkpt lat="47.42458" lon="-2.23888">
        <ele>-2.98134</ele>
        <time>2020-06-05T16:37:43.997Z</time>
      </trkpt>
      <trkpt lat="47.42468" lon="-2.23893">
        <ele>-2.74357</ele>
        <time>2020-06-05T16:37:45.997Z</time>
      </trkpt>
      <trkpt lat="47.42479" lon="-2.23896">
        <ele>-2.484408</ele>
        <time>2020-06-05T16:37:47.997Z</time>
      </trkpt>
      <trkpt lat="47.42488" lon="-2.239">
        <ele>-2.262733</ele>
        <time>2020-06-05T16:37:49.997Z</time>
      </trkpt>
      <trkpt lat="47.42498" lon="-2.23905">
        <ele>-2.02458</ele>
        <time>2020-06-05T16:37:51.997Z</time>
      </trkpt>
      <trkpt lat="47.42509" lon="-2.23909">
        <ele>-1.761802</ele>
        <time>2020-06-05T16:37:53.997Z</time>
      </trkpt>
      <trkpt lat="47.42518" lon="-2.23913">
        <ele>-1.526806</ele>
        <time>2020-06-05T16:37:55.997Z</time>
      </trkpt>
      <trkpt lat="47.42528" lon="-2.23917">
        <ele>-1.297229</ele>
        <time>2020-06-05T16:37:57.997Z</time>
      </trkpt>
      <trkpt lat="47.42537" lon="-2.2392">
        <ele>-1.07062</ele>
        <time>2020-06-05T16:37:59.997Z</time>
      </trkpt>
      <trkpt lat="47.42547" lon="-2.23925">
        <ele>-0.83948</ele>
        <time>2020-06-05T16:38:01.997Z</time>
      </trkpt>
      <trkpt lat="47.42556" lon="-2.23929">
        <ele>-0.616949</ele>
        <time>2020-06-05T16:38:03.997Z</time>
      </trkpt>
      <trkpt lat="47.42565" lon="-2.23934">
        <ele>-0.390701</ele>
        <time>2020-06-05T16:38:05.997Z</time>
      </trkpt>
      <trkpt lat="47.42575" lon="-2.23938">
        <ele>-0.154304</ele>
        <time>2020-06-05T16:38:07.997Z</time>
      </trkpt>
      <trkpt lat="47.42584" lon="-2.23944">
        <ele>0.054502</ele>
        <time>2020-06-05T16:38:09.997Z</time>
      </trkpt>
      <trkpt lat="47.42593" lon="-2.23948">
        <ele>-0.02878</ele>
        <time>2020-06-05T16:38:11.996Z</time>
      </trkpt>
      <trkpt lat="47.42602" lon="-2.23955">
        <ele>-0.109934</ele>
        <time>2020-06-05T16:38:13.996Z</time>
      </trkpt>
      <trkpt lat="47.4261" lon="-2.23963">
        <ele>-0.190435</ele>
        <time>2020-06-05T16:38:15.996Z</time>
      </trkpt>
      <trkpt lat="47.42618" lon="-2.23973">
        <ele>-0.281991</ele>
        <time>2020-06-05T16:38:17.996Z</time>
      </trkpt>
      <trkpt lat="47.42625" lon="-2.23982">
        <ele>-0.364868</ele>
        <time>2020-06-05T16:38:19.996Z</time>
      </trkpt>
      <trkpt lat="47.42633" lon="-2.23993">
        <ele>-0.454599</ele>
        <time>2020-06-05T16:38:21.996Z</time>
      </trkpt>
      <trkpt lat="47.4264" lon="-2.24006">
        <ele>-0.548603</ele>
        <time>2020-06-05T16:38:23.996Z</time>
      </trkpt>
      <trkpt lat="47.42647" lon="-2.2402">
        <ele>-0.64748</ele>
        <time>2020-06-05T16:38:25.996Z</time>
      </trkpt>
      <trkpt lat="47.42653" lon="-2.24034">
        <ele>-0.743456</ele>
        <time>2020-06-05T16:38:27.996Z</time>
      </trkpt>
      <trkpt lat="47.42659" lon="-2.24048">
        <ele>-0.838986</ele>
        <time>2020-06-05T16:38:29.996Z</time>
      </trkpt>
      <trkpt lat="47.42664" lon="-2.24062">
        <ele>-0.932868</ele>
        <time>2020-06-05T16:38:31.996Z</time>
      </trkpt>
      <trkpt lat="47.4267" lon="-2.24076">
        <ele>-1.024685</ele>
        <time>2020-06-05T16:38:33.996Z</time>
      </trkpt>
      <trkpt lat="47.42675" lon="-2.2409">
        <ele>-1.113824</ele>
        <time>2020-06-05T16:38:35.996Z</time>
      </trkpt>
      <trkpt lat="47.4268" lon="-2.24103">
        <ele>-1.200548</ele>
        <time>2020-06-05T16:38:37.996Z</time>
      </trkpt>
      <trkpt lat="47.42685" lon="-2.24117">
        <ele>-1.290601</ele>
        <time>2020-06-05T16:38:39.996Z</time>
      </trkpt>
      <trkpt lat="47.42689" lon="-2.24131">
        <ele>-1.375923</ele>
        <time>2020-06-05T16:38:41.996Z</time>
      </trkpt>
      <trkpt lat="47.42693" lon="-2.24144">
        <ele>-1.461461</ele>
        <time>2020-06-05T16:38:43.996Z</time>
      </trkpt>
      <trkpt lat="47.42698" lon="-2.24157">
        <ele>-1.132296</ele>
        <time>2020-06-05T16:38:45.996Z</time>
      </trkpt>
      <trkpt lat="47.42703" lon="-2.24169">
        <ele>-0.820507</ele>
        <time>2020-06-05T16:38:47.996Z</time>
      </trkpt>
      <trkpt lat="47.42708" lon="-2.24181">
        <ele>-0.499657</ele>
        <time>2020-06-05T16:38:49.996Z</time>
      </trkpt>
      <trkpt lat="47.42712" lon="-2.24193">
        <ele>-0.194361</ele>
        <time>2020-06-05T16:38:51.996Z</time>
      </trkpt>
      <trkpt lat="47.42716" lon="-2.24208">
        <ele>0.15202</ele>
        <time>2020-06-05T16:38:53.996Z</time>
      </trkpt>
      <trkpt lat="47.4272" lon="-2.2422">
        <ele>0.47686</ele>
        <time>2020-06-05T16:38:55.996Z</time>
      </trkpt>
      <trkpt lat="47.42726" lon="-2.24234">
        <ele>0.831401</ele>
        <time>2020-06-05T16:38:57.995Z</time>
      </trkpt>
      <trkpt lat="47.42731" lon="-2.24247">
        <ele>1.182633</ele>
        <time>2020-06-05T16:38:59.995Z</time>
      </trkpt>
      <trkpt lat="47.42736" lon="-2.24261">
        <ele>1.536599</ele>
        <time>2020-06-05T16:39:01.995Z</time>
      </trkpt>
      <trkpt lat="47.42741" lon="-2.24276">
        <ele>1.902142</ele>
        <time>2020-06-05T16:39:03.995Z</time>
      </trkpt>
      <trkpt lat="47.42744" lon="-2.24293">
        <ele>2.297772</ele>
        <time>2020-06-05T16:39:05.995Z</time>
      </trkpt>
      <trkpt lat="47.42746" lon="-2.2431">
        <ele>2.685323</ele>
        <time>2020-06-05T16:39:07.995Z</time>
      </trkpt>
      <trkpt lat="47.42748" lon="-2.24327">
        <ele>3.088893</ele>
        <time>2020-06-05T16:39:09.995Z</time>
      </trkpt>
      <trkpt lat="47.42752" lon="-2.24344">
        <ele>3.49003</ele>
        <time>2020-06-05T16:39:11.995Z</time>
      </trkpt>
      <trkpt lat="47.42756" lon="-2.2436">
        <ele>3.856107</ele>
        <time>2020-06-05T16:39:13.995Z</time>
      </trkpt>
      <trkpt lat="47.4276" lon="-2.24372">
        <ele>4.171419</ele>
        <time>2020-06-05T16:39:15.995Z</time>
      </trkpt>
      <trkpt lat="47.42766" lon="-2.24383">
        <ele>4.47784</ele>
        <time>2020-06-05T16:39:17.995Z</time>
      </trkpt>
      <trkpt lat="47.42772" lon="-2.24393">
        <ele>4.437806</ele>
        <time>2020-06-05T16:39:19.995Z</time>
      </trkpt>
      <trkpt lat="47.42781" lon="-2.24405">
        <ele>4.303903</ele>
        <time>2020-06-05T16:39:22.995Z</time>
      </trkpt>
      <trkpt lat="47.4279" lon="-2.24419">
        <ele>4.15758</ele>
        <time>2020-06-05T16:39:25.995Z</time>
      </trkpt>
      <trkpt lat="47.428" lon="-2.24432">
        <ele>4.012042</ele>
        <time>2020-06-05T16:39:28.995Z</time>
      </trkpt>
      <trkpt lat="47.42809" lon="-2.24445">
        <ele>3.880033</ele>
        <time>2020-06-05T16:39:31.995Z</time>
      </trkpt>
      <trkpt lat="47.42817" lon="-2.24458">
        <ele>3.745619</ele>
        <time>2020-06-05T16:39:34.995Z</time>
      </trkpt>
      <trkpt lat="47.42823" lon="-2.24469">
        <ele>3.641484</ele>
        <time>2020-06-05T16:39:36.995Z</time>
      </trkpt>
      <trkpt lat="47.4283" lon="-2.2448">
        <ele>3.531879</ele>
        <time>2020-06-05T16:39:38.995Z</time>
      </trkpt>
      <trkpt lat="47.42837" lon="-2.24491">
        <ele>3.415502</ele>
        <time>2020-06-05T16:39:40.995Z</time>
      </trkpt>
      <trkpt lat="47.42846" lon="-2.24498">
        <ele>3.309398</ele>
        <time>2020-06-05T16:39:42.994Z</time>
      </trkpt>
      <trkpt lat="47.42856" lon="-2.24504">
        <ele>3.188007</ele>
        <time>2020-06-05T16:39:44.994Z</time>
      </trkpt>
      <trkpt lat="47.42865" lon="-2.24512">
        <ele>3.074119</ele>
        <time>2020-06-05T16:39:46.994Z</time>
      </trkpt>
      <trkpt lat="47.42874" lon="-2.24519">
        <ele>2.959344</ele>
        <time>2020-06-05T16:39:48.994Z</time>
      </trkpt>
      <trkpt lat="47.42885" lon="-2.24526">
        <ele>2.832039</ele>
        <time>2020-06-05T16:39:50.994Z</time>
      </trkpt>
      <trkpt lat="47.42895" lon="-2.24534">
        <ele>2.70604</ele>
        <time>2020-06-05T16:39:52.994Z</time>
      </trkpt>
      <trkpt lat="47.42903" lon="-2.24541">
        <ele>2.598814</ele>
        <time>2020-06-05T16:39:54.994Z</time>
      </trkpt>
      <trkpt lat="47.42912" lon="-2.24548">
        <ele>2.498671</ele>
        <time>2020-06-05T16:39:56.994Z</time>
      </trkpt>
      <trkpt lat="47.42921" lon="-2.24555">
        <ele>2.401699</ele>
        <time>2020-06-05T16:39:58.994Z</time>
      </trkpt>
      <trkpt lat="47.42931" lon="-2.24563">
        <ele>2.296823</ele>
        <time>2020-06-05T16:40:00.994Z</time>
      </trkpt>
      <trkpt lat="47.42942" lon="-2.24569">
        <ele>2.187021</ele>
        <time>2020-06-05T16:40:02.994Z</time>
      </trkpt>
      <trkpt lat="47.42952" lon="-2.24576">
        <ele>2.085821</ele>
        <time>2020-06-05T16:40:04.994Z</time>
      </trkpt>
      <trkpt lat="47.42961" lon="-2.24582">
        <ele>1.986536</ele>
        <time>2020-06-05T16:40:06.994Z</time>
      </trkpt>
      <trkpt lat="47.42971" lon="-2.24588">
        <ele>1.889754</ele>
        <time>2020-06-05T16:40:08.994Z</time>
      </trkpt>
      <trkpt lat="47.42979" lon="-2.24597">
        <ele>1.797243</ele>
        <time>2020-06-05T16:40:10.994Z</time>
      </trkpt>
      <trkpt lat="47.42986" lon="-2.24606">
        <ele>1.704277</ele>
        <time>2020-06-05T16:40:12.994Z</time>
      </trkpt>
      <trkpt lat="47.42993" lon="-2.24618">
        <ele>1.606866</ele>
        <time>2020-06-05T16:40:14.994Z</time>
      </trkpt>
      <trkpt lat="47.42998" lon="-2.2463">
        <ele>1.513364</ele>
        <time>2020-06-05T16:40:16.994Z</time>
      </trkpt>
      <trkpt lat="47.43004" lon="-2.24644">
        <ele>1.414369</ele>
        <time>2020-06-05T16:40:18.994Z</time>
      </trkpt>
      <trkpt lat="47.4301" lon="-2.24658">
        <ele>1.306078</ele>
        <time>2020-06-05T16:40:20.994Z</time>
      </trkpt>
      <trkpt lat="47.43016" lon="-2.24669">
        <ele>1.211598</ele>
        <time>2020-06-05T16:40:22.994Z</time>
      </trkpt>
      <trkpt lat="47.43024" lon="-2.24681">
        <ele>1.104149</ele>
        <time>2020-06-05T16:40:24.994Z</time>
      </trkpt>
      <trkpt lat="47.43033" lon="-2.24689">
        <ele>1.009598</ele>
        <time>2020-06-05T16:40:26.994Z</time>
      </trkpt>
      <trkpt lat="47.43041" lon="-2.24699">
        <ele>0.913991</ele>
        <time>2020-06-05T16:40:28.993Z</time>
      </trkpt>
      <trkpt lat="47.43049" lon="-2.24708">
        <ele>0.898509</ele>
        <time>2020-06-05T16:40:30.993Z</time>
      </trkpt>
      <trkpt lat="47.43058" lon="-2.24716">
        <ele>1.002912</ele>
        <time>2020-06-05T16:40:32.993Z</time>
      </trkpt>
      <trkpt lat="47.43067" lon="-2.24724">
        <ele>1.104151</ele>
        <time>2020-06-05T16:40:34.993Z</time>
      </trkpt>
      <trkpt lat="47.43077" lon="-2.24731">
        <ele>1.217686</ele>
        <time>2020-06-05T16:40:36.993Z</time>
      </trkpt>
      <trkpt lat="47.43087" lon="-2.24738">
        <ele>1.322889</ele>
        <time>2020-06-05T16:40:38.993Z</time>
      </trkpt>
      <trkpt lat="47.43097" lon="-2.24744">
        <ele>1.431759</ele>
        <time>2020-06-05T16:40:40.993Z</time>
      </trkpt>
      <trkpt lat="47.43108" lon="-2.24751">
        <ele>1.541083</ele>
        <time>2020-06-05T16:40:42.993Z</time>
      </trkpt>
      <trkpt lat="47.43118" lon="-2.24756">
        <ele>1.648721</ele>
        <time>2020-06-05T16:40:44.993Z</time>
      </trkpt>
      <trkpt lat="47.4313" lon="-2.24758">
        <ele>1.763821</ele>
        <time>2020-06-05T16:40:46.993Z</time>
      </trkpt>
      <trkpt lat="47.43143" lon="-2.24759">
        <ele>1.895264</ele>
        <time>2020-06-05T16:40:48.993Z</time>
      </trkpt>
      <trkpt lat="47.43156" lon="-2.2476">
        <ele>2.018596</ele>
        <time>2020-06-05T16:40:50.993Z</time>
      </trkpt>
      <trkpt lat="47.43168" lon="-2.24759">
        <ele>2.136238</ele>
        <time>2020-06-05T16:40:52.993Z</time>
      </trkpt>
      <trkpt lat="47.43178" lon="-2.24753">
        <ele>2.239491</ele>
        <time>2020-06-05T16:40:54.993Z</time>
      </trkpt>
      <trkpt lat="47.43183" lon="-2.2474">
        <ele>2.346008</ele>
        <time>2020-06-05T16:40:56.993Z</time>
      </trkpt>
      <trkpt lat="47.43188" lon="-2.24725">
        <ele>2.453411</ele>
        <time>2020-06-05T16:40:58.993Z</time>
      </trkpt>
      <trkpt lat="47.43192" lon="-2.24712">
        <ele>2.543516</ele>
        <time>2020-06-05T16:41:00.993Z</time>
      </trkpt>
      <trkpt lat="47.43202" lon="-2.24703">
        <ele>2.606245</ele>
        <time>2020-06-05T16:41:03.993Z</time>
      </trkpt>
      <trkpt lat="47.4321" lon="-2.24709">
        <ele>2.584266</ele>
        <time>2020-06-05T16:41:05.993Z</time>
      </trkpt>
      <trkpt lat="47.4322" lon="-2.24713">
        <ele>2.562204</ele>
        <time>2020-06-05T16:41:07.993Z</time>
      </trkpt>
      <trkpt lat="47.43229" lon="-2.24718">
        <ele>2.540933</ele>
        <time>2020-06-05T16:41:09.993Z</time>
      </trkpt>
      <trkpt lat="47.43239" lon="-2.24724">
        <ele>2.515155</ele>
        <time>2020-06-05T16:41:11.993Z</time>
      </trkpt>
      <trkpt lat="47.4325" lon="-2.24731">
        <ele>2.489232</ele>
        <time>2020-06-05T16:41:13.993Z</time>
      </trkpt>
      <trkpt lat="47.43261" lon="-2.24735">
        <ele>2.462144</ele>
        <time>2020-06-05T16:41:15.992Z</time>
      </trkpt>
      <trkpt lat="47.43273" lon="-2.24739">
        <ele>2.435719</ele>
        <time>2020-06-05T16:41:17.992Z</time>
      </trkpt>
      <trkpt lat="47.43283" lon="-2.24743">
        <ele>2.412211</ele>
        <time>2020-06-05T16:41:19.992Z</time>
      </trkpt>
      <trkpt lat="47.43292" lon="-2.24748">
        <ele>2.390607</ele>
        <time>2020-06-05T16:41:21.992Z</time>
      </trkpt>
      <trkpt lat="47.43301" lon="-2.24752">
        <ele>2.367793</ele>
        <time>2020-06-05T16:41:23.992Z</time>
      </trkpt>
      <trkpt lat="47.43313" lon="-2.24754">
        <ele>2.340934</ele>
        <time>2020-06-05T16:41:25.992Z</time>
      </trkpt>
      <trkpt lat="47.43325" lon="-2.24756">
        <ele>2.313609</ele>
        <time>2020-06-05T16:41:27.992Z</time>
      </trkpt>
      <trkpt lat="47.43336" lon="-2.24758">
        <ele>2.288017</ele>
        <time>2020-06-05T16:41:29.992Z</time>
      </trkpt>
      <trkpt lat="47.43349" lon="-2.2476">
        <ele>2.260276</ele>
        <time>2020-06-05T16:41:31.992Z</time>
      </trkpt>
      <trkpt lat="47.43361" lon="-2.24761">
        <ele>2.231939</ele>
        <time>2020-06-05T16:41:33.992Z</time>
      </trkpt>
      <trkpt lat="47.43374" lon="-2.24762">
        <ele>2.219109</ele>
        <time>2020-06-05T16:41:35.992Z</time>
      </trkpt>
      <trkpt lat="47.43386" lon="-2.24763">
        <ele>2.250605</ele>
        <time>2020-06-05T16:41:37.992Z</time>
      </trkpt>
      <trkpt lat="47.43398" lon="-2.24763">
        <ele>2.283724</ele>
        <time>2020-06-05T16:41:39.992Z</time>
      </trkpt>
      <trkpt lat="47.4341" lon="-2.24765">
        <ele>2.316377</ele>
        <time>2020-06-05T16:41:41.992Z</time>
      </trkpt>
      <trkpt lat="47.43423" lon="-2.24766">
        <ele>2.352556</ele>
        <time>2020-06-05T16:41:43.992Z</time>
      </trkpt>
      <trkpt lat="47.43435" lon="-2.24766">
        <ele>2.384572</ele>
        <time>2020-06-05T16:41:45.992Z</time>
      </trkpt>
      <trkpt lat="47.43446" lon="-2.24767">
        <ele>2.416164</ele>
        <time>2020-06-05T16:41:47.992Z</time>
      </trkpt>
      <trkpt lat="47.43458" lon="-2.24768">
        <ele>2.447972</ele>
        <time>2020-06-05T16:41:49.992Z</time>
      </trkpt>
      <trkpt lat="47.4347" lon="-2.24768">
        <ele>2.481631</ele>
        <time>2020-06-05T16:41:51.992Z</time>
      </trkpt>
      <trkpt lat="47.43483" lon="-2.24767">
        <ele>2.516222</ele>
        <time>2020-06-05T16:41:53.992Z</time>
      </trkpt>
      <trkpt lat="47.43495" lon="-2.24765">
        <ele>2.550963</ele>
        <time>2020-06-05T16:41:55.992Z</time>
      </trkpt>
      <trkpt lat="47.43507" lon="-2.24764">
        <ele>2.583023</ele>
        <time>2020-06-05T16:41:57.992Z</time>
      </trkpt>
      <trkpt lat="47.43518" lon="-2.24764">
        <ele>2.613672</ele>
        <time>2020-06-05T16:41:59.991Z</time>
      </trkpt>
      <trkpt lat="47.43529" lon="-2.24764">
        <ele>2.643773</ele>
        <time>2020-06-05T16:42:01.991Z</time>
      </trkpt>
      <trkpt lat="47.43539" lon="-2.24763">
        <ele>2.670941</ele>
        <time>2020-06-05T16:42:03.991Z</time>
      </trkpt>
      <trkpt lat="47.43551" lon="-2.24761">
        <ele>2.699764</ele>
        <time>2020-06-05T16:42:05.991Z</time>
      </trkpt>
      <trkpt lat="47.43563" lon="-2.2476">
        <ele>2.6629</ele>
        <time>2020-06-05T16:42:07.991Z</time>
      </trkpt>
      <trkpt lat="47.43577" lon="-2.24759">
        <ele>2.618937</ele>
        <time>2020-06-05T16:42:09.991Z</time>
      </trkpt>
      <trkpt lat="47.4359" lon="-2.24758">
        <ele>2.5787</ele>
        <time>2020-06-05T16:42:11.991Z</time>
      </trkpt>
      <trkpt lat="47.43602" lon="-2.24757">
        <ele>2.542748</ele>
        <time>2020-06-05T16:42:13.991Z</time>
      </trkpt>
      <trkpt lat="47.43615" lon="-2.24755">
        <ele>2.50209</ele>
        <time>2020-06-05T16:42:15.991Z</time>
      </trkpt>
      <trkpt lat="47.43627" lon="-2.24754">
        <ele>2.46607</ele>
        <time>2020-06-05T16:42:17.991Z</time>
      </trkpt>
      <trkpt lat="47.43637" lon="-2.24754">
        <ele>2.433297</ele>
        <time>2020-06-05T16:42:19.991Z</time>
      </trkpt>
      <trkpt lat="47.43646" lon="-2.24752">
        <ele>2.40476</ele>
        <time>2020-06-05T16:42:21.993Z</time>
      </trkpt>
      <trkpt lat="47.43658" lon="-2.24751">
        <ele>2.368759</ele>
        <time>2020-06-05T16:42:23.994Z</time>
      </trkpt>
      <trkpt lat="47.43672" lon="-2.24749">
        <ele>2.326482</ele>
        <time>2020-06-05T16:42:25.994Z</time>
      </trkpt>
      <trkpt lat="47.43685" lon="-2.24749">
        <ele>2.284432</ele>
        <time>2020-06-05T16:42:27.995Z</time>
      </trkpt>
      <trkpt lat="47.43698" lon="-2.24748">
        <ele>2.244482</ele>
        <time>2020-06-05T16:42:29.996Z</time>
      </trkpt>
      <trkpt lat="47.4371" lon="-2.24747">
        <ele>2.208579</ele>
        <time>2020-06-05T16:42:31.996Z</time>
      </trkpt>
      <trkpt lat="47.43722" lon="-2.24745">
        <ele>2.171</ele>
        <time>2020-06-05T16:42:33.997Z</time>
      </trkpt>
      <trkpt lat="47.43733" lon="-2.24744">
        <ele>2.103258</ele>
        <time>2020-06-05T16:42:35.997Z</time>
      </trkpt>
      <trkpt lat="47.43747" lon="-2.24744">
        <ele>1.937889</ele>
        <time>2020-06-05T16:42:37.997Z</time>
      </trkpt>
      <trkpt lat="47.43758" lon="-2.2474">
        <ele>1.79775</ele>
        <time>2020-06-05T16:42:39.998Z</time>
      </trkpt>
      <trkpt lat="47.4377" lon="-2.24738">
        <ele>1.652044</ele>
        <time>2020-06-05T16:42:41.998Z</time>
      </trkpt>
      <trkpt lat="47.4378" lon="-2.24737">
        <ele>1.53281</ele>
        <time>2020-06-05T16:42:43.998Z</time>
      </trkpt>
      <trkpt lat="47.43791" lon="-2.24736">
        <ele>1.388345</ele>
        <time>2020-06-05T16:42:45.998Z</time>
      </trkpt>
      <trkpt lat="47.43804" lon="-2.24736">
        <ele>1.236524</ele>
        <time>2020-06-05T16:42:47.999Z</time>
      </trkpt>
      <trkpt lat="47.43817" lon="-2.24735">
        <ele>1.072229</ele>
        <time>2020-06-05T16:42:49.999Z</time>
      </trkpt>
      <trkpt lat="47.43829" lon="-2.24733">
        <ele>0.921561</ele>
        <time>2020-06-05T16:42:51.999Z</time>
      </trkpt>
      <trkpt lat="47.43843" lon="-2.24732">
        <ele>0.759863</ele>
        <time>2020-06-05T16:42:53.999Z</time>
      </trkpt>
      <trkpt lat="47.43854" lon="-2.24732">
        <ele>0.614183</ele>
        <time>2020-06-05T16:42:55.999Z</time>
      </trkpt>
      <trkpt lat="47.43866" lon="-2.24732">
        <ele>0.473391</ele>
        <time>2020-06-05T16:42:57.999Z</time>
      </trkpt>
      <trkpt lat="47.43876" lon="-2.24731">
        <ele>0.344634</ele>
        <time>2020-06-05T16:42:59.999Z</time>
      </trkpt>
      <trkpt lat="47.43888" lon="-2.2473">
        <ele>0.20483</ele>
        <time>2020-06-05T16:43:01.999Z</time>
      </trkpt>
      <trkpt lat="47.439" lon="-2.24729">
        <ele>0.060182</ele>
        <time>2020-06-05T16:43:03.999Z</time>
      </trkpt>
      <trkpt lat="47.43911" lon="-2.24727">
        <ele>-0.033887</ele>
        <time>2020-06-05T16:43:05.999Z</time>
      </trkpt>
      <trkpt lat="47.43923" lon="-2.24725">
        <ele>0.098532</ele>
        <time>2020-06-05T16:43:07.999Z</time>
      </trkpt>
      <trkpt lat="47.43935" lon="-2.24723">
        <ele>0.22161</ele>
        <time>2020-06-05T16:43:09.999Z</time>
      </trkpt>
      <trkpt lat="47.43946" lon="-2.24722">
        <ele>0.339266</ele>
        <time>2020-06-05T16:43:11.999Z</time>
      </trkpt>
      <trkpt lat="47.43956" lon="-2.24722">
        <ele>0.446947</ele>
        <time>2020-06-05T16:43:13.999Z</time>
      </trkpt>
      <trkpt lat="47.43967" lon="-2.24721">
        <ele>0.570697</ele>
        <time>2020-06-05T16:43:15.999Z</time>
      </trkpt>
      <trkpt lat="47.43979" lon="-2.2472">
        <ele>0.694789</ele>
        <time>2020-06-05T16:43:17.999Z</time>
      </trkpt>
      <trkpt lat="47.43991" lon="-2.24719">
        <ele>0.831525</ele>
        <time>2020-06-05T16:43:19.999Z</time>
      </trkpt>
      <trkpt lat="47.44003" lon="-2.24718">
        <ele>0.958617</ele>
        <time>2020-06-05T16:43:21.999Z</time>
      </trkpt>
      <trkpt lat="47.44014" lon="-2.24719">
        <ele>1.080216</ele>
        <time>2020-06-05T16:43:23.999Z</time>
      </trkpt>
      <trkpt lat="47.44028" lon="-2.24719">
        <ele>1.222239</ele>
        <time>2020-06-05T16:43:25.999Z</time>
      </trkpt>
      <trkpt lat="47.44041" lon="-2.24716">
        <ele>1.361953</ele>
        <time>2020-06-05T16:43:27.999Z</time>
      </trkpt>
      <trkpt lat="47.44052" lon="-2.24715">
        <ele>1.484869</ele>
        <time>2020-06-05T16:43:29.999Z</time>
      </trkpt>
      <trkpt lat="47.44065" lon="-2.24714">
        <ele>1.620593</ele>
        <time>2020-06-05T16:43:31.999Z</time>
      </trkpt>
      <trkpt lat="47.44077" lon="-2.24713">
        <ele>1.749998</ele>
        <time>2020-06-05T16:43:33.999Z</time>
      </trkpt>
      <trkpt lat="47.44088" lon="-2.24712">
        <ele>1.87749</ele>
        <time>2020-06-05T16:43:35.999Z</time>
      </trkpt>
      <trkpt lat="47.44097" lon="-2.24707">
        <ele>1.800647</ele>
        <time>2020-06-05T16:43:37.999Z</time>
      </trkpt>
      <trkpt lat="47.44107" lon="-2.24711">
        <ele>1.708137</ele>
        <time>2020-06-05T16:45:01.997Z</time>
      </trkpt>
      <trkpt lat="47.44117" lon="-2.2471">
        <ele>1.621142</ele>
        <time>2020-06-05T16:45:03.997Z</time>
      </trkpt>
      <trkpt lat="47.44131" lon="-2.2471">
        <ele>1.50125</ele>
        <time>2020-06-05T16:45:06.997Z</time>
      </trkpt>
      <trkpt lat="47.44142" lon="-2.24708">
        <ele>1.409284</ele>
        <time>2020-06-05T16:45:08.996Z</time>
      </trkpt>
      <trkpt lat="47.44152" lon="-2.24707">
        <ele>1.320553</ele>
        <time>2020-06-05T16:45:10.996Z</time>
      </trkpt>
      <trkpt lat="47.44163" lon="-2.24705">
        <ele>1.222553</ele>
        <time>2020-06-05T16:45:12.996Z</time>
      </trkpt>
      <trkpt lat="47.44173" lon="-2.24704">
        <ele>1.138125</ele>
        <time>2020-06-05T16:45:14.996Z</time>
      </trkpt>
      <trkpt lat="47.44184" lon="-2.24702">
        <ele>1.037537</ele>
        <time>2020-06-05T16:45:16.996Z</time>
      </trkpt>
      <trkpt lat="47.44194" lon="-2.247">
        <ele>0.955091</ele>
        <time>2020-06-05T16:45:18.996Z</time>
      </trkpt>
      <trkpt lat="47.44208" lon="-2.24699">
        <ele>0.827361</ele>
        <time>2020-06-05T16:45:20.996Z</time>
      </trkpt>
      <trkpt lat="47.44219" lon="-2.24698">
        <ele>0.730586</ele>
        <time>2020-06-05T16:45:22.996Z</time>
      </trkpt>
      <trkpt lat="47.44231" lon="-2.24697">
        <ele>0.627131</ele>
        <time>2020-06-05T16:45:24.996Z</time>
      </trkpt>
      <trkpt lat="47.44244" lon="-2.24696">
        <ele>0.514146</ele>
        <time>2020-06-05T16:45:26.995Z</time>
      </trkpt>
      <trkpt lat="47.44255" lon="-2.24695">
        <ele>0.419798</ele>
        <time>2020-06-05T16:45:28.995Z</time>
      </trkpt>
      <trkpt lat="47.44266" lon="-2.24696">
        <ele>0.323195</ele>
        <time>2020-06-05T16:45:30.995Z</time>
      </trkpt>
      <trkpt lat="47.44277" lon="-2.24694">
        <ele>0.385961</ele>
        <time>2020-06-05T16:45:32.995Z</time>
      </trkpt>
      <trkpt lat="47.44286" lon="-2.24693">
        <ele>0.453736</ele>
        <time>2020-06-05T16:45:34.995Z</time>
      </trkpt>
      <trkpt lat="47.44298" lon="-2.24692">
        <ele>0.53214</ele>
        <time>2020-06-05T16:45:37.995Z</time>
      </trkpt>
      <trkpt lat="47.44308" lon="-2.24688">
        <ele>0.606833</ele>
        <time>2020-06-05T16:45:40.995Z</time>
      </trkpt>
      <trkpt lat="47.443" lon="-2.24678">
        <ele>0.679941</ele>
        <time>2020-06-05T16:47:52.991Z</time>
      </trkpt>
      <trkpt lat="47.44301" lon="-2.24691">
        <ele>0.7435</ele>
        <time>2020-06-05T16:47:59.991Z</time>
      </trkpt>
      <trkpt lat="47.44311" lon="-2.2469">
        <ele>0.814341</ele>
        <time>2020-06-05T16:48:04.991Z</time>
      </trkpt>
      <trkpt lat="47.4432" lon="-2.24688">
        <ele>0.877788</ele>
        <time>2020-06-05T16:48:09.991Z</time>
      </trkpt>
      <trkpt lat="47.44329" lon="-2.24687">
        <ele>0.943416</ele>
        <time>2020-06-05T16:48:12.991Z</time>
      </trkpt>
      <trkpt lat="47.44339" lon="-2.24685">
        <ele>1.014276</ele>
        <time>2020-06-05T16:48:15.991Z</time>
      </trkpt>
      <trkpt lat="47.4435" lon="-2.24681">
        <ele>1.092541</ele>
        <time>2020-06-05T16:48:18.991Z</time>
      </trkpt>
      <trkpt lat="47.44362" lon="-2.24675">
        <ele>1.177939</ele>
        <time>2020-06-05T16:48:21.991Z</time>
      </trkpt>
      <trkpt lat="47.44374" lon="-2.24667">
        <ele>1.26975</ele>
        <time>2020-06-05T16:48:24.991Z</time>
      </trkpt>
      <trkpt lat="47.44385" lon="-2.24656">
        <ele>1.362891</ele>
        <time>2020-06-05T16:48:27.991Z</time>
      </trkpt>
      <trkpt lat="47.44392" lon="-2.24648">
        <ele>1.42687</ele>
        <time>2020-06-05T16:48:29.991Z</time>
      </trkpt>
      <trkpt lat="47.44401" lon="-2.24638">
        <ele>1.501292</ele>
        <time>2020-06-05T16:48:31.991Z</time>
      </trkpt>
      <trkpt lat="47.44409" lon="-2.24629">
        <ele>1.59419</ele>
        <time>2020-06-05T16:48:33.991Z</time>
      </trkpt>
      <trkpt lat="47.44419" lon="-2.24621">
        <ele>1.928503</ele>
        <time>2020-06-05T16:48:35.991Z</time>
      </trkpt>
      <trkpt lat="47.44428" lon="-2.24613">
        <ele>2.239885</ele>
        <time>2020-06-05T16:48:37.991Z</time>
      </trkpt>
      <trkpt lat="47.44436" lon="-2.24604">
        <ele>2.55554</ele>
        <time>2020-06-05T16:48:39.991Z</time>
      </trkpt>
      <trkpt lat="47.44444" lon="-2.24593">
        <ele>2.87376</ele>
        <time>2020-06-05T16:48:41.991Z</time>
      </trkpt>
      <trkpt lat="47.44451" lon="-2.24583">
        <ele>3.175715</ele>
        <time>2020-06-05T16:48:43.991Z</time>
      </trkpt>
      <trkpt lat="47.44459" lon="-2.24572">
        <ele>3.508743</ele>
        <time>2020-06-05T16:48:45.991Z</time>
      </trkpt>
      <trkpt lat="47.44464" lon="-2.24558">
        <ele>3.820095</ele>
        <time>2020-06-05T16:48:47.991Z</time>
      </trkpt>
      <trkpt lat="47.44466" lon="-2.24542">
        <ele>4.158735</ele>
        <time>2020-06-05T16:48:49.991Z</time>
      </trkpt>
      <trkpt lat="47.4447" lon="-2.24528">
        <ele>4.490224</ele>
        <time>2020-06-05T16:48:51.991Z</time>
      </trkpt>
      <trkpt lat="47.44477" lon="-2.24515">
        <ele>4.819473</ele>
        <time>2020-06-05T16:48:53.991Z</time>
      </trkpt>
      <trkpt lat="47.44489" lon="-2.24519">
        <ele>5.167387</ele>
        <time>2020-06-05T16:48:56.991Z</time>
      </trkpt>
      <trkpt lat="47.44498" lon="-2.24531">
        <ele>5.53668</ele>
        <time>2020-06-05T16:48:58.991Z</time>
      </trkpt>
      <trkpt lat="47.44503" lon="-2.24544">
        <ele>5.856137</ele>
        <time>2020-06-05T16:49:00.991Z</time>
      </trkpt>
      <trkpt lat="47.44503" lon="-2.24559">
        <ele>6.148504</ele>
        <time>2020-06-05T16:49:02.991Z</time>
      </trkpt>
      <trkpt lat="47.44499" lon="-2.24577">
        <ele>6.544726</ele>
        <time>2020-06-05T16:49:05.991Z</time>
      </trkpt>
      <trkpt lat="47.44499" lon="-2.24591">
        <ele>6.825015</ele>
        <time>2020-06-05T16:49:07.991Z</time>
      </trkpt>
      <trkpt lat="47.44501" lon="-2.24609">
        <ele>7.016668</ele>
        <time>2020-06-05T16:49:10.991Z</time>
      </trkpt>
      <trkpt lat="47.44504" lon="-2.24626">
        <ele>6.95632</ele>
        <time>2020-06-05T16:49:13.991Z</time>
      </trkpt>
      <trkpt lat="47.44501" lon="-2.24639">
        <ele>6.908548</ele>
        <time>2020-06-05T16:49:15.991Z</time>
      </trkpt>
      <trkpt lat="47.44502" lon="-2.24655">
        <ele>6.848349</ele>
        <time>2020-06-05T16:49:18.990Z</time>
      </trkpt>
      <trkpt lat="47.44506" lon="-2.2467">
        <ele>6.794361</ele>
        <time>2020-06-05T16:49:20.990Z</time>
      </trkpt>
      <trkpt lat="47.44507" lon="-2.24683">
        <ele>6.746068</ele>
        <time>2020-06-05T16:49:22.990Z</time>
      </trkpt>
      <trkpt lat="47.4451" lon="-2.24698">
        <ele>6.691555</ele>
        <time>2020-06-05T16:49:24.990Z</time>
      </trkpt>
      <trkpt lat="47.44513" lon="-2.24714">
        <ele>6.630332</ele>
        <time>2020-06-05T16:49:27.992Z</time>
      </trkpt>
      <trkpt lat="47.44516" lon="-2.24728">
        <ele>6.580403</ele>
        <time>2020-06-05T16:49:29.993Z</time>
      </trkpt>
      <trkpt lat="47.44518" lon="-2.24742">
        <ele>6.528296</ele>
        <time>2020-06-05T16:49:31.994Z</time>
      </trkpt>
      <trkpt lat="47.44522" lon="-2.24756">
        <ele>6.475179</ele>
        <time>2020-06-05T16:49:33.994Z</time>
      </trkpt>
      <trkpt lat="47.44524" lon="-2.24769">
        <ele>6.427548</ele>
        <time>2020-06-05T16:49:35.995Z</time>
      </trkpt>
      <trkpt lat="47.44527" lon="-2.24784">
        <ele>6.372838</ele>
        <time>2020-06-05T16:49:37.995Z</time>
      </trkpt>
      <trkpt lat="47.44529" lon="-2.24798">
        <ele>6.319699</ele>
        <time>2020-06-05T16:49:39.996Z</time>
      </trkpt>
      <trkpt lat="47.44531" lon="-2.24811">
        <ele>6.271172</ele>
        <time>2020-06-05T16:49:41.996Z</time>
      </trkpt>
      <trkpt lat="47.44534" lon="-2.24825">
        <ele>6.221737</ele>
        <time>2020-06-05T16:49:43.997Z</time>
      </trkpt>
      <trkpt lat="47.44538" lon="-2.24839">
        <ele>6.165581</ele>
        <time>2020-06-05T16:49:45.997Z</time>
      </trkpt>
      <trkpt lat="47.44546" lon="-2.24854">
        <ele>6.097658</ele>
        <time>2020-06-05T16:49:48.997Z</time>
      </trkpt>
      <trkpt lat="47.44545" lon="-2.24868">
        <ele>5.924803</ele>
        <time>2020-06-05T16:49:50.997Z</time>
      </trkpt>
      <trkpt lat="47.44541" lon="-2.24885">
        <ele>5.723063</ele>
        <time>2020-06-05T16:49:53.998Z</time>
      </trkpt>
      <trkpt lat="47.44543" lon="-2.24903">
        <ele>5.504559</ele>
        <time>2020-06-05T16:49:56.998Z</time>
      </trkpt>
      <trkpt lat="47.44546" lon="-2.24916">
        <ele>5.346012</ele>
        <time>2020-06-05T16:49:58.998Z</time>
      </trkpt>
      <trkpt lat="47.44548" lon="-2.2493">
        <ele>5.172235</ele>
        <time>2020-06-05T16:50:00.998Z</time>
      </trkpt>
      <trkpt lat="47.4455" lon="-2.24944">
        <ele>5.01115</ele>
        <time>2020-06-05T16:50:02.998Z</time>
      </trkpt>
      <trkpt lat="47.44551" lon="-2.24957">
        <ele>4.852336</ele>
        <time>2020-06-05T16:50:04.998Z</time>
      </trkpt>
      <trkpt lat="47.44552" lon="-2.24977">
        <ele>4.621628</ele>
        <time>2020-06-05T16:50:07.998Z</time>
      </trkpt>
      <trkpt lat="47.44554" lon="-2.2499">
        <ele>4.460534</ele>
        <time>2020-06-05T16:50:09.998Z</time>
      </trkpt>
      <trkpt lat="47.44557" lon="-2.25003">
        <ele>4.301678</ele>
        <time>2020-06-05T16:50:11.998Z</time>
      </trkpt>
      <trkpt lat="47.44561" lon="-2.25021">
        <ele>4.074285</ele>
        <time>2020-06-05T16:50:14.998Z</time>
      </trkpt>
      <trkpt lat="47.44563" lon="-2.25034">
        <ele>3.91619</ele>
        <time>2020-06-05T16:50:16.998Z</time>
      </trkpt>
      <trkpt lat="47.44564" lon="-2.25049">
        <ele>3.735165</ele>
        <time>2020-06-05T16:50:19.998Z</time>
      </trkpt>
      <trkpt lat="47.44566" lon="-2.25065">
        <ele>3.546869</ele>
        <time>2020-06-05T16:50:22.998Z</time>
      </trkpt>
      <trkpt lat="47.44568" lon="-2.25081">
        <ele>3.357077</ele>
        <time>2020-06-05T16:50:25.998Z</time>
      </trkpt>
      <trkpt lat="47.44571" lon="-2.25096">
        <ele>3.167863</ele>
        <time>2020-06-05T16:50:28.998Z</time>
      </trkpt>
      <trkpt lat="47.44574" lon="-2.25112">
        <ele>2.978177</ele>
        <time>2020-06-05T16:50:31.998Z</time>
      </trkpt>
      <trkpt lat="47.44576" lon="-2.25131">
        <ele>2.941546</ele>
        <time>2020-06-05T16:50:34.998Z</time>
      </trkpt>
      <trkpt lat="47.44579" lon="-2.25145">
        <ele>2.919042</ele>
        <time>2020-06-05T16:50:37.998Z</time>
      </trkpt>
      <trkpt lat="47.4458" lon="-2.2516">
        <ele>2.896333</ele>
        <time>2020-06-05T16:50:43.998Z</time>
      </trkpt>
      <trkpt lat="47.44589" lon="-2.25223">
        <ele>2.798314</ele>
        <time>2020-06-05T16:51:32.997Z</time>
      </trkpt>
      <trkpt lat="47.4459" lon="-2.25238">
        <ele>2.776839</ele>
        <time>2020-06-05T16:51:35.997Z</time>
      </trkpt>
      <trkpt lat="47.44591" lon="-2.25253">
        <ele>2.754075</ele>
        <time>2020-06-05T16:51:38.997Z</time>
      </trkpt>
      <trkpt lat="47.44592" lon="-2.25267">
        <ele>2.731485</ele>
        <time>2020-06-05T16:51:41.997Z</time>
      </trkpt>
      <trkpt lat="47.44595" lon="-2.25284">
        <ele>2.704543</ele>
        <time>2020-06-05T16:51:44.997Z</time>
      </trkpt>
      <trkpt lat="47.44598" lon="-2.25299">
        <ele>2.681187</ele>
        <time>2020-06-05T16:51:47.997Z</time>
      </trkpt>
      <trkpt lat="47.44606" lon="-2.25312">
        <ele>2.65645</ele>
        <time>2020-06-05T16:51:50.997Z</time>
      </trkpt>
      <trkpt lat="47.44615" lon="-2.25322">
        <ele>2.629925</ele>
        <time>2020-06-05T16:51:53.996Z</time>
      </trkpt>
      <trkpt lat="47.44622" lon="-2.25336">
        <ele>2.603999</ele>
        <time>2020-06-05T16:51:56.996Z</time>
      </trkpt>
      <trkpt lat="47.44619" lon="-2.25354">
        <ele>2.577149</ele>
        <time>2020-06-05T16:51:59.996Z</time>
      </trkpt>
      <trkpt lat="47.44615" lon="-2.25369">
        <ele>2.567126</ele>
        <time>2020-06-05T16:52:02.996Z</time>
      </trkpt>
      <trkpt lat="47.44618" lon="-2.25387">
        <ele>2.567126</ele>
        <time>2020-06-05T16:52:05.996Z</time>
      </trkpt>
      <trkpt lat="47.4462" lon="-2.25404">
        <ele>2.567126</ele>
        <time>2020-06-05T16:52:08.996Z</time>
      </trkpt>
      <trkpt lat="47.44621" lon="-2.25424">
        <ele>2.567126</ele>
        <time>2020-06-05T16:52:11.996Z</time>
      </trkpt>
      <trkpt lat="47.44622" lon="-2.25444">
        <ele>2.567126</ele>
        <time>2020-06-05T16:52:14.996Z</time>
      </trkpt>
      <trkpt lat="47.44622" lon="-2.25463">
        <ele>2.567126</ele>
        <time>2020-06-05T16:52:17.996Z</time>
      </trkpt>
      <trkpt lat="47.44623" lon="-2.25477">
        <ele>2.567126</ele>
        <time>2020-06-05T16:52:19.996Z</time>
      </trkpt>
      <trkpt lat="47.44623" lon="-2.25491">
        <ele>2.567126</ele>
        <time>2020-06-05T16:52:21.996Z</time>
      </trkpt>
      <trkpt lat="47.44624" lon="-2.25504">
        <ele>2.567126</ele>
        <time>2020-06-05T16:52:23.996Z</time>
      </trkpt>
      <trkpt lat="47.44625" lon="-2.25523">
        <ele>2.567126</ele>
        <time>2020-06-05T16:52:26.996Z</time>
      </trkpt>
      <trkpt lat="47.44625" lon="-2.25542">
        <ele>2.567126</ele>
        <time>2020-06-05T16:52:29.996Z</time>
      </trkpt>
      <trkpt lat="47.44626" lon="-2.25558">
        <ele>2.567126</ele>
        <time>2020-06-05T16:52:31.996Z</time>
      </trkpt>
      <trkpt lat="47.44626" lon="-2.25572">
        <ele>2.567126</ele>
        <time>2020-06-05T16:52:33.996Z</time>
      </trkpt>
    </trkseg>
  </trk>
</gpx>